[[{"header":{"parameterUnit":"m.s-1","parameterCategory":1,"la1":31.0,"la2":29.5877,"lo1":-88.7671,"lo2":-86.6584,"dy":0.0162,"dx":0.0185,"nx":115,"ny":88,"refTime":"2023-10-31T12:00:00:Z","depth":0,"parameterNumber":2,"parameterNumberName":"U-component_of_WINDS"},"data":[0.0,0.0,0.0,0.0,0.0,0.0,0.0,0.0,0.0,0.0,0.0,0.0,0.0,0.0,0.0,0.0,0.0,0.0,0.0,0.0,0.0,0.0,0.0,0.0,0.0,0.0,0.0,0.0,0.0,0.0,0.0,0.0,0.0,0.0,0.0,0.0,0.0,0.0,0.0,0.0,0.0,0.0,0.0,0.0,0.0,0.0,0.0,0.0,0.0,0.0,0.0,0.0,0.0,0.0,0.0,0.0,0.0,0.0,0.0,0.0,0.0,0.0,0.0,0.0,0.0,0.0,0.0,0.0,0.0,0.0,0.0,0.0,0.0,0.0,0.0,0.0,0.0,0.0,0.0,0.0,0.0,0.0,0.0,0.0,0.0,0.0,0.0,0.0,0.0,0.0,0.0,0.0,0.0,0.0,0.0,0.0,0.0,0.0,0.0,0.0,0.0,0.0,0.0,0.0,0.0,0.0,0.0,0.0,0.0,0.0,0.0,0.0,0.0,0.0,0.0,0.0,0.0,0.0,0.0,0.0,0.0,0.0,0.0,0.0,0.0,0.0,0.0,0.0,0.0,0.0,0.0,0.0,0.0,0.0,0.0,0.0,0.0,0.0,0.0,0.0,0.0,0.0,0.0,0.0,0.0,0.0,0.0,0.0,0.0,0.0,0.0,0.0,0.0,0.0,0.0,0.0,0.0,0.0,0.0,0.0,0.0,0.0,0.0,0.0,0.0,0.0,0.0,0.0,0.0,0.0,0.0,0.0,0.0,0.0,0.0,0.0,0.0,0.0,0.0,0.0,0.0,0.0,0.0,0.0,0.0,0.0,0.0,0.0,0.0,0.0,0.0,0.0,0.0,0.0,0.0,0.0,0.0,0.0,0.0,0.0,0.0,0.0,0.0,0.0,0.0,0.0,0.0,0.0,0.0,0.0,0.0,0.0,0.0,0.0,0.0,0.0,0.0,0.0,0.0,0.0,0.0,0.0,0.0,0.0,0.0,0.0,0.0,0.0,0.0,0.0,0.0,0.0,0.0,0.0,0.0,0.0,0.0,0.0,0.0,0.0,0.0,0.0,0.0,0.0,0.0,0.0,0.0,0.0,0.0,0.0,0.0,0.0,0.0,0.0,0.0,0.0,0.0,0.0,0.0,0.0,0.0,0.0,0.0,0.0,0.0,0.0,0.0,0.0,0.0,0.0,0.0,0.0,0.0,0.0,0.0,0.0,0.0,0.0,0.0,0.0,0.0,0.0,0.0,0.0,0.0,0.0,0.0,0.0,0.0,0.0,0.0,0.0,0.0,0.0,0.0,0.0,0.0,0.0,0.0,0.0,0.0,0.0,0.0,0.0,0.0,0.0,0.0,0.0,0.0,0.0,0.0,0.0,0.0,0.0,0.0,0.0,0.0,0.0,0.0,0.0,0.0,0.0,0.0,0.0,0.0,0.0,0.0,0.0,0.0,0.0,0.0,0.0,0.0,0.0,0.0,0.0,0.0,0.0,0.0,0.0,0.0,0.0,0.0,0.0,0.0,0.0,0.0,0.0,0.0,0.0,0.0,0.0,0.0,0.0,0.0,0.0,0.0,0.0,0.0,0.0,0.0,0.0,0.0,0.0,0.0,0.0,0.0,0.0,0.0,0.0,0.0,0.0,0.0,0.0,0.0,0.0,0.0,0.0,0.0,0.0,0.0,0.0,0.0,0.0,0.0,0.0,0.0,0.0,0.0,0.0,0.0,0.0,0.0,0.0,0.0,0.0,0.0,0.0,0.0,0.0,0.0,0.0,0.0,0.0,0.0,0.0,0.0,0.0,0.0,0.0,0.0,0.0,0.0,0.0,0.0,0.0,0.0,0.0,0.0,0.0,0.0,0.0,0.0,0.0,0.0,0.0,0.0,0.0,0.0,0.0,0.0,0.0,0.0,0.0,0.0,0.0,0.0,0.0,0.0,0.0,0.0,0.0,0.0,0.0,0.0,0.0,0.0,0.0,0.0,0.0,0.0,0.0,0.0,0.0,0.0,0.0,0.0,0.0,0.0,0.0,0.0,0.0,0.0,0.0,0.0,0.0,0.0,0.0,0.0,0.0,0.0,0.0,0.0,0.0,0.0,0.0,0.0,0.0,0.0,0.0,0.0,0.0,0.0,0.0,0.0,0.0,0.0,0.0,0.0,0.0,0.0,0.0,0.0,0.0,0.0,0.0,0.0,0.0,0.0,0.0,0.0,0.0,0.0,0.0,0.0,0.0,0.0,0.0,0.0,0.0,0.0,0.0,0.0,0.0,0.0,0.0,0.0,0.0,0.0,0.0,0.0,0.0,0.0,0.0,0.0,0.0,0.0,0.0,0.0,0.0,0.0,0.0,0.0,0.0,0.0,0.0,0.0,0.0,0.0,0.0,0.0,0.0,0.0,0.0,0.0,0.0,0.0,0.0,0.0,0.0,0.0,0.0,0.0,0.0,0.0,0.0,0.0,0.0,0.0,0.0,0.0,0.0,0.0,0.0,0.0,0.0,0.0,0.0,0.0,0.0,0.0,0.0,0.0,0.0,0.0,0.0,0.0,0.0,0.0,0.0,0.0,0.0,0.0,0.0,0.0,0.0,0.0,0.0,0.0,0.0,0.0,0.0,0.0,0.0,0.0,0.0,0.0,0.0,0.0,0.0,0.0,0.0,0.0,0.0,0.0,0.0,0.0,0.0,0.0,0.0,0.0,0.0,0.0,0.0,0.0,0.0,0.0,0.0,0.0,0.0,0.0,0.0,0.0,0.0,0.0,0.0,0.0,0.0,0.0,0.0,0.0,0.0,0.0,0.0,0.0,0.0,0.0,0.0,0.0,0.0,0.0,0.0,0.0,0.0,0.0,0.0,0.0,0.0,0.0,0.0,0.0,0.0,0.0,0.0,0.0,0.0,0.0,0.0,0.0,0.0,0.0,0.0,0.0,0.0,0.0,0.0,0.0,0.0,0.0,0.0,0.0,0.0,0.0,0.0,0.0,0.0,0.0,0.0,0.0,0.0,0.0,0.0,0.0,0.0,0.0,0.0,0.0,0.0,0.0,0.0,0.0,0.0,0.0,0.0,0.0,0.0,0.0,0.0,0.0,0.0,0.0,0.0,0.0,0.0,0.0,0.0,0.0,0.0,0.0,0.0,0.0,0.0,0.0,0.0,0.0,0.0,0.0,0.0,0.0,0.0,0.0,0.0,0.0,0.0,0.0,0.0,0.0,0.0,0.0,0.0,0.0,0.0,0.0,0.0,0.0,0.0,0.0,0.0,0.0,0.0,0.0,0.0,0.0,0.0,0.0,0.0,0.0,0.0,0.0,0.0,0.0,0.0,0.0,0.0,0.0,0.0,0.0,0.0,0.0,0.0,0.0,0.0,0.0,0.0,0.0,0.0,0.0,0.0,0.0,0.0,0.0,0.0,0.0,0.0,0.0,0.0,0.0,0.0,0.0,0.0,0.0,0.0,0.0,0.0,0.0,0.0,0.0,0.0,0.0,0.0,0.0,0.0,0.0,0.0,0.0,0.0,0.0,0.0,0.0,0.0,0.0,0.0,0.0,0.0,0.0,0.0,0.0,0.0,0.0,0.0,0.0,0.0,0.0,0.0,0.0,0.0,0.0,0.0,0.0,0.0,0.0,0.0,0.0,0.0,0.0,0.0,0.0,0.0,0.0,0.0,0.0,0.0,0.0,0.0,0.0,0.0,0.0,0.0,0.0,0.0,0.0,0.0,0.0,0.0,0.0,0.0,0.0,0.0,0.0,0.0,0.0,0.0,0.0,0.0,0.0,0.0,0.0,0.0,0.0,0.0,0.0,0.0,0.0,0.0,0.0,0.0,0.0,0.0,0.0,0.0,0.0,0.0,0.0,0.0,0.0,0.0,0.0,0.0,0.0,0.0,0.0,0.0,0.0,0.0,0.0,0.0,0.0,0.0,0.0,0.0,0.0,0.0,0.0,0.0,0.0,0.0,0.0,0.0,0.0,0.0,0.0,0.0,0.0,0.0,0.0,0.0,0.0,0.0,0.0,0.0,0.0,0.0,0.0,0.0,0.0,0.0,0.0,0.0,0.0,0.0,0.0,0.0,0.0,0.0,0.0,0.0,0.0,0.0,0.0,0.0,0.0,0.0,0.0,0.0,0.0,0.0,0.0,0.0,0.0,0.0,0.0,0.0,0.0,0.0,0.0,0.0,0.0,0.0,0.0,0.0,0.0,0.0,0.0,0.0,0.0,0.0,0.0,0.0,0.0,0.0,0.0,0.0,0.0,0.0,0.0,0.0,5.9511,0.0,0.0,0.0,0.0,0.0,0.0,0.0,0.0,0.0,0.0,0.0,0.0,0.0,0.0,0.0,0.0,0.0,0.0,0.0,0.0,0.0,0.0,0.0,0.0,0.0,0.0,0.0,0.0,0.0,0.0,0.0,0.0,0.0,0.0,0.0,0.0,0.0,0.0,0.0,0.0,0.0,0.0,0.0,0.0,0.0,0.0,0.0,0.0,0.0,0.0,0.0,0.0,0.0,0.0,0.0,0.0,0.0,0.0,0.0,0.0,0.0,0.0,0.0,0.0,0.0,0.0,0.0,0.0,0.0,0.0,0.0,0.0,0.0,0.0,0.0,0.0,0.0,0.0,0.0,0.0,0.0,0.0,0.0,0.0,0.0,0.0,0.0,0.0,0.0,0.0,0.0,0.0,0.0,0.0,0.0,0.0,0.0,0.0,0.0,0.0,0.0,0.0,0.0,0.0,0.0,0.0,0.0,0.0,0.0,0.0,6.0781,6.0781,6.0781,6.0627,6.0204,0.0,0.0,0.0,0.0,0.0,0.0,0.0,0.0,0.0,0.0,0.0,0.0,0.0,0.0,0.0,0.0,0.0,0.0,0.0,0.0,0.0,0.0,0.0,0.0,0.0,0.0,0.0,0.0,0.0,0.0,0.0,0.0,0.0,0.0,0.0,0.0,0.0,0.0,0.0,0.0,0.0,0.0,0.0,0.0,0.0,0.0,0.0,0.0,0.0,0.0,0.0,0.0,0.0,0.0,0.0,0.0,0.0,0.0,0.0,0.0,0.0,0.0,0.0,0.0,0.0,0.0,0.0,0.0,0.0,0.0,0.0,0.0,0.0,0.0,0.0,0.0,0.0,0.0,0.0,0.0,0.0,0.0,0.0,0.0,0.0,0.0,0.0,0.0,0.0,0.0,0.0,0.0,0.0,0.0,0.0,0.0,0.0,0.0,0.0,0.0,0.0,0.0,0.0,0.0,0.0,0.0,0.0,0.0,0.0,0.0,0.0,0.0,6.1166,6.0819,6.0204,0.0,0.0,0.0,0.0,0.0,0.0,0.0,0.0,0.0,0.0,0.0,0.0,0.0,0.0,0.0,0.0,0.0,0.0,0.0,0.0,0.0,0.0,0.0,0.0,0.0,0.0,0.0,0.0,0.0,0.0,0.0,0.0,0.0,0.0,0.0,0.0,0.0,0.0,0.0,0.0,0.0,0.0,0.0,0.0,0.0,0.0,0.0,0.0,0.0,0.0,0.0,0.0,0.0,0.0,0.0,0.0,0.0,0.0,0.0,0.0,0.0,0.0,0.0,0.0,0.0,0.0,0.0,0.0,0.0,0.0,0.0,0.0,0.0,0.0,0.0,0.0,0.0,0.0,0.0,0.0,0.0,0.0,0.0,0.0,0.0,0.0,0.0,0.0,0.0,0.0,0.0,0.0,0.0,0.0,0.0,0.0,0.0,0.0,0.0,0.0,0.0,0.0,0.0,0.0,0.0,0.0,0.0,0.0,0.0,0.0,6.306,6.3089,6.2344,0.0,5.8704,0.0,0.0,0.0,0.0,0.0,0.0,0.0,0.0,0.0,0.0,0.0,0.0,0.0,0.0,0.0,0.0,0.0,0.0,0.0,0.0,0.0,0.0,0.0,0.0,0.0,0.0,0.0,0.0,0.0,0.0,0.0,0.0,0.0,0.0,0.0,0.0,0.0,0.0,0.0,0.0,0.0,0.0,0.0,0.0,0.0,0.0,0.0,0.0,0.0,0.0,0.0,0.0,0.0,0.0,0.0,0.0,0.0,0.0,0.0,0.0,0.0,0.0,0.0,0.0,0.0,0.0,0.0,0.0,0.0,0.0,0.0,0.0,0.0,0.0,0.0,0.0,0.0,0.0,0.0,0.0,0.0,0.0,0.0,0.0,0.0,0.0,0.0,0.0,0.0,0.0,0.0,0.0,0.0,0.0,0.0,0.0,0.0,0.0,0.0,0.0,0.0,0.0,0.0,0.0,0.0,0.0,0.0,0.0,0.0,0.0,6.332,6.332,6.2536,6.092,0.0,0.0,0.0,0.0,0.0,0.0,0.0,0.0,0.0,0.0,0.0,0.0,0.0,0.0,0.0,0.0,0.0,0.0,0.0,0.0,0.0,0.0,0.0,0.0,0.0,0.0,0.0,0.0,0.0,0.0,0.0,0.0,0.0,0.0,0.0,0.0,0.0,0.0,0.0,0.0,0.0,0.0,0.0,0.0,0.0,0.0,0.0,0.0,0.0,0.0,0.0,0.0,0.0,0.0,0.0,0.0,0.0,0.0,0.0,0.0,0.0,0.0,0.0,0.0,0.0,0.0,0.0,0.0,0.0,0.0,0.0,0.0,0.0,0.0,0.0,0.0,0.0,0.0,0.0,0.0,0.0,0.0,0.0,0.0,0.0,0.0,0.0,0.0,0.0,0.0,0.0,0.0,0.0,0.0,0.0,0.0,0.0,0.0,0.0,0.0,0.0,0.0,0.0,0.0,0.0,0.0,0.0,0.0,0.0,0.0,6.4001,6.377,6.332,6.2743,6.1127,5.8396,0.0,0.0,0.0,0.0,0.0,0.0,0.0,0.0,0.0,0.0,0.0,0.0,0.0,0.0,0.0,0.0,0.0,0.0,0.0,0.0,0.0,0.0,0.0,0.0,0.0,0.0,0.0,0.0,0.0,0.0,0.0,0.0,0.0,0.0,0.0,0.0,0.0,0.0,0.0,0.0,0.0,0.0,0.0,0.0,0.0,0.0,0.0,0.0,0.0,0.0,0.0,0.0,0.0,0.0,0.0,0.0,0.0,0.0,0.0,0.0,0.0,0.0,0.0,0.0,0.0,0.0,0.0,0.0,0.0,0.0,0.0,0.0,0.0,0.0,0.0,0.0,0.0,0.0,0.0,0.0,0.0,0.0,0.0,0.0,0.0,0.0,0.0,0.0,0.0,0.0,0.0,0.0,0.0,0.0,0.0,0.0,0.0,0.0,0.0,0.0,0.0,0.0,0.0,0.0,0.0,0.0,0.0,0.0,6.5743,6.5743,6.4974,6.3358,6.3281,6.1666,0.0,0.0,0.0,0.0,0.0,0.0,0.0,0.0,0.0,0.0,0.0,0.0,0.0,0.0,0.0,0.0,0.0,0.0,0.0,0.0,0.0,0.0,0.0,0.0,0.0,0.0,0.0,0.0,0.0,0.0,0.0,0.0,0.0,0.0,0.0,0.0,0.0,0.0,0.0,0.0,0.0,0.0,0.0,0.0,0.0,0.0,0.0,0.0,0.0,0.0,0.0,0.0,0.0,0.0,0.0,0.0,0.0,0.0,0.0,0.0,0.0,0.0,0.0,0.0,0.0,0.0,0.0,0.0,0.0,0.0,0.0,0.0,0.0,0.0,0.0,0.0,0.0,0.0,0.0,0.0,0.0,0.0,0.0,0.0,0.0,0.0,0.0,0.0,0.0,0.0,0.0,0.0,0.0,0.0,0.0,0.0,0.0,0.0,0.0,0.0,0.0,0.0,0.0,0.0,0.0,0.0,0.0,0.0,0.0,6.5897,6.5897,6.5051,6.3397,6.332,6.1743,0.0,0.0,0.0,0.0,0.0,0.0,0.0,0.0,0.0,0.0,0.0,0.0,0.0,0.0,0.0,0.0,0.0,0.0,0.0,0.0,0.0,0.0,0.0,0.0,0.0,0.0,0.0,0.0,0.0,0.0,0.0,0.0,0.0,0.0,0.0,0.0,0.0,0.0,0.0,0.0,0.0,0.0,0.0,0.0,0.0,0.0,0.0,0.0,0.0,0.0,0.0,0.0,0.0,0.0,0.0,0.0,0.0,0.0,0.0,0.0,0.0,0.0,0.0,0.0,0.0,0.0,0.0,0.0,0.0,0.0,0.0,0.0,0.0,0.0,0.0,0.0,0.0,0.0,0.0,0.0,0.0,0.0,0.0,0.0,0.0,0.0,0.0,0.0,0.0,0.0,0.0,0.0,0.0,0.0,0.0,0.0,0.0,0.0,0.0,0.0,0.0,0.0,0.0,0.0,0.0,0.0,0.0,0.0,0.0,6.6269,0.0,6.559,6.4205,6.3589,6.1858,0.0,0.0,0.0,0.0,0.0,0.0,0.0,0.0,0.0,0.0,0.0,0.0,0.0,0.0,0.0,0.0,0.0,0.0,0.0,0.0,0.0,0.0,0.0,0.0,0.0,0.0,0.0,0.0,0.0,0.0,0.0,0.0,0.0,0.0,0.0,0.0,0.0,0.0,0.0,0.0,0.0,0.0,0.0,0.0,0.0,0.0,0.0,0.0,0.0,0.0,0.0,0.0,0.0,0.0,0.0,0.0,0.0,0.0,0.0,0.0,0.0,0.0,0.0,0.0,0.0,0.0,0.0,0.0,0.0,0.0,0.0,0.0,0.0,0.0,0.0,0.0,0.0,0.0,0.0,0.0,0.0,0.0,0.0,0.0,0.0,0.0,0.0,0.0,0.0,0.0,0.0,0.0,0.0,0.0,0.0,0.0,0.0,0.0,0.0,0.0,0.0,0.0,0.0,0.0,0.0,0.0,0.0,0.0,6.6384,6.7077,6.7154,6.6782,6.5897,6.4282,6.2166,0.0,0.0,0.0,0.0,0.0,0.0,0.0,0.0,0.0,0.0,0.0,0.0,0.0,0.0,0.0,0.0,0.0,0.0,0.0,0.0,0.0,0.0,0.0,0.0,0.0,0.0,0.0,0.0,0.0,0.0,0.0,0.0,0.0,0.0,0.0,0.0,0.0,0.0,0.0,0.0,0.0,0.0,0.0,0.0,0.0,0.0,0.0,0.0,0.0,0.0,0.0,0.0,0.0,0.0,0.0,0.0,0.0,0.0,0.0,0.0,0.0,0.0,0.0,0.0,0.0,0.0,0.0,0.0,0.0,0.0,0.0,0.0,0.0,0.0,0.0,0.0,0.0,0.0,0.0,0.0,0.0,0.0,0.0,0.0,0.0,0.0,0.0,0.0,0.0,0.0,0.0,0.0,0.0,0.0,0.0,0.0,0.0,0.0,0.0,0.0,0.0,0.0,0.0,0.0,0.0,0.0,0.0,0.0,0.0,6.8898,6.8898,6.8501,6.7603,6.5999,6.3897,0.0,0.0,0.0,0.0,0.0,0.0,0.0,0.0,0.0,0.0,0.0,0.0,0.0,0.0,0.0,0.0,0.0,0.0,0.0,0.0,0.0,0.0,0.0,0.0,0.0,0.0,0.0,0.0,0.0,0.0,0.0,0.0,0.0,0.0,0.0,0.0,0.0,0.0,0.0,0.0,0.0,0.0,0.0,0.0,0.0,0.0,0.0,0.0,0.0,0.0,0.0,0.0,0.0,0.0,0.0,0.0,0.0,0.0,0.0,0.0,0.0,0.0,0.0,0.0,0.0,0.0,0.0,0.0,0.0,0.0,0.0,0.0,0.0,0.0,0.0,0.0,0.0,0.0,0.0,0.0,0.0,0.0,0.0,0.0,0.0,0.0,0.0,0.0,0.0,0.0,0.0,0.0,0.0,0.0,0.0,0.0,0.0,0.0,0.0,0.0,0.0,0.0,0.0,0.0,0.0,0.0,0.0,0.0,0.0,7.2937,7.236,7.1629,7.0771,6.8809,6.6269,6.3122,0.0,0.0,0.0,0.0,0.0,0.0,0.0,0.0,0.0,0.0,0.0,0.0,0.0,0.0,0.0,0.0,0.0,0.0,0.0,0.0,0.0,0.0,0.0,0.0,0.0,0.0,0.0,0.0,0.0,0.0,0.0,0.0,0.0,0.0,0.0,0.0,0.0,0.0,0.0,0.0,0.0,0.0,0.0,0.0,0.0,0.0,0.0,0.0,0.0,0.0,0.0,0.0,0.0,0.0,0.0,0.0,0.0,0.0,0.0,0.0,0.0,0.0,0.0,0.0,0.0,0.0,0.0,0.0,0.0,0.0,0.0,0.0,0.0,0.0,0.0,0.0,0.0,0.0,0.0,0.0,0.0,0.0,0.0,0.0,0.0,0.0,0.0,0.0,0.0,0.0,0.0,0.0,0.0,0.0,0.0,0.0,0.0,0.0,0.0,0.0,0.0,0.0,0.0,0.0,0.0,0.0,0.0,0.0,7.8806,7.7468,7.6245,7.5148,7.2563,6.9232,0.0,0.0,0.0,0.0,0.0,0.0,0.0,0.0,0.0,0.0,0.0,0.0,0.0,0.0,0.0,0.0,0.0,0.0,0.0,0.0,0.0,0.0,0.0,0.0,0.0,0.0,0.0,0.0,0.0,0.0,0.0,0.0,0.0,0.0,0.0,0.0,0.0,0.0,0.0,0.0,0.0,0.0,0.0,0.0,0.0,0.0,0.0,0.0,0.0,0.0,0.0,0.0,0.0,0.0,0.0,0.0,0.0,0.0,0.0,0.0,0.0,0.0,0.0,0.0,0.0,0.0,0.0,0.0,0.0,0.0,0.0,0.0,0.0,0.0,0.0,0.0,0.0,0.0,0.0,0.0,0.0,0.0,0.0,0.0,0.0,0.0,0.0,0.0,0.0,0.0,0.0,0.0,0.0,0.0,0.0,0.0,0.0,0.0,0.0,0.0,0.0,0.0,0.0,0.0,0.0,0.0,0.0,0.0,0.0,8.3093,8.4626,8.3753,8.04,7.6655,7.3262,0.0,0.0,0.0,0.0,0.0,0.0,0.0,0.0,0.0,0.0,0.0,0.0,0.0,0.0,0.0,0.0,0.0,0.0,0.0,0.0,0.0,0.0,0.0,0.0,0.0,0.0,0.0,0.0,0.0,0.0,0.0,0.0,0.0,0.0,0.0,0.0,0.0,0.0,0.0,0.0,0.0,0.0,0.0,0.0,0.0,0.0,0.0,0.0,0.0,0.0,0.0,0.0,0.0,0.0,0.0,0.0,0.0,0.0,0.0,0.0,0.0,0.0,0.0,0.0,0.0,0.0,0.0,0.0,0.0,0.0,0.0,0.0,0.0,0.0,0.0,0.0,0.0,0.0,0.0,0.0,0.0,0.0,0.0,0.0,0.0,0.0,0.0,0.0,0.0,0.0,0.0,0.0,0.0,0.0,0.0,0.0,0.0,0.0,0.0,0.0,0.0,0.0,0.0,0.0,0.0,0.0,0.0,0.0,8.1484,8.5301,8.8594,8.9252,8.7154,8.1612,7.6967,0.0,0.0,0.0,0.0,0.0,0.0,0.0,0.0,0.0,0.0,0.0,0.0,0.0,0.0,0.0,0.0,0.0,0.0,0.0,0.0,0.0,0.0,0.0,0.0,0.0,0.0,0.0,0.0,0.0,0.0,0.0,0.0,0.0,0.0,0.0,0.0,0.0,0.0,0.0,0.0,0.0,0.0,0.0,0.0,0.0,0.0,0.0,0.0,0.0,0.0,0.0,0.0,0.0,0.0,0.0,0.0,0.0,0.0,0.0,0.0,0.0,0.0,0.0,0.0,0.0,0.0,0.0,0.0,0.0,0.0,0.0,0.0,0.0,0.0,0.0,0.0,0.0,0.0,0.0,0.0,0.0,0.0,0.0,0.0,0.0,0.0,0.0,0.0,0.0,0.0,0.0,0.0,0.0,0.0,0.0,0.0,0.0,0.0,0.0,0.0,0.0,0.0,0.0,0.0,0.0,0.0,0.0,0.0,8.3138,8.6457,9.0675,9.3287,9.383,8.6684,8.0407,0.0,0.0,0.0,0.0,0.0,0.0,0.0,0.0,0.0,0.0,0.0,0.0,0.0,0.0,0.0,0.0,0.0,0.0,0.0,0.0,0.0,0.0,0.0,0.0,0.0,0.0,0.0,0.0,0.0,0.0,0.0,0.0,0.0,0.0,0.0,0.0,0.0,0.0,0.0,0.0,0.0,0.0,0.0,0.0,0.0,0.0,0.0,0.0,0.0,0.0,0.0,0.0,0.0,0.0,0.0,0.0,0.0,0.0,0.0,0.0,0.0,0.0,0.0,0.0,0.0,0.0,0.0,0.0,0.0,0.0,0.0,0.0,0.0,0.0,0.0,0.0,0.0,0.0,0.0,0.0,0.0,0.0,0.0,0.0,0.0,0.0,0.0,0.0,0.0,0.0,0.0,0.0,0.0,0.0,0.0,0.0,0.0,0.0,0.0,0.0,0.0,0.0,0.0,0.0,0.0,0.0,0.0,0.0,8.5703,8.9063,9.3281,9.5861,9.6634,8.9297,8.3561,0.0,0.0,0.0,0.0,0.0,0.0,0.0,0.0,0.0,0.0,0.0,0.0,0.0,0.0,0.0,0.0,0.0,0.0,0.0,0.0,0.0,0.0,0.0,0.0,0.0,0.0,0.0,0.0,0.0,0.0,0.0,0.0,0.0,0.0,0.0,0.0,0.0,0.0,0.0,0.0,0.0,0.0,0.0,0.0,0.0,0.0,0.0,0.0,6.4372,0.0,0.0,0.0,0.0,0.0,0.0,0.0,0.0,0.0,0.0,0.0,0.0,0.0,0.0,0.0,0.0,0.0,0.0,0.0,0.0,0.0,0.0,0.0,0.0,0.0,0.0,0.0,0.0,0.0,0.0,0.0,0.0,0.0,0.0,0.0,0.0,0.0,0.0,0.0,0.0,0.0,0.0,0.0,0.0,0.0,0.0,0.0,0.0,0.0,0.0,0.0,0.0,0.0,0.0,0.0,0.0,0.0,0.0,0.0,8.6704,9.0449,9.4321,9.709,9.8442,9.2832,8.7329,0.0,0.0,0.0,0.0,0.0,0.0,0.0,0.0,0.0,0.0,0.0,0.0,0.0,0.0,0.0,0.0,0.0,0.0,0.0,0.0,0.0,0.0,0.0,0.0,0.0,0.0,0.0,0.0,0.0,0.0,0.0,0.0,0.0,0.0,0.0,0.0,0.0,0.0,0.0,0.0,0.0,0.0,0.0,0.0,0.0,0.0,0.0,0.0,0.0,0.0,0.0,0.0,0.0,0.0,0.0,0.0,0.0,0.0,0.0,0.0,0.0,0.0,0.0,0.0,0.0,0.0,0.0,0.0,0.0,0.0,0.0,0.0,0.0,0.0,0.0,0.0,0.0,0.0,0.0,0.0,0.0,0.0,0.0,0.0,0.0,0.0,0.0,0.0,0.0,0.0,0.0,0.0,0.0,0.0,0.0,0.0,0.0,0.0,0.0,0.0,0.0,0.0,0.0,0.0,0.0,0.0,0.0,8.2563,8.7204,9.1489,9.5055,9.7978,10.0173,9.6251,9.0982,0.0,0.0,0.0,0.0,0.0,0.0,0.0,0.0,0.0,0.0,0.0,0.0,0.0,0.0,0.0,0.0,0.0,0.0,0.0,0.0,0.0,0.0,0.0,0.0,0.0,0.0,0.0,0.0,0.0,0.0,0.0,0.0,0.0,0.0,0.0,0.0,0.0,0.0,0.0,6.3103,6.4372,0.0,0.0,0.0,0.0,0.0,0.0,0.0,0.0,6.5692,0.0,0.0,0.0,0.0,0.0,0.0,0.0,0.0,0.0,0.0,0.0,0.0,0.0,0.0,0.0,0.0,0.0,0.0,0.0,0.0,0.0,0.0,0.0,0.0,0.0,0.0,0.0,0.0,0.0,0.0,0.0,0.0,0.0,0.0,0.0,0.0,0.0,0.0,0.0,0.0,0.0,0.0,0.0,0.0,0.0,0.0,0.0,0.0,0.0,0.0,0.0,0.0,0.0,0.0,0.0,0.0,7.9345,8.371,8.8315,9.3178,9.7327,10.0019,10.0978,9.7712,9.3015,8.6878,0.0,0.0,0.0,0.0,0.0,0.0,0.0,0.0,0.0,0.0,0.0,0.0,0.0,0.0,0.0,0.0,0.0,0.0,0.0,0.0,0.0,0.0,0.0,0.0,0.0,0.0,0.0,0.0,0.0,0.0,0.0,0.0,0.0,0.0,0.0,0.0,0.0,0.0,0.0,6.8052,6.8359,0.0,0.0,0.0,0.0,0.0,0.0,0.0,0.0,6.7422,0.0,0.0,0.0,0.0,0.0,0.0,0.0,0.0,0.0,0.0,0.0,0.0,0.0,0.0,0.0,0.0,0.0,0.0,0.0,0.0,0.0,0.0,0.0,0.0,0.0,0.0,0.0,0.0,0.0,0.0,0.0,0.0,0.0,0.0,0.0,0.0,0.0,0.0,0.0,0.0,0.0,0.0,0.0,0.0,0.0,0.0,0.0,0.0,0.0,0.0,0.0,0.0,0.0,0.0,0.0,7.9808,8.4867,8.9927,9.4905,9.8366,10.1325,10.3741,9.9404,9.4552,0.0,0.0,0.0,0.0,0.0,0.0,0.0,0.0,0.0,0.0,0.0,0.0,0.0,0.0,0.0,0.0,0.0,0.0,0.0,0.0,0.0,0.0,0.0,0.0,0.0,0.0,0.0,0.0,0.0,0.0,0.0,0.0,0.0,0.0,0.0,0.0,0.0,0.0,0.0,0.0,7.0744,7.1668,7.3322,0.0,0.0,0.0,0.0,0.0,0.0,6.9102,6.9229,0.0,0.0,0.0,0.0,0.0,0.0,0.0,0.0,0.0,0.0,0.0,0.0,0.0,0.0,0.0,0.0,0.0,0.0,0.0,0.0,0.0,0.0,0.0,0.0,0.0,0.0,0.0,0.0,0.0,0.0,0.0,0.0,0.0,0.0,0.0,0.0,0.0,0.0,0.0,0.0,0.0,0.0,0.0,0.0,0.0,0.0,0.0,0.0,0.0,0.0,0.0,0.0,0.0,0.0,0.0,8.0088,8.5907,9.1352,9.6135,9.9135,10.2363,10.5896,10.0519,9.5439,0.0,0.0,0.0,0.0,0.0,0.0,0.0,0.0,0.0,0.0,0.0,0.0,0.0,0.0,0.0,0.0,0.0,0.0,0.0,0.0,0.0,0.0,0.0,0.0,0.0,0.0,0.0,0.0,0.0,0.0,0.0,0.0,0.0,0.0,0.0,0.0,0.0,0.0,0.0,0.0,0.0,7.4938,7.6746,7.4861,0.0,0.0,0.0,0.0,7.1156,7.1766,0.0,0.0,0.0,0.0,0.0,0.0,0.0,0.0,0.0,0.0,0.0,0.0,0.0,0.0,0.0,0.0,0.0,0.0,0.0,0.0,0.0,0.0,0.0,0.0,0.0,0.0,0.0,0.0,0.0,0.0,0.0,0.0,0.0,0.0,0.0,0.0,0.0,0.0,0.0,0.0,0.0,0.0,0.0,0.0,0.0,0.0,0.0,0.0,0.0,0.0,0.0,0.0,0.0,0.0,0.0,0.0,8.0992,8.6755,9.1895,9.6213,10.0248,10.3247,10.5133,10.0211,9.5172,0.0,0.0,0.0,0.0,0.0,0.0,0.0,0.0,0.0,0.0,0.0,0.0,0.0,0.0,0.0,0.0,0.0,0.0,0.0,0.0,0.0,0.0,0.0,0.0,0.0,0.0,0.0,0.0,0.0,0.0,0.0,0.0,0.0,0.0,0.0,0.0,0.0,0.0,0.0,0.0,0.0,7.7746,8.0169,7.8323,7.6361,0.0,0.0,0.0,7.6159,7.6532,0.0,0.0,0.0,0.0,0.0,0.0,0.0,0.0,0.0,0.0,0.0,0.0,0.0,0.0,0.0,0.0,0.0,0.0,0.0,0.0,0.0,0.0,0.0,0.0,0.0,0.0,0.0,0.0,0.0,0.0,0.0,0.0,0.0,0.0,0.0,0.0,0.0,0.0,0.0,0.0,0.0,0.0,0.0,0.0,0.0,0.0,0.0,0.0,0.0,0.0,0.0,0.0,0.0,0.0,0.0,7.7784,8.1201,8.7886,9.3207,9.6902,10.0171,10.3826,10.7864,10.1171,9.5752,0.0,0.0,0.0,0.0,0.0,0.0,0.0,0.0,0.0,0.0,0.0,0.0,0.0,0.0,0.0,0.0,0.0,0.0,0.0,0.0,0.0,0.0,0.0,0.0,0.0,0.0,0.0,0.0,0.0,0.0,0.0,0.0,0.0,0.0,0.0,0.0,0.0,0.0,0.0,0.0,0.0,0.0,8.2247,8.1593,0.0,0.0,0.0,7.842,7.8681,0.0,0.0,0.0,0.0,0.0,0.0,0.0,0.0,0.0,0.0,0.0,0.0,0.0,0.0,0.0,0.0,0.0,0.0,0.0,0.0,0.0,0.0,0.0,0.0,0.0,0.0,0.0,0.0,0.0,0.0,0.0,0.0,0.0,0.0,0.0,0.0,0.0,0.0,0.0,0.0,0.0,0.0,0.0,0.0,0.0,0.0,0.0,0.0,0.0,0.0,0.0,0.0,0.0,0.0,0.0,0.0,0.0,8.1477,8.8925,9.4326,9.7439,10.0401,10.448,10.9517,10.3052,0.0,0.0,0.0,0.0,0.0,0.0,0.0,0.0,0.0,0.0,0.0,0.0,0.0,0.0,0.0,0.0,0.0,0.0,0.0,0.0,0.0,0.0,0.0,0.0,0.0,0.0,0.0,5.7665,0.0,0.0,0.0,0.0,0.0,0.0,0.0,0.0,0.0,0.0,0.0,0.0,0.0,0.0,8.1939,8.4209,8.4555,8.4709,0.0,0.0,8.2536,8.21,8.3253,8.2655,0.0,0.0,0.0,0.0,0.0,0.0,0.0,0.0,0.0,0.0,0.0,0.0,0.0,0.0,0.0,0.0,0.0,0.0,0.0,0.0,0.0,0.0,0.0,0.0,0.0,0.0,0.0,0.0,0.0,0.0,0.0,0.0,0.0,0.0,0.0,0.0,0.0,0.0,0.0,0.0,0.0,0.0,0.0,0.0,0.0,0.0,0.0,0.0,0.0,0.0,0.0,0.0,0.0,0.0,0.0,8.2355,8.9734,9.4898,9.7519,10.1594,10.5403,10.879,10.6161,10.1552,0.0,0.0,0.0,0.0,0.0,0.0,0.0,0.0,0.0,0.0,0.0,0.0,0.0,0.0,0.0,0.0,0.0,0.0,0.0,0.0,0.0,0.0,0.0,0.0,0.0,0.0,0.0,0.0,0.0,0.0,0.0,0.0,0.0,0.0,0.0,0.0,0.0,0.0,0.0,0.0,0.0,8.2554,8.6594,8.7132,8.7709,0.0,0.0,8.7241,8.7963,8.8786,8.741,8.1683,0.0,0.0,0.0,0.0,0.0,0.0,0.0,0.0,0.0,0.0,0.0,0.0,0.0,0.0,0.0,0.0,0.0,0.0,0.0,0.0,0.0,0.0,0.0,0.0,0.0,0.0,0.0,0.0,0.0,0.0,0.0,0.0,0.0,0.0,0.0,0.0,0.0,0.0,0.0,0.0,0.0,0.0,0.0,0.0,0.0,0.0,0.0,0.0,0.0,0.0,0.0,0.0,0.0,8.0285,8.2401,9.089,9.6284,9.8326,10.1938,10.6287,11.1137,10.7274,10.2892,0.0,0.0,0.0,0.0,0.0,0.0,0.0,0.0,0.0,0.0,0.0,0.0,0.0,0.0,0.0,0.0,0.0,0.0,0.0,0.0,0.0,0.0,0.0,0.0,0.0,0.0,0.0,0.0,6.7013,6.759,6.7128,0.0,0.0,0.0,0.0,0.0,0.0,0.0,0.0,0.0,0.0,8.417,8.8363,8.9863,0.0,0.0,9.127,9.0108,8.8892,8.9398,8.7902,8.2029,7.8254,0.0,0.0,0.0,0.0,0.0,0.0,0.0,0.0,0.0,0.0,0.0,0.0,0.0,0.0,0.0,0.0,0.0,0.0,0.0,0.0,0.0,0.0,0.0,0.0,0.0,0.0,0.0,0.0,0.0,0.0,0.0,0.0,0.0,0.0,0.0,0.0,0.0,0.0,0.0,0.0,0.0,0.0,0.0,0.0,0.0,0.0,0.0,0.0,0.0,0.0,0.0,0.0,8.0869,8.3061,9.178,9.74,9.9633,10.2668,10.7091,11.2791,10.9431,10.5776,0.0,0.0,0.0,0.0,0.0,0.0,0.0,0.0,0.0,0.0,0.0,0.0,0.0,0.0,0.0,0.0,0.0,0.0,0.0,0.0,0.0,0.0,0.0,0.0,0.0,0.0,0.0,0.0,6.9244,6.9283,6.7321,0.0,0.0,0.0,0.0,0.0,0.0,0.0,0.0,0.0,0.0,8.567,8.9363,9.1402,9.2595,9.2903,9.2242,9.0933,8.864,8.8786,8.755,8.299,0.0,0.0,0.0,0.0,0.0,0.0,0.0,0.0,0.0,0.0,0.0,0.0,0.0,0.0,0.0,0.0,0.0,0.0,0.0,0.0,0.0,0.0,0.0,0.0,0.0,0.0,0.0,0.0,0.0,0.0,0.0,0.0,0.0,0.0,0.0,0.0,0.0,0.0,0.0,0.0,0.0,0.0,0.0,0.0,0.0,0.0,0.0,0.0,0.0,0.0,0.0,0.0,0.0,0.0,8.4868,9.2434,9.813,10.1635,10.3936,10.8124,11.406,11.317,11.0897,10.7367,0.0,0.0,0.0,0.0,0.0,0.0,0.0,0.0,0.0,0.0,0.0,0.0,0.0,0.0,0.0,0.0,0.0,0.0,0.0,0.0,0.0,0.0,0.0,0.0,0.0,0.0,6.7167,6.936,6.986,0.0,0.0,0.0,0.0,0.0,0.0,0.0,0.0,0.0,0.0,8.2298,8.694,8.9517,9.1364,9.221,9.1556,9.0601,8.9415,8.7808,8.7517,8.6878,0.0,0.0,0.0,0.0,0.0,0.0,0.0,0.0,0.0,0.0,0.0,0.0,0.0,0.0,0.0,0.0,0.0,0.0,0.0,0.0,0.0,0.0,0.0,0.0,0.0,0.0,0.0,0.0,6.7832,0.0,0.0,0.0,0.0,0.0,0.0,0.0,0.0,0.0,0.0,0.0,7.6361,7.638,0.0,0.0,0.0,0.0,0.0,0.0,0.0,0.0,0.0,0.0,0.0,0.0,8.2093,8.5176,9.4282,10.0518,10.3406,10.6591,11.0743,11.5951,11.4632,11.0589,10.3635,0.0,0.0,0.0,0.0,0.0,0.0,0.0,0.0,0.0,0.0,0.0,0.0,0.0,0.0,0.0,0.0,0.0,0.0,0.0,0.0,0.0,0.0,0.0,0.0,0.0,6.8141,0.0,0.0,0.0,0.0,0.0,0.0,0.0,0.0,0.0,0.0,0.0,7.3543,7.8346,8.1638,8.5132,8.9325,9.0402,9.1864,0.0,0.0,0.0,0.0,0.0,0.0,0.0,0.0,0.0,0.0,0.0,0.0,0.0,0.0,7.3245,7.1283,7.1371,7.1958,7.2514,0.0,0.0,0.0,0.0,0.0,0.0,0.0,0.0,0.0,0.0,0.0,0.0,0.0,0.0,0.0,0.0,7.1683,0.0,0.0,0.0,0.0,0.0,0.0,0.0,0.0,7.7746,7.94,8.0708,8.07,8.0431,0.0,7.9669,7.7891,0.0,0.0,0.0,0.0,0.0,0.0,0.0,0.0,8.3163,8.6632,9.5707,10.2108,10.5412,10.8334,11.2329,11.7496,11.6439,11.2209,10.4636,9.8134,9.1325,0.0,0.0,0.0,0.0,0.0,0.0,0.0,0.0,0.0,0.0,0.0,0.0,0.0,0.0,0.0,0.0,0.0,0.0,0.0,0.0,0.0,0.0,0.0,6.9937,0.0,0.0,0.0,0.0,0.0,0.0,0.0,0.0,0.0,7.0217,7.2409,7.5639,8.0061,8.3401,8.6209,8.8286,0.0,0.0,0.0,0.0,0.0,0.0,0.0,8.7616,8.569,8.4933,8.4138,8.2688,8.083,7.9515,7.9477,0.0,0.0,7.5053,7.4832,7.5408,7.5938,7.6015,7.6092,7.6399,7.6476,7.6399,0.0,0.0,0.0,0.0,0.0,0.0,0.0,0.0,7.5585,7.5449,0.0,7.5159,0.0,0.0,0.0,0.0,0.0,0.0,0.0,0.0,8.4093,8.5747,8.5016,8.501,8.5055,8.4983,8.4181,8.3303,8.2304,7.8446,0.0,0.0,0.0,0.0,0.0,0.0,8.4728,8.9349,9.6814,10.29,10.7539,10.9218,11.289,11.8748,11.853,11.5676,11.0367,10.4443,9.825,9.1556,8.3317,0.0,0.0,0.0,0.0,0.0,0.0,0.0,0.0,0.0,0.0,0.0,0.0,0.0,0.0,0.0,0.0,0.0,0.0,0.0,0.0,6.9547,0.0,0.0,0.0,0.0,0.0,0.0,0.0,0.0,0.0,0.0,7.3952,7.5895,7.8592,8.1916,0.0,0.0,0.0,0.0,9.3172,8.8709,8.7725,8.7459,8.6858,8.8637,9.0334,9.11,0.0,0.0,8.794,8.5517,8.3901,8.3824,8.4516,8.3785,7.9785,7.8938,7.8823,7.89,7.9015,7.9131,7.99,8.0323,8.0477,8.332,0.0,0.0,0.0,0.0,7.7448,7.8708,8.0489,8.1504,8.1252,8.0014,7.9724,0.0,0.0,0.0,0.0,0.0,0.0,8.0888,8.3516,8.594,8.7209,8.7632,8.8205,8.8474,8.8444,8.8214,8.7983,8.7671,8.6544,8.284,7.6833,0.0,0.0,0.0,0.0,8.6847,9.2141,9.9009,10.451,10.8476,11.1562,11.4787,11.8171,11.8276,11.6138,11.1555,10.6636,10.1173,9.5057,8.8483,0.0,0.0,0.0,0.0,0.0,0.0,0.0,0.0,0.0,0.0,0.0,0.0,0.0,0.0,0.0,0.0,0.0,0.0,0.0,7.1507,7.338,7.3514,0.0,0.0,0.0,0.0,0.0,0.0,0.0,0.0,0.0,8.053,7.9754,8.0344,0.0,0.0,8.7248,8.8632,9.0825,9.3056,9.5211,0.0,0.0,0.0,9.4635,9.3409,9.3064,9.2985,9.2559,9.1248,9.0441,8.9748,8.9133,8.921,8.894,8.7786,8.5555,8.4247,8.467,8.4824,8.5132,8.594,8.617,8.6363,9.0742,8.6875,8.386,8.2483,8.2414,8.2796,8.3915,8.5497,8.6481,8.6029,8.4553,8.4078,8.2131,7.9069,7.8122,0.0,0.0,0.0,8.4617,8.7979,8.894,8.9863,9.0671,9.1168,9.1591,9.1902,9.1559,9.1405,9.1399,9.0398,8.7627,8.3163,0.0,0.0,8.3045,8.6258,9.0182,9.4923,10.0948,10.6018,11.0039,11.4648,11.7304,11.789,11.8602,11.6905,11.2555,10.9021,10.4559,9.9019,9.3445,8.7606,0.0,0.0,0.0,0.0,0.0,0.0,0.0,0.0,0.0,0.0,0.0,6.6974,0.0,0.0,0.0,0.0,7.3239,7.4476,7.5879,7.5985,0.0,0.0,0.0,0.0,0.0,0.0,0.0,7.7631,8.029,8.2717,8.4357,8.3868,8.4349,8.7022,8.8556,8.9902,9.121,0.0,9.5942,9.8019,9.6515,9.6204,9.9095,9.875,9.7827,9.7327,9.6674,9.5789,9.4711,9.398,9.3326,9.2826,9.2441,9.221,9.2172,9.0479,8.8979,8.894,8.8902,8.921,9.0017,9.021,9.0441,9.7461,9.6328,9.0703,8.8506,8.8776,8.8794,8.9069,8.9633,9.0485,8.9835,8.8182,8.8017,8.6544,8.408,8.3279,0.0,0.0,8.742,8.9527,9.2595,9.2672,9.3056,9.371,9.3823,9.4323,9.5057,9.4366,9.3945,9.3787,9.1559,9.037,9.0255,8.8325,8.6842,8.6235,9.0197,9.4139,9.7781,10.2687,10.7469,11.2148,11.789,12.0,11.8086,11.93,11.7948,11.3642,11.1329,10.7905,10.2981,9.8019,9.3024,8.799,0.0,0.0,0.0,0.0,0.0,0.0,0.0,0.0,0.0,0.0,0.0,0.0,0.0,0.0,0.0,7.8015,0.0,8.0222,7.8177,0.0,0.0,0.0,7.6553,7.9746,8.0323,8.1085,8.2547,0.0,0.0,0.0,0.0,8.98,9.1562,9.4328,9.5672,9.4287,9.825,10.0635,9.8596,9.8288,9.8634,9.9904,10.1325,10.2401,10.2172,10.1289,9.9442,9.7904,9.6403,9.5403,9.5288,9.4634,9.4172,9.4134,9.4095,9.3633,9.2172,9.1672,9.1748,9.2441,9.271,9.3056,9.957,9.9219,9.7109,9.4715,9.2276,9.2151,9.2025,9.2061,9.2905,9.2559,9.1367,9.0671,8.9325,8.7521,8.7906,8.879,8.9988,9.0911,9.2061,9.3403,9.4095,9.4172,9.3787,9.5057,9.5788,9.6019,9.6405,9.6251,9.5672,9.5095,9.4134,9.2903,9.3281,9.2799,9.152,9.3158,9.6213,10.0578,10.4247,10.897,11.4726,11.8828,12.0351,11.9218,11.9729,11.8569,11.5533,11.206,10.8406,10.4636,10.0288,9.5867,9.1487,8.4237,0.0,0.0,0.0,0.0,0.0,0.0,0.0,0.0,0.0,6.9898,6.9706,0.0,7.5464,0.0,8.2386,8.5104,8.4643,8.4061,0.0,0.0,8.0862,8.1093,8.2554,8.4978,8.6473,8.6203,8.8089,8.9787,9.0867,9.1871,9.3601,9.652,9.6019,9.5826,9.7365,10.0789,10.3097,10.2635,10.3867,10.5099,10.452,10.448,10.4326,10.3712,10.2174,10.0673,9.9673,9.8634,9.7904,9.7865,9.775,9.7596,9.748,9.7596,9.7442,9.6942,9.548,9.4134,9.4364,9.4903,9.5634,10.2031,10.1875,10.0273,9.832,9.6285,9.5441,9.4982,9.4905,9.5249,9.4788,9.3751,9.2751,9.16,9.0488,9.1216,9.2061,9.2869,9.3407,9.4251,9.5403,9.5903,9.6057,9.6019,9.6979,9.7633,9.798,9.8058,9.8058,9.7904,9.6865,9.598,9.5403,9.598,9.6018,9.5596,9.6635,9.9026,10.2731,10.7169,11.15,11.5664,11.914,11.9765,11.7383,11.7643,11.5933,11.1846,10.8646,10.5371,10.1943,9.8788,9.5329,9.149,8.5549,8.0707,0.0,0.0,0.0,0.0,0.0,0.0,0.0,0.0,0.0,0.0,0.0,7.9146,0.0,8.5395,0.0,8.7305,8.6911,8.6555,8.6286,8.5901,8.6324,8.7902,8.9748,9.0744,9.0283,9.1784,9.321,9.406,9.4906,9.6367,9.9019,9.8827,9.9019,10.0904,10.3674,10.5597,10.5674,10.679,10.7562,10.7059,10.6597,10.5982,10.5059,10.3597,10.2174,10.1366,10.0173,9.9365,9.9365,9.9058,9.8788,9.8788,9.8788,9.8788,9.8634,9.8019,9.7211,9.6749,9.7057,9.7673,10.4062,10.3633,10.1289,10.0117,9.9687,9.8085,9.7413,9.735,9.7119,9.6435,9.5481,9.4483,9.3676,9.3024,9.3714,9.4445,9.5174,9.5174,9.5943,9.7326,9.7365,9.7827,9.8634,9.8749,9.9288,10.0212,9.9481,9.948,10.0173,9.7789,9.7019,9.7672,9.7325,9.7704,9.884,10.0024,10.2031,10.4844,11.0273,11.3867,11.5547,11.8633,11.8398,11.4648,11.4626,11.2142,10.6691,10.4194,10.1388,9.8205,9.6059,9.3716,9.08,8.6544,8.2813,0.0,7.7295,0.0,0.0,0.0,0.0,0.0,0.0,0.0,0.0,8.1054,8.274,8.519,8.7795,8.9417,8.965,8.9066,8.9594,9.1672,9.1133,9.1441,9.3557,9.398,9.4018,9.4018,9.4901,9.5786,9.648,9.7326,9.8442,9.9904,10.1481,10.2635,10.3828,10.602,10.7675,10.7752,10.779,10.7905,10.7825,10.7752,10.729,10.6405,10.502,10.3789,10.2866,10.1481,10.0442,10.0366,9.9788,9.9211,9.9096,9.9173,9.9173,9.925,9.9788,9.9981,9.9288,9.925,9.9596,10.3398,10.1992,10.0781,9.9844,9.9101,9.8057,9.7448,9.7043,9.7005,9.6743,9.6326,9.598,9.5712,9.5597,9.5712,9.5942,9.6057,9.6057,9.6211,9.6519,9.6519,9.6942,9.775,9.8481,9.9596,10.1019,10.0904,10.0903,10.1058,9.9212,9.8519,9.8863,9.8363,9.9281,0.0,0.0,0.0,0.0,11.0859,11.2968,11.4687,11.6015,11.6015,11.4492,11.2923,0.0,10.8332,10.4828,10.1963,9.9853,9.6709,0.0,0.0,0.0,0.0,0.0,0.0,0.0,0.0,0.0,0.0,0.0,8.2439,8.2401,8.1093,8.3471,8.5934,8.7868,9.0872,9.3332,9.4753,9.5328,9.5749,9.6172,9.4941,9.4249,9.4711,9.5365,9.5788,9.5822,9.7131,9.8132,9.8287,9.9058,9.9711,10.0173,10.2174,10.3597,10.3866,10.6597,10.8329,10.7905,10.8329,10.8675,10.8667,10.8171,10.7559,10.6521,10.5597,10.4597,10.3789,10.2866,10.2135,10.2058,10.1404,10.0789,10.0827,10.0827,10.075,10.0827,10.152,10.1866,10.1019,10.1404,10.2135,10.3828,0.0,10.0859,9.9804,0.0,9.8515,9.8188,9.7992,9.7992,9.7791,9.7402,9.721,9.6788,9.6288,9.6288,9.6288,9.6288,9.6288,9.6519,9.6903,9.7326,9.798,9.8827,10.0058,10.1096,10.1943,10.1942,10.1942,10.1866,10.025,9.9481,9.9633,10.0001,10.0867,10.2317,10.4363,10.6719,10.9297,11.1445,11.3398,11.5117,11.7187,11.7226,11.5195,0.0,0.0,0.0,0.0,0.0,0.0,0.0,0.0,0.0,0.0,0.0,8.8748,8.7068,8.5923,8.5539,8.6642,8.7517,8.794,8.9133,8.8628,8.569,8.854,9.1048,9.2367,9.4368,9.629,9.7943,9.8135,9.8327,9.8634,9.7634,9.6865,9.6903,9.725,9.7519,9.7595,9.8249,9.8942,9.9365,9.9827,10.025,10.0711,10.252,10.3905,10.4174,10.6751,10.879,10.8944,10.9637,11.0021,10.9633,10.9248,10.8636,10.7752,10.6597,10.552,10.4636,10.3789,10.3251,10.3174,10.252,10.1943,10.1904,10.1597,10.1443,10.1866,10.2289,10.2828,10.2981,10.3212,10.3482,10.414,10.2344,10.0898,9.9726,9.8789,9.8945,9.9179,9.9453,0.0,0.0,0.0,9.8086,9.7402,9.6557,9.6403,9.6288,9.6288,9.6288,9.6634,9.7325,9.8173,9.9019,9.9904,10.1443,10.2444,10.2828,10.2555,10.2555,10.2828,10.1096,10.0442,10.0826,10.1736,10.2479,10.3333,10.6537,10.8711,10.9804,11.2031,11.3945,11.5586,11.8476,11.8554,11.5547,11.5312,11.3242,10.8994,10.6261,10.3963,10.2017,9.9938,9.8009,9.6193,9.4364,9.2564,9.0875,9.0568,9.0722,9.1183,9.1908,9.2903,9.4287,9.5018,9.4093,9.1033,9.3658,9.5745,9.648,9.7404,9.8558,9.9942,9.9635,9.9519,10.0212,9.9519,9.8981,9.9019,9.9019,9.8981,9.9019,9.9173,9.9519,10.0173,10.0327,10.0519,10.1366,10.2789,10.4251,10.4982,10.7213,10.929,11.0171,11.0906,11.1175,11.0632,11.0214,10.9906,10.9136,10.7713,10.6405,10.5674,10.4751,10.4174,10.4135,10.3405,10.2904,10.2789,10.2327,10.2058,10.2674,10.2981,10.3443,10.4636,10.4713,10.4597,10.2929,10.0625,10.039,9.9375,9.7929,9.8672,9.9844,10.1133,10.0195,9.9726,9.9602,9.8398,9.7825,9.7595,9.6711,9.6288,9.6288,9.6288,9.6365,0.0,9.7288,9.8134,9.9019,10.0019,10.1597,10.352,10.244,10.2594,10.3597,10.175,10.1558,10.2983,10.2749,10.4026,10.7015,10.8475,10.9922,11.1523,11.2617,11.3672,11.4687,11.5859,11.5898,11.4726,11.3984,11.233,10.9866,10.726,10.5083,10.3748,10.0558,9.925,10.0249,9.8135,9.7289,9.8326,9.7788,9.7097,9.6443,9.652,9.6711,9.6942,9.7096,9.6288,9.4552,9.605,9.7171,9.7404,9.8788,9.9827,10.0134,10.0557,10.0904,10.1019,10.0404,9.9904,9.9904,9.9904,9.9904,9.9942,10.0519,10.0904,10.1019,10.1096,10.1096,10.152,10.2828,10.4866,10.7251,10.8559,10.956,11.0906,11.1406,11.1445,11.1214,11.0675,11.0214,11.006,10.8598,10.7444,10.7175,10.5905,10.502,10.4943,10.4251,10.3789,10.3674,10.3635,10.3482,10.3674,10.4135,10.4751,10.5213,10.5636,10.6097,10.2695,10.039,10.0312,9.9297,9.7812,9.914,10.0429,10.1562,10.1562,10.1172,10.0586,9.9956,9.9008,9.7901,9.7402,9.6826,9.6288,9.6288,9.6557,9.7019,9.7827,9.8673,9.9558,10.0827,10.2405,10.3982,10.2978,10.3132,10.4253,10.2928,10.2672,10.3627,10.4667,10.6447,10.8633,11.0039,11.1093,11.1914,11.3203,11.4297,11.5156,11.7343,11.8359,11.8008,11.7968,11.7218,11.5496,11.333,11.1305,10.953,10.7021,10.5441,10.4751,10.2788,10.1365,10.0789,9.9981,9.9135,9.825,9.8173,9.8404,9.8865,9.9327,9.948,9.9133,9.8979,9.9095,9.9519,10.0327,10.0981,10.1366,10.1366,10.1289,10.1289,10.0981,10.075,10.075,10.075,10.075,10.0789,10.1058,10.1289,10.1289,10.1289,10.1289,10.1443,10.2828,10.5174,10.8329,10.8906,10.9521,11.1098,11.1522,11.1522,11.1483,11.1214,11.0752,11.0291,10.9175,10.8252,10.779,10.6559,10.5944,10.5751,10.5136,10.4636,10.452,10.4174,10.4135,10.452,10.4789,10.5328,10.6213,10.7175,10.7559,10.2812,10.0586,10.0586,9.9804,9.8672,9.9804,10.0898,10.1914,10.2383,10.2226,10.1601,10.1328,10.0108,9.8331,9.804,9.7325,9.6403,9.6288,9.6749,9.752,9.8404,9.9288,10.025,10.1751,10.2982,10.3906,10.3247,10.3555,10.4561,10.396,10.3789,10.4375,10.674,10.8512,10.9609,11.1133,11.1992,11.2265,11.3711,11.4883,11.5781,11.8906,12.0703,12.0976,12.1914,12.1716,12.0055,11.8524,11.6567,11.4137,11.2406,11.0521,10.8364,10.6441,10.448,10.2597,10.1288,10.0288,9.948,9.9519,9.9942,10.0596,10.1404,10.2174,10.2675,10.1712,10.1212,10.175,10.1904,10.2212,10.2635,10.2327,10.1866,10.1866,10.1712,10.1597,10.1597,10.1443,10.1289,10.1289,10.1289,10.1289,10.1289,10.1289,10.152,10.2097,10.3212,10.5405,10.8136,10.8906,10.9598,11.0944,11.1522,11.1522,11.1522,11.1483,11.1214,11.0521,10.956,10.8752,10.7982,10.7175,10.6482,10.629,10.5867,10.5443,10.5328,10.4943,10.4943,10.5597,10.5867,10.6251,10.7598,10.8521,10.8867,10.3125,10.1601,10.1445,10.1406,10.1054,10.0547,10.125,10.2539,10.2031,10.2148,10.2578,10.164,10.0586,9.9407,9.8387,9.7364,9.6365,9.6288,9.6788,9.7596,9.8404,9.9365,10.0519,10.1366,10.2367,10.3329,10.2904,10.3522,10.4945,10.448,10.4922,10.6445,10.8275,10.9609,11.0508,11.1445,11.2304,11.3086,11.4023,11.4883,11.5781,11.8359,12.0078,12.0898,12.25,12.2302,12.0115,11.9066,11.7144,11.4214,11.2445,11.106,10.9863,10.7594,10.6174,10.579,10.3635,10.1981,10.125,10.1789,10.2251,10.2404,10.3135,10.3674,10.3789,10.3635,10.356,10.3637,10.3634,10.3595,10.3789,10.3635,10.3482,10.3366,10.2866,10.2481,10.2327,10.1789,10.1289,10.1289,10.1289,10.1327,10.1404,10.1481,10.202,10.3366,10.4212,10.579,10.829,10.8906,10.9521,11.0983,11.1522,11.1522,11.1522,11.1522,11.1445,11.1214,10.9983,10.906,10.8482,10.7482,10.6405,10.6405,10.6328,10.6174,10.629,10.6213,10.6444,10.7059,10.7367,10.7713,10.8636,10.9444,10.9675,10.2734,10.1601,10.1601,10.1289,10.0859,10.0976,10.1445,10.2109,10.2304,10.2578,10.2812,10.2383,10.1328,9.9765,9.9281,9.821,9.6788,9.7248,9.7941,9.8788,9.9596,10.0519,10.1443,10.175,10.2559,10.3559,10.3391,10.3984,10.5165,10.5547,10.6523,10.8203,10.9492,11.0508,11.1367,11.2226,11.3086,11.3945,11.3828,11.4609,11.6406,11.8008,11.9492,12.0859,12.2109,12.1987,12.0404,11.9726,11.7837,11.4561,11.3407,11.2137,11.0286,10.871,10.7441,10.6444,10.452,10.3212,10.2866,10.3174,10.3597,10.402,10.4405,10.4789,10.5328,10.5366,10.5366,10.5251,10.448,10.4054,10.448,10.4212,10.3905,10.3828,10.3558,10.3174,10.2635,10.2289,10.1904,10.1404,10.1289,10.1558,10.202,10.252,10.3328,10.4366,10.4943,10.6136,10.8406,10.8906,10.9637,11.106,11.1522,11.1522,11.1522,11.1522,11.1522,11.1329,11.0521,10.9637,10.8867,10.8059,10.7059,10.6559,10.6521,10.6751,10.7098,10.7175,10.7444,10.8175,10.8944,10.929,10.9598,11.0367,11.0483,10.2969,10.2031,10.1953,10.1562,10.1054,10.1445,10.1719,10.1953,10.2383,10.2695,10.289,10.289,10.1953,10.0508,10.032,9.9305,9.7948,9.8375,9.9111,9.9925,10.0535,10.1315,10.2136,10.2251,10.2816,10.3755,10.3895,10.457,10.5781,10.664,10.7812,10.9258,11.0156,11.1015,11.1875,11.2773,11.3633,11.4375,11.3867,11.4687,11.6758,11.7617,11.8906,12.0742,12.1758,12.164,12.0468,12.0133,11.8254,11.4599,11.4137,11.2983,11.0709,10.9513,10.8129,10.6479,10.5059,10.4251,10.4212,10.4212,10.4482,10.502,10.529,10.5713,10.6251,10.6405,10.6405,10.629,10.5287,10.4903,10.5249,10.4903,10.4636,10.4597,10.4405,10.3943,10.3405,10.2981,10.2366,10.1789,10.1712,10.1981,10.2826,10.3634,10.4443,10.4905,10.5328,10.6213,10.829,10.8944,10.9521,11.1175,11.1522,11.1522,11.1522,11.1522,11.1522,11.1329,11.0714,10.9944,10.929,10.8598,10.8021,10.7598,10.7213,10.7213,10.7831,10.8062,10.8329,10.9098,10.9829,11.0406,11.056,11.1021,11.0637,10.4414,10.289,10.2851,10.2773,10.2734,10.1953,10.2109,10.2812,10.2109,10.2187,10.2969,10.3008,10.2422,10.1562,10.1367,10.0547,9.957,9.9531,10.0,10.0703,10.0838,10.144,10.2482,10.2482,10.3057,10.4101,10.4336,10.5156,10.664,10.7539,10.8398,10.9336,11.0234,11.1054,11.1992,11.2851,11.3633,11.4492,11.4492,11.5273,11.6797,11.707,11.832,12.0703,12.1679,12.1523,12.0547,12.0143,11.8267,11.4566,11.4176,11.3214,11.1522,10.9863,10.8129,10.6591,10.5595,10.5057,10.5097,10.5136,10.5136,10.5213,10.5867,10.6328,10.6367,10.6405,10.6405,10.6405,10.6213,10.6174,10.6213,10.6059,10.6059,10.6059,10.5482,10.5059,10.4905,10.3597,10.2712,10.2597,10.2636,10.2981,10.3747,10.4518,10.4982,10.5328,10.5828,10.6944,10.8367,10.8906,10.9675,11.0944,11.1522,11.1522,11.1522,11.1522,11.1522,11.1406,11.0944,11.0214,10.9906,10.9483,10.906,10.8713,10.8444,10.8444,10.8716,10.9024,10.9367,10.9944,11.0521,11.0983,11.0791,11.0483,11.0021,10.3476,10.289,10.289,10.289,10.2851,10.2539,10.2929,10.3672,10.3398,10.375,10.4453,10.4531,10.4062,10.3242,10.3164,10.1992,10.0195,10.0625,10.1054,10.1367,10.189,10.2373,10.2751,10.3269,10.3758,10.4297,10.5273,10.6406,10.75,10.8437,10.9297,11.0117,11.1015,11.1875,11.2734,11.3593,11.4453,11.5234,11.5273,11.6093,11.7578,11.7304,11.8242,12.0703,12.0664,12.0586,12.0742,11.9743,11.8025,11.5643,11.4599,11.3483,11.2214,11.0098,10.8444,10.7402,10.6937,10.6745,10.679,10.679,10.6521,10.602,10.6213,10.6405,10.6405,10.6405,10.6405,10.6405,10.6405,10.6405,10.6405,10.6405,10.6405,10.6328,10.6136,10.5674,10.5174,10.452,10.3982,10.3675,10.3828,10.4326,10.4672,10.5403,10.5905,10.5944,10.6213,10.7175,10.8406,10.8906,10.956,11.0983,11.1522,11.1522,11.1522,11.1522,11.1522,11.1483,11.1175,11.0714,11.0367,11.0098,10.9713,10.9252,10.9175,10.9367,10.9563,11.014,11.0444,11.056,11.1137,11.0791,11.0675,10.9944,10.9136,10.375,10.3711,10.3711,10.3711,10.375,10.3711,10.4062,10.4609,10.4609,10.4961,10.5429,10.5508,10.5156,10.4648,10.4336,10.3515,10.2031,10.2031,10.1992,10.2109,10.2929,10.332,10.3476,10.4219,10.4765,10.5195,10.6406,10.7578,10.8398,10.8984,10.9883,11.1015,11.164,11.2343,11.3203,11.4062,11.4922,11.5625,11.5976,11.6875,11.8047,11.7734,11.8359,12.0,11.9648,11.9726,12.0781,11.947,11.7948,11.6316,11.4791,11.3214,11.156,11.014,10.8947,10.8213,10.7821,10.7821,10.7982,10.7598,10.7021,10.6482,10.6405,10.6405,10.6405,10.6405,10.6405,10.6405,10.6405,10.6405,10.6405,10.6405,10.6405,10.6405,10.6405,10.6174,10.5597,10.5559,10.5253,10.4906,10.5136,10.5441,10.5556,10.6059,10.629,10.6405,10.6597,10.7444,10.8559,10.9213,10.979,11.1175,11.1752,11.1945,11.2137,11.2329,11.2252,11.2175,11.1714,11.1252,11.1098,11.0829,11.0444,10.9944,10.9829,11.0098,11.0483,11.106,11.1175,11.1098,11.0752,11.0367,10.9829,10.9098,10.8406,10.5429,10.5351,10.5469,10.5312,10.5273,10.5351,10.5469,10.5586,10.5664,10.5898,10.6172,10.5781,10.5859,10.5429,10.4844,10.4648,10.4726,10.3633,10.3047,10.3125,10.3828,10.4219,10.4258,10.5078,10.5898,10.6601,10.7578,10.8437,10.9179,10.9492,11.0351,11.1601,11.1953,11.25,11.3242,11.4179,11.4961,11.5781,11.6562,11.7422,11.8164,11.8203,11.8633,11.9492,11.8867,11.914,12.0703,11.9392,11.787,11.6351,11.4791,11.2401,10.994,10.9717,10.9797,10.8983,10.821,10.821,10.8636,10.7598,10.6982,10.6674,10.6521,10.6559,10.6559,10.6444,10.6405,10.6405,10.6405,10.6405,10.6405,10.6405,10.6405,10.6405,10.6482,10.6521,10.6444,10.6444,10.6367,10.633,10.6407,10.6405,10.6367,10.6367,10.6405,10.6521,10.7059,10.7829,10.8752,10.9483,11.0444,11.1406,11.206,11.2406,11.2868,11.333,11.3176,11.2983,11.2368,11.1906,11.2137,11.2022,11.156,11.1098,11.0752,11.0944,11.0483,11.0944,11.0598,11.0444,11.0137,10.9675,10.9021,10.8329,10.7905,10.5508,10.5508,10.5508,10.5508,10.5586,10.6093,10.664,10.7265,10.7812,10.8437,10.8828,10.8398,10.7773,10.7109,10.6328,10.5781,10.5469,10.4883,10.4687,10.4765,10.4961,10.5078,10.5273,10.5937,10.6797,10.7617,10.8476,10.9023,10.9492,11.0508,11.1445,11.1914,11.2539,11.3242,11.4062,11.4961,11.5781,11.6601,11.7461,11.8047,11.8281,11.8281,11.8711,11.9414,11.875,11.8867,11.9843,11.8598,11.7598,11.6996,11.5061,11.2753,11.044,11.0025,11.0025,10.9829,10.9556,10.9479,10.9675,10.929,10.8636,10.8175,10.7636,10.7328,10.7175,10.6751,10.6444,10.6405,10.6405,10.6405,10.6405,10.6405,10.6405,10.6405,10.6905,10.729,10.7444,10.779,10.7829,10.7405,10.729,10.7059,10.6559,10.6405,10.6405,10.6482,10.7175,10.8021,10.879,10.9675,11.0791,11.2022,11.2483,11.3022,11.3599,11.4099,11.4214,11.3945,11.3407,11.2945,11.3137,11.2791,11.2368,11.1945,11.1675,11.1291,11.0868,11.0444,11.0098,10.9521,10.8983,10.8521,10.8098,10.7675,10.7251,10.6445,10.6445,10.6406,10.664,10.6953,10.7461,10.8164,10.8945,10.9531,11.0078,11.0351,10.9648,10.9023,10.832,10.7226,10.664,10.6406,10.6093,10.6133,10.6328,10.6054,10.5976,10.6054,10.6797,10.7656,10.8437,10.9023,10.9648,11.0312,11.1328,11.2031,11.2461,11.2968,11.3633,11.4492,11.5351,11.6172,11.6992,11.7851,11.8281,11.8281,11.8281,11.8554,11.8945,11.8593,11.8633,11.9007,11.7954,11.7404,11.7013,11.5215,11.2829,11.0517,11.0487,11.0564,11.0248,11.0209,11.0171,11.0175,10.979,10.9521,10.8906,10.8444,10.7982,10.7716,10.7098,10.6828,10.6444,10.6405,10.6405,10.6405,10.6405,10.6521,10.6867,10.7328,10.7944,10.8482,10.906,10.8944,10.8406,10.8136,10.7559,10.6751,10.6405,10.6405,10.6521,10.7405,10.8213,10.9021,10.9944,11.1291,11.2406,11.3022,11.3637,11.4368,11.483,11.5215,11.4945,11.4522,11.4253,11.4214,11.3214,11.2522,11.1791,11.1368,11.0868,11.0406,10.9909,10.9448,10.8678,10.7982,10.7713,10.7444,10.7021,10.6636,10.8008,10.8086,10.8047,10.8476,10.9218,10.9375,10.9883,11.0547,11.0781,11.0859,11.0703,11.0078,10.9492,10.9023,10.7812,10.7344,10.7734,10.7148,10.7148,10.7461,10.7265,10.6992,10.7109,10.7734,10.8515,10.9258,10.9531,11.0351,11.1562,11.1953,11.2383,11.3047,11.3281,11.375,11.4687,11.539,11.6289,11.7187,11.7929,11.8281,11.8281,11.8281,11.832,11.8398,11.832,11.8325,11.8286,11.7761,11.7283,11.6929,11.4984,11.2906,11.0978,11.1098,11.106,11.044,11.0286,11.0325,11.0137,10.9867,10.9367,10.9367,10.9098,10.8675,10.8178,10.7908,10.7523,10.6905,10.679,10.6713,10.6713,10.6751,10.7098,10.7713,10.8098,10.8752,10.9983,11.0294,10.9867,10.921,10.8867,10.8293,10.679,10.6521,10.6405,10.6674,10.7752,10.8636,10.9213,11.0214,11.1714,11.2714,11.356,11.4407,11.5176,11.5522,11.583,11.5676,11.5407,11.5253,11.4907,11.383,11.256,11.1829,11.0983,11.0483,10.979,10.9178,10.8524,10.779,10.7328,10.7098,10.6867,10.6521,10.6405,10.8359,10.8945,10.8945,10.9453,11.0312,11.0898,11.1328,11.164,11.2226,11.2383,11.2304,11.1601,11.0742,11.0156,10.9062,10.8437,10.8008,10.7734,10.7734,10.8047,10.8515,10.8593,10.8633,10.8828,10.9414,11.0234,11.0781,11.1445,11.1914,11.25,11.2929,11.3242,11.3828,11.457,11.5429,11.6211,11.7109,11.7812,11.8125,11.8281,11.8281,11.8281,11.8281,11.8281,11.8281,11.8281,11.8242,11.7729,11.6517,11.4994,11.4407,11.3176,11.1406,11.1368,11.1368,11.1175,11.1137,11.1137,11.1098,11.0906,11.0791,11.0752,11.0175,10.979,10.956,10.8947,10.8524,10.8216,10.8255,10.8178,10.8175,10.8213,10.8636,10.9367,10.9444,10.9906,11.0791,11.1137,11.0829,11.0017,10.929,10.8409,10.7562,10.6751,10.6444,10.6713,10.7752,10.8983,10.9444,11.0868,11.2483,11.3483,11.4368,11.5215,11.5869,11.6215,11.6407,11.633,11.6176,11.6061,11.5484,11.4561,11.3137,11.1906,11.0714,11.0021,10.8944,10.8059,10.7405,10.6982,10.6828,10.6674,10.6597,10.6405,10.6405,10.9414,10.9843,10.9843,11.0351,11.1133,11.1679,11.2109,11.25,11.2968,11.3203,11.3008,11.2304,11.1406,11.0547,10.9687,10.8828,10.8086,10.8008,10.8203,10.8711,10.9453,10.9804,10.9843,10.9843,11.0312,11.1093,11.164,11.207,11.2461,11.2968,11.3164,11.3359,11.4062,11.4922,11.5742,11.6601,11.7422,11.8125,11.8281,11.8281,11.8281,11.8281,11.8281,11.8281,11.8281,11.8272,11.8048,11.7326,11.599,11.4445,11.3907,11.3214,11.1752,11.1522,11.1522,11.1522,11.1522,11.1522,11.1522,11.1522,11.1522,11.1445,11.0983,11.0598,11.0214,10.9675,10.9409,10.8909,10.8867,10.8906,10.894,10.9213,10.9675,11.006,11.0521,11.0944,11.1483,11.1483,11.1098,11.0286,10.9483,10.8598,10.7831,10.6944,10.6751,10.7098,10.8059,10.8906,10.9637,11.1522,11.3022,11.3868,11.4753,11.5522,11.6061,11.6369,11.6484,11.6484,11.6292,11.6292,11.5484,11.4638,11.3214,11.1675,11.0521,10.9406,10.8367,10.7482,10.6944,10.6597,10.6444,10.6405,10.6405,10.6405,10.6405,11.0664,11.0742,11.0742,11.125,11.1953,11.207,11.2461,11.3086,11.3164,11.3203,11.3047,11.2383,11.1562,11.0547,10.9883,10.8945,10.8047,10.8203,10.8867,10.9609,11.039,11.0781,11.1015,11.082,11.125,11.1953,11.2031,11.2461,11.2929,11.3164,11.3203,11.3476,11.414,11.5,11.5859,11.6718,11.7539,11.8125,11.8281,11.8281,11.8281,11.8281,11.8281,11.8281,11.8281,11.8125,11.7641,11.6843,11.5548,11.406,11.3945,11.306,11.1791,11.1637,11.1637,11.1637,11.1637,11.1522,11.1522,11.1522,11.1522,11.1483,11.1483,11.1214,11.0598,11.0367,11.0098,10.956,10.921,10.9402,10.9517,10.994,11.0329,11.056,11.1098,11.1445,11.1522,11.1522,11.1214,11.0402,10.9513,10.8594,10.7867,10.7136,10.6713,10.7328,10.829,10.906,11.0175,11.1868,11.306,11.3868,11.4753,11.572,11.6099,11.6484,11.6484,11.6446,11.6176,11.5869,11.483,11.3868,11.2676,11.1406,11.0252,10.9136,10.8059,10.729,10.6636,10.6444,10.6405,10.6405,10.6405,10.6405,10.6405,11.1015,11.164,11.1601,11.2109,11.2851,11.2929,11.3008,11.3164,11.3203,11.3203,11.3125,11.2968,11.2031,11.0625,11.0351,10.9492,10.8398,10.8828,10.9804,11.1289,11.1484,11.2031,11.2265,11.1953,11.2109,11.2695,11.289,11.3008,11.3164,11.3203,11.3203,11.3359,11.4609,11.5508,11.5859,11.7187,11.8086,11.8281,11.8281,11.8281,11.8281,11.8281,11.8281,11.8281,11.8281,11.8008,11.7449,11.6662,11.5514,11.4237,11.3368,11.2753,11.2329,11.1791,11.1791,11.2099,11.1791,11.1522,11.1522,11.1522,11.1522,11.1522,11.1522,11.1445,11.1329,11.1175,11.1137,11.0944,11.0944,11.0748,11.0748,11.106,11.1137,11.1175,11.1329,11.1522,11.1522,11.1522,11.1368,11.094,10.9863,10.8825,10.8562,10.7175,10.7059,10.7675,10.8406,10.9252,11.0675,11.2291,11.3176,11.3984,11.5138,11.6022,11.6215,11.6484,11.6484,11.633,11.6061,11.5484,11.4445,11.356,11.256,11.1329,10.9983,10.8906,10.7867,10.7059,10.6444,10.6405,10.6405,10.6405,10.6405,10.6405,10.6405,11.2109,11.25,11.2539,11.2773,11.3164,11.3203,11.3203,11.3203,11.3203,11.3203,11.3203,11.3203,11.2422,11.1289,11.1133,11.0468,10.9687,11.0117,11.0976,11.1875,11.2265,11.2734,11.3008,11.2812,11.2812,11.3164,11.3164,11.3203,11.3203,11.3203,11.3203,11.3359,11.4883,11.5586,11.5937,11.7383,11.8164,11.8281,11.8281,11.8281,11.8281,11.8281,11.8281,11.8281,11.8281,11.8083,11.7624,11.6257,11.5201,11.4116,11.2945,11.2368,11.2483,11.1978,11.194,11.2406,11.1983,11.156,11.1522,11.1522,11.1522,11.1522,11.1522,11.1522,11.1522,11.1522,11.1522,11.1522,11.1483,11.1522,11.1522,11.1522,11.1522,11.1522,11.1522,11.1522,11.1522,11.1522,11.1522,11.1214,10.9979,10.9213,10.8367,10.729,10.7444,10.8098,10.8444,10.9329,11.106,11.2522,11.3407,11.433,11.5599,11.633,11.6407,11.6484,11.6484,11.6253,11.5869,11.5176,11.4253,11.3483,11.2676,11.1252,10.9752,10.8829,10.7867,10.7059,10.6405,10.6405,10.6405,10.6405,10.6405,10.6405,10.6405,11.3203,11.3203,11.3203,11.3203,11.3203,11.3203,11.3203,11.3203,11.3203,11.3203,11.3203,11.3203,11.2656,11.1992,11.1836,11.1406,11.1133,11.1367,11.1875,11.2265,11.2812,11.3086,11.3164,11.3125,11.3086,11.3203,11.3203,11.3203,11.3203,11.3203,11.3203,11.3476,11.4883,11.5625,11.6093,11.7343,11.8281,11.8281,11.8281,11.8281,11.8281,11.8281,11.8281,11.8281,11.8281,11.8164,11.7511,11.6131,11.4802,11.4335,11.2522,11.2175,11.2445,11.2209,11.205,11.2834,11.2252,11.1752,11.156,11.1522,11.1522,11.1522,11.1522,11.1522,11.1522,11.1522,11.1522,11.1522,11.1522,11.1522,11.1522,11.1522,11.1522,11.1522,11.1522,11.1522,11.1522,11.1522,11.1522,11.1291,11.0056,10.9017,10.8367,10.7562,10.8021,10.8444,10.8752,10.9521,11.1252,11.2676,11.356,11.4407,11.5599,11.633,11.6446,11.6484,11.6484,11.6138,11.5753,11.4868,11.3984,11.3022,11.206,11.0829,10.9521,10.8675,10.7829,10.7021,10.6559,10.6482,10.6405,10.6405,10.6405,10.6405,10.6405,11.3203,11.3203,11.3203,11.3203,11.3203,11.3203,11.3203,11.3203,11.3203,11.3203,11.3203,11.3164,11.2734,11.2148,11.1914,11.1797,11.1758,11.1992,11.2304,11.2773,11.3125,11.3203,11.3203,11.3203,11.3203,11.3203,11.3203,11.3203,11.3203,11.3203,11.3242,11.3593,11.4922,11.5742,11.625,11.7304,11.8281,11.8281,11.8281,11.8281,11.8281,11.8281,11.8281,11.8281,11.8281,11.8125,11.7534,11.6011,11.4758,11.4297,11.2522,11.2483,11.3142,11.2863,11.2978,11.3291,11.2873,11.2099,11.1637,11.1522,11.1522,11.1522,11.1522,11.1522,11.1522,11.1522,11.1522,11.1522,11.1522,11.1522,11.1522,11.1522,11.1522,11.1522,11.1522,11.1522,11.1522,11.1522,11.1445,11.1214,10.9979,10.8748,10.8136,10.7716,10.779,10.8252,10.879,10.9713,11.1252,11.2676,11.3791,11.4638,11.5484,11.6061,11.6484,11.6484,11.6446,11.6061,11.5522,11.4599,11.3637,11.2483,11.1368,11.0175,10.9367,10.8636,10.7829,10.6982,10.6597,10.6405,10.6405,10.6405,10.6405,10.6405,10.6405,11.3203,11.3203,11.3203,11.3203,11.3203,11.3203,11.3203,11.3203,11.3203,11.3203,11.3203,11.3164,11.3008,11.2656,11.2578,11.2578,11.2539,11.2578,11.2812,11.3164,11.3203,11.3203,11.3203,11.3203,11.3203,11.3203,11.3203,11.3203,11.3203,11.3203,11.3437,11.4101,11.5195,11.5976,11.6562,11.7617,11.8203,11.8281,11.8281,11.8281,11.8281,11.8281,11.8281,11.8281,11.8242,11.8086,11.7378,11.5907,11.4699,11.3962,11.2445,11.2368,11.2906,11.3445,11.3555,11.3791,11.3176,11.2329,11.1675,11.1522,11.1522,11.1522,11.1522,11.1522,11.1522,11.1522,11.1522,11.1522,11.1522,11.1522,11.1522,11.1522,11.1522,11.1522,11.1522,11.1522,11.1522,11.1522,11.1291,11.0902,10.9748,10.871,10.7982,10.7716,10.7598,10.8021,10.8713,10.9906,11.1252,11.2676,11.3984,11.4753,11.5561,11.6099,11.6484,11.6484,11.633,11.5984,11.5291,11.433,11.3253,11.2137,11.0868,10.9598,10.8944,10.8444,10.779,10.6982,10.6674,10.6405,10.6405,10.6405,10.6405,10.6405,10.6405,11.3203,11.3203,11.3203,11.3203,11.3203,11.3203,11.3203,11.3203,11.3203,11.3203,11.3203,11.3203,11.3203,11.3164,11.3164,11.3164,11.3203,11.3164,11.3164,11.3164,11.3203,11.3242,11.3437,11.3476,11.3633,11.3984,11.3593,11.3398,11.3203,11.3203,11.3711,11.4414,11.5351,11.6211,11.6992,11.7812,11.8164,11.8281,11.8281,11.8281,11.8281,11.8281,11.8281,11.8281,11.8281,11.807,11.7478,11.5852,11.4728,11.3811,11.2676,11.1906,11.2637,11.3368,11.3824,11.3863,11.3291,11.256,11.1983,11.1522,11.1522,11.1522,11.1522,11.1522,11.1522,11.1522,11.1522,11.1522,11.1522,11.1522,11.1522,11.1522,11.1522,11.1522,11.1522,11.1522,11.1522,11.1368,11.0825,11.0248,10.9363,10.8594,10.7908,10.729,10.7136,10.7867,10.8598,10.9483,11.0906,11.2868,11.4137,11.4907,11.5599,11.6176,11.6484,11.6484,11.6253,11.583,11.5022,11.4022,11.2906,11.1791,11.0483,10.9252,10.8636,10.8136,10.7559,10.7021,10.6636,10.6405,10.6405,10.6405,10.6405,10.6405,10.6405,11.3203,11.3203,11.3203,11.3203,11.3203,11.3203,11.3203,11.3203,11.3203,11.3203,11.3203,11.3203,11.3203,11.3203,11.3203,11.3203,11.3203,11.3203,11.3203,11.3203,11.332,11.3672,11.4218,11.4336,11.4648,11.4883,11.457,11.3906,11.3476,11.3281,11.3711,11.457,11.5429,11.6211,11.7187,11.7929,11.8242,11.8281,11.8281,11.8281,11.8281,11.8281,11.8281,11.8281,11.8281,11.8129,11.7496,11.5938,11.4736,11.4151,11.2483,11.1983,11.256,11.2796,11.333,11.3709,11.383,11.345,11.2522,11.1868,11.1522,11.1522,11.1522,11.1522,11.1522,11.1522,11.1522,11.1522,11.1522,11.1522,11.1522,11.1522,11.1522,11.1522,11.1522,11.1522,11.1522,11.1098,11.0555,10.9709,10.8902,10.8329,10.7677,10.7098,10.6751,10.7598,10.8482,10.9367,11.0637,11.2637,11.4368,11.5138,11.5753,11.6292,11.6484,11.6484,11.6138,11.5715,11.4791,11.3753,11.2676,11.1522,11.0214,10.9136,10.8444,10.7713,10.7021,10.6597,10.6444,10.6405,10.6405,10.6405,10.6405,10.6405,10.6405,11.3203,11.3203,11.3203,11.3203,11.3203,11.3203,11.3203,11.3203,11.3203,11.3203,11.3203,11.3203,11.3203,11.3203,11.3203,11.3203,11.3203,11.3203,11.3203,11.3398,11.3672,11.414,11.4531,11.4961,11.5468,11.5586,11.5312,11.4726,11.4062,11.3593,11.3828,11.5078,11.5625,11.6523,11.75,11.8086,11.8242,11.8281,11.8281,11.8281,11.8281,11.8281,11.8281,11.8281,11.8281,11.8047,11.7373,11.5895,11.4681,11.3984,11.2445,11.1675,11.206,11.2445,11.306,11.3868,11.3984,11.356,11.2714,11.1983,11.1637,11.1522,11.1522,11.1522,11.1522,11.1522,11.1522,11.1522,11.1522,11.1522,11.1522,11.1522,11.1522,11.1522,11.1522,11.1445,11.1291,11.0829,11.0291,10.9325,10.844,10.7905,10.7367,10.6905,10.6713,10.7444,10.8367,10.9406,11.0752,11.2522,11.4099,11.5407,11.5945,11.6446,11.6484,11.6446,11.5984,11.5484,11.4638,11.3599,11.2522,11.1329,10.9867,10.8675,10.779,10.7098,10.6482,10.6405,10.6405,10.6405,10.6405,10.6405,10.6405,10.6405,10.6405,11.3203,11.3203,11.3203,11.3203,11.3203,11.3203,11.3203,11.3203,11.3203,11.3203,11.3203,11.3203,11.3203,11.3203,11.3203,11.3203,11.3203,11.3203,11.3203,11.3476,11.4023,11.457,11.5078,11.5586,11.6172,11.6328,11.6172,11.5586,11.4804,11.4218,11.4336,11.5664,11.5664,11.6718,11.7851,11.8281,11.8281,11.8281,11.8281,11.8281,11.8281,11.8281,11.8437,11.8476,11.8398,11.8164,11.766,11.6201,11.5028,11.3945,11.2714,11.1906,11.1752,11.206,11.268,11.3253,11.3368,11.3055,11.2637,11.2175,11.1752,11.156,11.1522,11.1522,11.1522,11.1522,11.1522,11.1522,11.1522,11.1522,11.1522,11.1522,11.1522,11.1522,11.1522,11.1368,11.1137,11.0521,10.9752,10.8748,10.7941,10.7402,10.6944,10.6597,10.6713,10.7328,10.8252,10.9367,11.0983,11.2676,11.3945,11.533,11.5984,11.6407,11.6407,11.6292,11.583,11.5138,11.4291,11.3137,11.1868,11.0598,10.9213,10.8136,10.729,10.6828,10.6405,10.6405,10.6405,10.6405,10.6405,10.6405,10.6405,10.6405,10.6405,11.3203,11.3203,11.3203,11.3203,11.3203,11.3203,11.3203,11.3203,11.3203,11.3203,11.3203,11.3203,11.3203,11.3203,11.3203,11.3203,11.3203,11.3203,11.3203,11.3476,11.4062,11.4922,11.5586,11.6367,11.7226,11.7656,11.7265,11.6484,11.5664,11.4843,11.5039,11.5586,11.5742,11.6836,11.7773,11.8281,11.8281,11.8281,11.8281,11.8281,11.832,11.8437,11.8711,11.914,11.8828,11.8515,11.8906,11.714,11.5495,11.4417,11.3099,11.2099,11.1675,11.1714,11.2214,11.2714,11.256,11.2401,11.2329,11.2329,11.2137,11.1752,11.1522,11.1522,11.1522,11.1522,11.1522,11.1522,11.1522,11.1522,11.1522,11.1522,11.1522,11.1445,11.1329,11.0944,11.0598,11.006,10.9252,10.8171,10.7479,10.7021,10.679,10.6482,10.6405,10.6944,10.829,10.9406,11.1368,11.3022,11.3984,11.5099,11.5907,11.6292,11.6292,11.5869,11.5061,11.433,11.3599,11.2252,11.0829,10.9598,10.8752,10.7905,10.7175,10.6751,10.6405,10.6405,10.6405,10.6405,10.6405,10.6405,10.6405,10.6405,10.6405,11.3203,11.3203,11.3203,11.3203,11.3203,11.3203,11.3203,11.3203,11.3203,11.3203,11.3203,11.3203,11.3203,11.3203,11.3203,11.3203,11.3203,11.3203,11.3203,11.3672,11.4492,11.5312,11.6093,11.6953,11.7968,11.8164,11.7851,11.7343,11.6523,11.5586,11.5859,11.6133,11.5976,11.6875,11.7773,11.8281,11.8281,11.8281,11.8281,11.8281,11.8398,11.8867,11.9258,11.9453,12.0078,11.9531,11.9101,11.7734,11.6107,11.462,11.3373,11.2406,11.1675,11.156,11.1906,11.2483,11.2214,11.2137,11.1906,11.1983,11.1791,11.1675,11.1522,11.1522,11.1522,11.1522,11.1522,11.1522,11.1522,11.1522,11.1522,11.1522,11.1483,11.1368,11.1021,11.0521,10.9983,10.9406,10.8752,10.7671,10.7095,10.6674,10.6521,10.6405,10.6405,10.6559,10.8059,10.9637,11.1483,11.3137,11.4022,11.4714,11.5445,11.5874,11.5874,11.5105,11.4176,11.356,11.2906,11.1637,11.0329,10.9521,10.8675,10.7829,10.7059,10.6636,10.6405,10.6405,10.6405,10.6405,10.6405,10.6405,10.6405,10.6251,10.6097,11.3203,11.3203,11.3203,11.3203,11.3203,11.3203,11.3203,11.3203,11.3203,11.3203,11.3203,11.3203,11.3203,11.3203,11.3203,11.3203,11.3203,11.3203,11.3203,11.3789,11.4726,11.5547,11.6289,11.7187,11.8203,11.8281,11.8242,11.7812,11.6914,11.6093,11.625,11.6445,11.6367,11.6914,11.7929,11.8281,11.8281,11.8281,11.8281,11.8281,11.8398,11.9101,11.9804,11.9961,12.0508,12.0468,11.9648,11.8473,11.6724,11.5051,11.3599,11.2599,11.1945,11.1598,11.1829,11.2137,11.2252,11.2064,11.1641,11.1256,11.1291,11.1445,11.1522,11.1522,11.1522,11.1522,11.1522,11.1522,11.1522,11.1483,11.1406,11.1252,11.1021,11.0791,11.0137,10.9637,10.9098,10.8482,10.7944,10.721,10.6828,10.6521,10.6713,10.6751,10.7251,10.7521,10.8675,11.0021,11.1329,11.2791,11.3868,11.4445,11.4907,11.5182,11.5297,11.4297,11.3407,11.3176,11.2406,11.1291,11.0175,10.9367,10.8367,10.7328,10.6713,10.6482,10.6405,10.6367,10.6405,10.6405,10.6213,10.5867,10.5328,10.5136,10.529,11.3203,11.3203,11.3203,11.3203,11.3203,11.3203,11.3203,11.3203,11.3203,11.3203,11.3203,11.3203,11.3203,11.3203,11.3203,11.3203,11.3203,11.3203,11.3203,11.3593,11.4883,11.5547,11.6328,11.7265,11.8281,11.8281,11.8242,11.789,11.7109,11.6133,11.6289,11.6601,11.6484,11.6718,11.8164,11.8281,11.8281,11.8281,11.8281,11.8281,11.8476,11.9218,12.0078,12.0547,12.1172,12.1211,12.0586,11.9492,11.7569,11.5396,11.4297,11.306,11.1752,11.156,11.1598,11.1637,11.1637,11.156,11.1406,11.0675,11.0637,11.0983,11.0906,11.1098,11.1368,11.1445,11.1329,11.1175,11.1291,11.1291,11.1137,11.0752,11.0367,10.9983,10.9367,10.8829,10.829,10.7752,10.7213,10.7059,10.6751,10.6521,10.679,10.7175,10.7982,10.8675,10.9598,11.056,11.1522,11.2406,11.3522,11.3791,11.4176,11.4335,11.4258,11.3368,11.2676,11.2483,11.1868,11.0752,10.9829,10.8983,10.7944,10.6828,10.6521,10.6405,10.6367,10.6367,10.6059,10.5674,10.5366,10.4982,10.4405,10.4174,10.4482,11.3203,11.3203,11.3203,11.3203,11.3203,11.3203,11.3203,11.3203,11.3203,11.3203,11.3203,11.3203,11.3203,11.3203,11.3203,11.3203,11.3203,11.3203,11.3203,11.3398,11.4883,11.5508,11.6211,11.7226,11.8242,11.8281,11.8242,11.8203,11.7851,11.6445,11.6289,11.664,11.6718,11.7265,11.8008,11.8281,11.8281,11.8281,11.8281,11.832,11.8476,11.9609,12.0586,12.0976,12.1875,12.2226,12.164,12.0351,11.8384,11.5939,11.4854,11.3368,11.1906,11.1522,11.1522,11.1522,11.1522,11.1175,11.0637,10.9906,10.9444,10.9675,10.9944,11.0214,11.0479,11.0594,11.0594,11.0594,11.0637,11.0406,10.9752,10.956,10.929,10.9175,10.8675,10.8213,10.7713,10.7136,10.6674,10.6828,10.6713,10.7021,10.7328,10.7482,10.8136,10.879,10.956,11.0483,11.1445,11.2175,11.3022,11.306,11.3214,11.3368,11.3219,11.2599,11.2214,11.2022,11.1291,11.0214,10.9367,10.8636,10.7713,10.6674,10.6521,10.6405,10.6174,10.5867,10.5251,10.4828,10.4366,10.4135,10.3789,10.3751,10.402,11.3203,11.3203,11.3203,11.3203,11.3203,11.3203,11.3203,11.3203,11.3203,11.3203,11.3203,11.3203,11.3203,11.3203,11.3203,11.3203,11.3203,11.3203,11.3203,11.3398,11.457,11.5273,11.6093,11.7109,11.7851,11.8164,11.8281,11.8242,11.8125,11.6523,11.6093,11.6406,11.6875,11.7422,11.8047,11.8281,11.8281,11.8281,11.8281,11.8281,11.8789,11.9726,12.0859,12.1406,12.2187,12.3047,12.2109,12.082,11.9179,11.6875,11.5049,11.3573,11.2214,11.156,11.1522,11.1522,11.1445,11.0906,10.9906,10.9367,10.879,10.8098,10.8559,10.9252,10.9709,10.9825,10.9825,10.9786,10.9752,10.9448,10.8986,10.8752,10.8406,10.829,10.7944,10.7521,10.7636,10.7059,10.7213,10.729,10.7405,10.7716,10.7793,10.7944,10.8213,10.8829,10.9444,11.0406,11.1329,11.2022,11.2599,11.2637,11.2676,11.2868,11.2714,11.2175,11.1791,11.1522,11.0714,10.979,10.9098,10.8406,10.7482,10.6674,10.6521,10.6251,10.579,10.5328,10.4597,10.3828,10.3135,10.2981,10.302,10.3135,10.3251,11.3203,11.3203,11.3203,11.3203,11.3203,11.3203,11.3203,11.3203,11.3203,11.3203,11.3203,11.3203,11.3203,11.3203,11.3203,11.3203,11.3203,11.3203,11.3203,11.3437,11.4297,11.4961,11.5781,11.6679,11.7578,11.8086,11.8281,11.8281,11.8125,11.6601,11.5859,11.5937,11.6484,11.7304,11.7929,11.8281,11.8281,11.8281,11.8281,11.8281,11.8633,11.9961,12.0742,12.1445,12.2383,12.2929,12.2265,12.1093,11.9179,11.7148,11.5263,11.3659,11.2449,11.1675,11.156,11.1522,11.1522,11.0598,10.9637,10.9252,10.8329,10.7713,10.8252,10.879,10.899,10.9029,10.9017,10.894,10.8867,10.8793,10.8601,10.8139,10.7636,10.7405,10.7136,10.7213,10.7636,10.7752,10.8098,10.8293,10.8332,10.837,10.8024,10.8059,10.8021,10.8406,10.9021,11.0021,11.0944,11.1829,11.2291,11.2368,11.2445,11.2522,11.2252,11.1829,11.1406,11.1137,11.0406,10.9521,10.8867,10.8136,10.7251,10.6597,10.6482,10.6136,10.5559,10.4751,10.3828,10.3058,10.2443,10.2058,10.2174,10.1981,10.1943,11.3203,11.3203,11.3203,11.3203,11.3203,11.3203,11.3203,11.3203,11.3203,11.3203,11.3203,11.3203,11.3203,11.3203,11.3203,11.3203,11.3203,11.3203,11.3203,11.3515,11.3984,11.4922,11.5742,11.6523,11.7422,11.8008,11.8242,11.8242,11.7929,11.6601,11.5742,11.582,11.6093,11.7031,11.7851,11.8281,11.8281,11.8281,11.8281,11.8281,11.875,12.0,12.0625,12.1367,12.2617,12.3047,12.2812,12.1484,11.9609,11.7695,11.5742,11.3949,11.2099,11.1675,11.1522,11.1522,11.1445,11.106,11.0214,10.9521,10.8757,10.7836,10.7951,10.7818,10.8001,10.8138,10.8136,10.8059,10.8021,10.7985,10.7831,10.7405,10.7175,10.7098,10.7098,10.7675,10.8098,10.8482,10.879,10.8829,10.8906,10.8485,10.8178,10.7713,10.7675,10.7982,10.8559,10.9483,11.0406,11.1252,11.1945,11.2022,11.206,11.2137,11.1983,11.1598,11.1137,11.0637,10.9944,10.9175,10.829,10.7559,10.6867,10.6482,10.629,10.5828,10.529,10.4366,10.3366,10.2712,10.2097,10.1673,10.1289,10.1289,10.1289,11.3203,11.3203,11.3203,11.3203,11.3203,11.3203,11.3203,11.3203,11.3203,11.3203,11.3203,11.3203,11.3203,11.3203,11.3203,11.3203,11.3203,11.3203,11.3203,11.3359,11.375,11.4414,11.5273,11.6172,11.6914,11.7578,11.8125,11.8281,11.7851,11.6797,11.582,11.6211,11.6015,11.6836,11.7812,11.8281,11.8281,11.8281,11.8281,11.8281,11.8945,11.9961,12.0664,12.125,12.2617,12.332,12.3242,12.1758,11.9961,11.8086,11.6133,11.421,11.2526,11.1906,11.1598,11.1598,11.1637,11.1214,11.0528,10.987,10.9209,10.8504,10.7735,10.7453,10.7392,10.7489,10.7333,10.7213,10.7213,10.7175,10.6944,10.679,10.6867,10.6982,10.7636,10.829,10.8752,10.9175,10.9252,10.929,10.8983,10.8482,10.8021,10.7559,10.7213,10.7328,10.7675,10.8406,10.9329,11.0214,11.1098,11.1637,11.1637,11.1637,11.1522,11.1406,11.0906,11.0329,10.9598,10.879,10.7829,10.7136,10.6636,10.6328,10.6059,10.5482,10.4828,10.3905,10.2943,10.2327,10.1827,10.152,10.1289,10.1289,10.1289,11.3203,11.3203,11.3203,11.3203,11.3203,11.3203,11.3203,11.3203,11.3203,11.3203,11.3203,11.3203,11.3203,11.3203,11.3203,11.3203,11.3203,11.3203,11.3203,11.3203,11.332,11.3906,11.4726,11.539,11.6445,11.7148,11.7695,11.8164,11.7695,11.6758,11.6133,11.6914,11.6133,11.664,11.8047,11.8281,11.8281,11.8281,11.8281,11.832,11.8789,11.9804,12.0976,12.1211,12.2343,12.3398,12.2968,12.1718,12.0039,11.8164,11.6378,11.4457,11.2954,11.2175,11.1868,11.1752,11.1829,11.1637,11.1034,11.033,10.9616,10.8799,10.785,10.7464,10.732,10.722,10.7062,10.6944,10.7021,10.6948,10.6751,10.7142,10.7405,10.7713,10.829,10.8944,10.9483,10.9752,10.9748,10.9517,10.8829,10.8329,10.787,10.7328,10.6828,10.6751,10.6982,10.7559,10.829,10.9213,11.0137,11.106,11.1406,11.1445,11.1406,11.1214,11.0752,11.0137,10.929,10.8367,10.7367,10.6828,10.6444,10.6174,10.5944,10.502,10.4212,10.3405,10.2674,10.1866,10.1443,10.1366,10.1289,10.1289,10.1289,11.3203,11.3203,11.3203,11.3203,11.3203,11.3203,11.3203,11.3203,11.3203,11.3203,11.3203,11.3203,11.3203,11.3203,11.3203,11.3203,11.3203,11.3203,11.3203,11.3203,11.3203,11.3554,11.4453,11.5195,11.6093,11.7031,11.7656,11.8008,11.7422,11.6601,11.6133,11.6836,11.6289,11.6758,11.8047,11.8203,11.8281,11.8281,11.8281,11.8359,11.8672,11.9843,12.0976,12.1445,12.2383,12.3008,12.2539,12.1523,11.9531,11.7539,11.6133,11.4254,11.2228,11.2222,11.2064,11.1906,11.2078,11.2039,11.1768,11.0979,11.017,10.9575,10.8742,10.7907,10.7443,10.722,10.7062,10.6986,10.6911,10.6796,10.6879,10.7413,10.7982,10.8444,10.8983,10.9637,11.0214,11.0214,11.0209,10.944,10.8675,10.8098,10.76,10.7098,10.6597,10.6444,10.6521,10.6905,10.7521,10.8329,10.9252,11.0175,11.1175,11.1368,11.1329,11.0944,11.0406,10.9598,10.8675,10.779,10.6944,10.6636,10.6367,10.6136,10.5751,10.4789,10.3943,10.3174,10.2366,10.1558,10.1289,10.1289,10.1289,10.1289,10.1289,11.3203,11.3203,11.3203,11.3203,11.3203,11.3203,11.3203,11.3203,11.3203,11.3203,11.3203,11.3203,11.3203,11.3203,11.3203,11.3203,11.3203,11.3203,11.3203,11.3203,11.3242,11.3437,11.4101,11.4843,11.5547,11.6484,11.7695,11.7968,11.7422,11.6836,11.664,11.6914,11.6601,11.6797,11.7812,11.8047,11.8281,11.8281,11.8281,11.8476,11.8828,12.0078,12.0898,12.1406,12.2226,12.2734,12.2226,12.125,11.9453,11.7187,11.5351,11.3984,11.2627,11.2453,11.2329,11.2219,11.2332,11.2544,11.2299,11.1709,11.0781,11.0156,10.9414,10.8476,10.7812,10.7581,10.7347,10.7286,10.7286,10.7196,10.7331,10.7756,10.8329,10.8829,10.9713,11.056,11.0483,11.0171,10.9594,10.8594,10.8021,10.7636,10.7175,10.6828,10.6405,10.6405,10.6444,10.6444,10.6982,10.7482,10.8406,10.9213,11.0214,11.1137,11.1406,11.0791,11.0021,10.9136,10.8136,10.7482,10.679,10.6559,10.6328,10.602,10.5441,10.4518,10.3712,10.2866,10.2212,10.1443,10.1327,10.1289,10.1289,10.1289,10.1289,11.3203,11.3203,11.3203,11.3203,11.3203,11.3203,11.3203,11.3203,11.3203,11.3203,11.3203,11.3203,11.3203,11.3203,11.3203,11.3203,11.3203,11.3203,11.3203,11.3203,11.3203,11.332,11.3593,11.414,11.5195,11.625,11.7383,11.7968,11.8086,11.7343,11.6875,11.707,11.7109,11.7109,11.7383,11.7812,11.8281,11.8281,11.8398,11.8828,11.957,12.0468,12.0898,12.1601,12.2422,12.289,12.2109,12.1054,11.9453,11.707,11.4687,11.3515,11.289,11.2716,11.2559,11.25,11.2617,11.2773,11.2619,11.2173,11.1367,11.0625,10.9804,10.8984,10.8242,10.7851,10.7656,10.7578,10.7617,10.7564,10.7686,10.7987,10.8524,10.8983,11.0021,11.0791,11.0367,10.9863,10.8863,10.7787,10.7482,10.7136,10.6828,10.6482,10.6405,10.6405,10.6405,10.6405,10.6559,10.7021,10.7675,10.8367,10.9136,11.006,11.0983,11.0444,10.9444,10.8636,10.7713,10.7175,10.6713,10.6521,10.6213,10.5867,10.5213,10.4211,10.3288,10.2404,10.1789,10.1327,10.1327,10.1289,10.1289,10.1289,10.1289,11.3203,11.3203,11.3203,11.3203,11.3203,11.3203,11.3203,11.3203,11.3203,11.3203,11.3203,11.3203,11.3203,11.3203,11.3203,11.3203,11.3203,11.3203,11.3203,11.3203,11.3203,11.3203,11.3437,11.4101,11.5351,11.6289,11.6992,11.7539,11.789,11.7383,11.7343,11.7812,11.7226,11.7383,11.8008,11.8281,11.8281,11.8281,11.8437,11.875,11.9648,12.0508,12.1289,12.207,12.289,12.2343,12.1562,12.1054,11.8906,11.6484,11.4336,11.3281,11.2929,11.2929,11.2851,11.2773,11.289,11.3008,11.2812,11.2265,11.1523,11.0664,10.9804,10.8945,10.8359,10.8008,10.7851,10.7812,10.7734,10.75,10.7565,10.7949,10.8409,10.8482,10.9098,10.9367,10.9252,10.8748,10.8017,10.7402,10.7059,10.679,10.6597,10.6405,10.6405,10.6405,10.6405,10.6405,10.6405,10.6713,10.7059,10.7675,10.8248,10.9136,11.0098,10.9637,10.879,10.8021,10.7367,10.6867,10.6559,10.6482,10.6174,10.5905,10.4903,10.3864,10.2903,10.2289,10.1673,10.1327,10.1327,10.1289,10.1289,10.1289,10.1289]},{"header":{"parameterUnit":"m.s-1","parameterCategory":1,"la1":31.0,"la2":29.5877,"lo1":-88.7671,"lo2":-86.6584,"dy":0.0162,"dx":0.0185,"nx":115,"ny":88,"refTime":"2023-10-31T12:00:00:Z","depth":0,"parameterNumber":3,"parameterNumberName":"V-component_of_WINDS"},"data":[0.0,0.0,0.0,0.0,0.0,0.0,0.0,0.0,0.0,0.0,0.0,0.0,0.0,0.0,0.0,0.0,0.0,0.0,0.0,0.0,0.0,0.0,0.0,0.0,0.0,0.0,0.0,0.0,0.0,0.0,0.0,0.0,0.0,0.0,0.0,0.0,0.0,0.0,0.0,0.0,0.0,0.0,0.0,0.0,0.0,0.0,0.0,0.0,0.0,0.0,0.0,0.0,0.0,0.0,0.0,0.0,0.0,0.0,0.0,0.0,0.0,0.0,0.0,0.0,0.0,0.0,0.0,0.0,0.0,0.0,0.0,0.0,0.0,0.0,0.0,0.0,0.0,0.0,0.0,0.0,0.0,0.0,0.0,0.0,0.0,0.0,0.0,0.0,0.0,0.0,0.0,0.0,0.0,0.0,0.0,0.0,0.0,0.0,0.0,0.0,0.0,0.0,0.0,0.0,0.0,0.0,0.0,0.0,0.0,0.0,0.0,0.0,0.0,0.0,0.0,0.0,0.0,0.0,0.0,0.0,0.0,0.0,0.0,0.0,0.0,0.0,0.0,0.0,0.0,0.0,0.0,0.0,0.0,0.0,0.0,0.0,0.0,0.0,0.0,0.0,0.0,0.0,0.0,0.0,0.0,0.0,0.0,0.0,0.0,0.0,0.0,0.0,0.0,0.0,0.0,0.0,0.0,0.0,0.0,0.0,0.0,0.0,0.0,0.0,0.0,0.0,0.0,0.0,0.0,0.0,0.0,0.0,0.0,0.0,0.0,0.0,0.0,0.0,0.0,0.0,0.0,0.0,0.0,0.0,0.0,0.0,0.0,0.0,0.0,0.0,0.0,0.0,0.0,0.0,0.0,0.0,0.0,0.0,0.0,0.0,0.0,0.0,0.0,0.0,0.0,0.0,0.0,0.0,0.0,0.0,0.0,0.0,0.0,0.0,0.0,0.0,0.0,0.0,0.0,0.0,0.0,0.0,0.0,0.0,0.0,0.0,0.0,0.0,0.0,0.0,0.0,0.0,0.0,0.0,0.0,0.0,0.0,0.0,0.0,0.0,0.0,0.0,0.0,0.0,0.0,0.0,0.0,0.0,0.0,0.0,0.0,0.0,0.0,0.0,0.0,0.0,0.0,0.0,0.0,0.0,0.0,0.0,0.0,0.0,0.0,0.0,0.0,0.0,0.0,0.0,0.0,0.0,0.0,0.0,0.0,0.0,0.0,0.0,0.0,0.0,0.0,0.0,0.0,0.0,0.0,0.0,0.0,0.0,0.0,0.0,0.0,0.0,0.0,0.0,0.0,0.0,0.0,0.0,0.0,0.0,0.0,0.0,0.0,0.0,0.0,0.0,0.0,0.0,0.0,0.0,0.0,0.0,0.0,0.0,0.0,0.0,0.0,0.0,0.0,0.0,0.0,0.0,0.0,0.0,0.0,0.0,0.0,0.0,0.0,0.0,0.0,0.0,0.0,0.0,0.0,0.0,0.0,0.0,0.0,0.0,0.0,0.0,0.0,0.0,0.0,0.0,0.0,0.0,0.0,0.0,0.0,0.0,0.0,0.0,0.0,0.0,0.0,0.0,0.0,0.0,0.0,0.0,0.0,0.0,0.0,0.0,0.0,0.0,0.0,0.0,0.0,0.0,0.0,0.0,0.0,0.0,0.0,0.0,0.0,0.0,0.0,0.0,0.0,0.0,0.0,0.0,0.0,0.0,0.0,0.0,0.0,0.0,0.0,0.0,0.0,0.0,0.0,0.0,0.0,0.0,0.0,0.0,0.0,0.0,0.0,0.0,0.0,0.0,0.0,0.0,0.0,0.0,0.0,0.0,0.0,0.0,0.0,0.0,0.0,0.0,0.0,0.0,0.0,0.0,0.0,0.0,0.0,0.0,0.0,0.0,0.0,0.0,0.0,0.0,0.0,0.0,0.0,0.0,0.0,0.0,0.0,0.0,0.0,0.0,0.0,0.0,0.0,0.0,0.0,0.0,0.0,0.0,0.0,0.0,0.0,0.0,0.0,0.0,0.0,0.0,0.0,0.0,0.0,0.0,0.0,0.0,0.0,0.0,0.0,0.0,0.0,0.0,0.0,0.0,0.0,0.0,0.0,0.0,0.0,0.0,0.0,0.0,0.0,0.0,0.0,0.0,0.0,0.0,0.0,0.0,0.0,0.0,0.0,0.0,0.0,0.0,0.0,0.0,0.0,0.0,0.0,0.0,0.0,0.0,0.0,0.0,0.0,0.0,0.0,0.0,0.0,0.0,0.0,0.0,0.0,0.0,0.0,0.0,0.0,0.0,0.0,0.0,0.0,0.0,0.0,0.0,0.0,0.0,0.0,0.0,0.0,0.0,0.0,0.0,0.0,0.0,0.0,0.0,0.0,0.0,0.0,0.0,0.0,0.0,0.0,0.0,0.0,0.0,0.0,0.0,0.0,0.0,0.0,0.0,0.0,0.0,0.0,0.0,0.0,0.0,0.0,0.0,0.0,0.0,0.0,0.0,0.0,0.0,0.0,0.0,0.0,0.0,0.0,0.0,0.0,0.0,0.0,0.0,0.0,0.0,0.0,0.0,0.0,0.0,0.0,0.0,0.0,0.0,0.0,0.0,0.0,0.0,0.0,0.0,0.0,0.0,0.0,0.0,0.0,0.0,0.0,0.0,0.0,0.0,0.0,0.0,0.0,0.0,0.0,0.0,0.0,0.0,0.0,0.0,0.0,0.0,0.0,0.0,0.0,0.0,0.0,0.0,0.0,0.0,0.0,0.0,0.0,0.0,0.0,0.0,0.0,0.0,0.0,0.0,0.0,0.0,0.0,0.0,0.0,0.0,0.0,0.0,0.0,0.0,0.0,0.0,0.0,0.0,0.0,0.0,0.0,0.0,0.0,0.0,0.0,0.0,0.0,0.0,0.0,0.0,0.0,0.0,0.0,0.0,0.0,0.0,0.0,0.0,0.0,0.0,0.0,0.0,0.0,0.0,0.0,0.0,0.0,0.0,0.0,0.0,0.0,0.0,0.0,0.0,0.0,0.0,0.0,0.0,0.0,0.0,0.0,0.0,0.0,0.0,0.0,0.0,0.0,0.0,0.0,0.0,0.0,0.0,0.0,0.0,0.0,0.0,0.0,0.0,0.0,0.0,0.0,0.0,0.0,0.0,0.0,0.0,0.0,0.0,0.0,0.0,0.0,0.0,0.0,0.0,0.0,0.0,0.0,0.0,0.0,0.0,0.0,0.0,0.0,0.0,0.0,0.0,0.0,0.0,0.0,0.0,0.0,0.0,0.0,0.0,0.0,0.0,0.0,0.0,0.0,0.0,0.0,0.0,0.0,0.0,0.0,0.0,0.0,0.0,0.0,0.0,0.0,0.0,0.0,0.0,0.0,0.0,0.0,0.0,0.0,0.0,0.0,0.0,0.0,0.0,0.0,0.0,0.0,0.0,0.0,0.0,0.0,0.0,0.0,0.0,0.0,0.0,0.0,0.0,0.0,0.0,0.0,0.0,0.0,0.0,0.0,0.0,0.0,0.0,0.0,0.0,0.0,0.0,0.0,0.0,0.0,0.0,0.0,0.0,0.0,0.0,0.0,0.0,0.0,0.0,0.0,0.0,0.0,0.0,0.0,0.0,0.0,0.0,0.0,0.0,0.0,0.0,0.0,0.0,0.0,0.0,0.0,0.0,0.0,0.0,0.0,0.0,0.0,0.0,0.0,0.0,0.0,0.0,0.0,0.0,0.0,0.0,0.0,0.0,0.0,0.0,0.0,0.0,0.0,0.0,0.0,0.0,0.0,0.0,0.0,0.0,0.0,0.0,0.0,0.0,0.0,0.0,0.0,0.0,0.0,0.0,0.0,0.0,0.0,0.0,0.0,0.0,0.0,0.0,0.0,0.0,0.0,0.0,0.0,0.0,0.0,0.0,0.0,0.0,0.0,0.0,0.0,0.0,0.0,0.0,0.0,0.0,0.0,0.0,0.0,0.0,0.0,0.0,0.0,0.0,0.0,0.0,0.0,0.0,0.0,0.0,0.0,0.0,0.0,0.0,0.0,0.0,0.0,0.0,0.0,0.0,0.0,0.0,0.0,0.0,0.0,0.0,0.0,0.0,0.0,0.0,0.0,0.0,0.0,0.0,0.0,0.0,0.0,0.0,0.0,0.0,0.0,0.0,0.0,0.0,0.0,0.0,0.0,0.0,0.0,0.0,0.0,0.0,0.0,0.0,0.0,0.0,0.0,0.0,0.0,0.0,0.0,0.0,0.0,0.0,0.0,0.0,-1.0493,0.0,0.0,0.0,0.0,0.0,0.0,0.0,0.0,0.0,0.0,0.0,0.0,0.0,0.0,0.0,0.0,0.0,0.0,0.0,0.0,0.0,0.0,0.0,0.0,0.0,0.0,0.0,0.0,0.0,0.0,0.0,0.0,0.0,0.0,0.0,0.0,0.0,0.0,0.0,0.0,0.0,0.0,0.0,0.0,0.0,0.0,0.0,0.0,0.0,0.0,0.0,0.0,0.0,0.0,0.0,0.0,0.0,0.0,0.0,0.0,0.0,0.0,0.0,0.0,0.0,0.0,0.0,0.0,0.0,0.0,0.0,0.0,0.0,0.0,0.0,0.0,0.0,0.0,0.0,0.0,0.0,0.0,0.0,0.0,0.0,0.0,0.0,0.0,0.0,0.0,0.0,0.0,0.0,0.0,0.0,0.0,0.0,0.0,0.0,0.0,0.0,0.0,0.0,0.0,0.0,0.0,0.0,0.0,0.0,0.0,-1.0717,-1.0717,-1.0717,-1.069,-1.0616,0.0,0.0,0.0,0.0,0.0,0.0,0.0,0.0,0.0,0.0,0.0,0.0,0.0,0.0,0.0,0.0,0.0,0.0,0.0,0.0,0.0,0.0,0.0,0.0,0.0,0.0,0.0,0.0,0.0,0.0,0.0,0.0,0.0,0.0,0.0,0.0,0.0,0.0,0.0,0.0,0.0,0.0,0.0,0.0,0.0,0.0,0.0,0.0,0.0,0.0,0.0,0.0,0.0,0.0,0.0,0.0,0.0,0.0,0.0,0.0,0.0,0.0,0.0,0.0,0.0,0.0,0.0,0.0,0.0,0.0,0.0,0.0,0.0,0.0,0.0,0.0,0.0,0.0,0.0,0.0,0.0,0.0,0.0,0.0,0.0,0.0,0.0,0.0,0.0,0.0,0.0,0.0,0.0,0.0,0.0,0.0,0.0,0.0,0.0,0.0,0.0,0.0,0.0,0.0,0.0,0.0,0.0,0.0,0.0,0.0,0.0,0.0,-1.0785,-1.0724,-1.0616,0.0,0.0,0.0,0.0,0.0,0.0,0.0,0.0,0.0,0.0,0.0,0.0,0.0,0.0,0.0,0.0,0.0,0.0,0.0,0.0,0.0,0.0,0.0,0.0,0.0,0.0,0.0,0.0,0.0,0.0,0.0,0.0,0.0,0.0,0.0,0.0,0.0,0.0,0.0,0.0,0.0,0.0,0.0,0.0,0.0,0.0,0.0,0.0,0.0,0.0,0.0,0.0,0.0,0.0,0.0,0.0,0.0,0.0,0.0,0.0,0.0,0.0,0.0,0.0,0.0,0.0,0.0,0.0,0.0,0.0,0.0,0.0,0.0,0.0,0.0,0.0,0.0,0.0,0.0,0.0,0.0,0.0,0.0,0.0,0.0,0.0,0.0,0.0,0.0,0.0,0.0,0.0,0.0,0.0,0.0,0.0,0.0,0.0,0.0,0.0,0.0,0.0,0.0,0.0,0.0,0.0,0.0,0.0,0.0,0.0,-1.0836,-1.1124,-1.0853,0.0,-1.0351,0.0,0.0,0.0,0.0,0.0,0.0,0.0,0.0,0.0,0.0,0.0,0.0,0.0,0.0,0.0,0.0,0.0,0.0,0.0,0.0,0.0,0.0,0.0,0.0,0.0,0.0,0.0,0.0,0.0,0.0,0.0,0.0,0.0,0.0,0.0,0.0,0.0,0.0,0.0,0.0,0.0,0.0,0.0,0.0,0.0,0.0,0.0,0.0,0.0,0.0,0.0,0.0,0.0,0.0,0.0,0.0,0.0,0.0,0.0,0.0,0.0,0.0,0.0,0.0,0.0,0.0,0.0,0.0,0.0,0.0,0.0,0.0,0.0,0.0,0.0,0.0,0.0,0.0,0.0,0.0,0.0,0.0,0.0,0.0,0.0,0.0,0.0,0.0,0.0,0.0,0.0,0.0,0.0,0.0,0.0,0.0,0.0,0.0,0.0,0.0,0.0,0.0,0.0,0.0,0.0,0.0,0.0,0.0,0.0,0.0,-1.1165,-1.1165,-1.0886,-1.0605,0.0,0.0,0.0,0.0,0.0,0.0,0.0,0.0,0.0,0.0,0.0,0.0,0.0,0.0,0.0,0.0,0.0,0.0,0.0,0.0,0.0,0.0,0.0,0.0,0.0,0.0,0.0,0.0,0.0,0.0,0.0,0.0,0.0,0.0,0.0,0.0,0.0,0.0,0.0,0.0,0.0,0.0,0.0,0.0,0.0,0.0,0.0,0.0,0.0,0.0,0.0,0.0,0.0,0.0,0.0,0.0,0.0,0.0,0.0,0.0,0.0,0.0,0.0,0.0,0.0,0.0,0.0,0.0,0.0,0.0,0.0,0.0,0.0,0.0,0.0,0.0,0.0,0.0,0.0,0.0,0.0,0.0,0.0,0.0,0.0,0.0,0.0,0.0,0.0,0.0,0.0,0.0,0.0,0.0,0.0,0.0,0.0,0.0,0.0,0.0,0.0,0.0,0.0,0.0,0.0,0.0,0.0,0.0,0.0,0.0,-1.1573,-1.1532,-1.1165,-1.1063,-1.0778,-1.0297,0.0,0.0,0.0,0.0,0.0,0.0,0.0,0.0,0.0,0.0,0.0,0.0,0.0,0.0,0.0,0.0,0.0,0.0,0.0,0.0,0.0,0.0,0.0,0.0,0.0,0.0,0.0,0.0,0.0,0.0,0.0,0.0,0.0,0.0,0.0,0.0,0.0,0.0,0.0,0.0,0.0,0.0,0.0,0.0,0.0,0.0,0.0,0.0,0.0,0.0,0.0,0.0,0.0,0.0,0.0,0.0,0.0,0.0,0.0,0.0,0.0,0.0,0.0,0.0,0.0,0.0,0.0,0.0,0.0,0.0,0.0,0.0,0.0,0.0,0.0,0.0,0.0,0.0,0.0,0.0,0.0,0.0,0.0,0.0,0.0,0.0,0.0,0.0,0.0,0.0,0.0,0.0,0.0,0.0,0.0,0.0,0.0,0.0,0.0,0.0,0.0,0.0,0.0,0.0,0.0,0.0,0.0,0.0,-1.1592,-1.1592,-1.1457,-1.1172,-1.1158,-1.0873,0.0,0.0,0.0,0.0,0.0,0.0,0.0,0.0,0.0,0.0,0.0,0.0,0.0,0.0,0.0,0.0,0.0,0.0,0.0,0.0,0.0,0.0,0.0,0.0,0.0,0.0,0.0,0.0,0.0,0.0,0.0,0.0,0.0,0.0,0.0,0.0,0.0,0.0,0.0,0.0,0.0,0.0,0.0,0.0,0.0,0.0,0.0,0.0,0.0,0.0,0.0,0.0,0.0,0.0,0.0,0.0,0.0,0.0,0.0,0.0,0.0,0.0,0.0,0.0,0.0,0.0,0.0,0.0,0.0,0.0,0.0,0.0,0.0,0.0,0.0,0.0,0.0,0.0,0.0,0.0,0.0,0.0,0.0,0.0,0.0,0.0,0.0,0.0,0.0,0.0,0.0,0.0,0.0,0.0,0.0,0.0,0.0,0.0,0.0,0.0,0.0,0.0,0.0,0.0,0.0,0.0,0.0,0.0,0.0,-1.1619,-1.1619,-1.147,-1.1179,-1.1165,-1.0887,0.0,0.0,0.0,0.0,0.0,0.0,0.0,0.0,0.0,0.0,0.0,0.0,0.0,0.0,0.0,0.0,0.0,0.0,0.0,0.0,0.0,0.0,0.0,0.0,0.0,0.0,0.0,0.0,0.0,0.0,0.0,0.0,0.0,0.0,0.0,0.0,0.0,0.0,0.0,0.0,0.0,0.0,0.0,0.0,0.0,0.0,0.0,0.0,0.0,0.0,0.0,0.0,0.0,0.0,0.0,0.0,0.0,0.0,0.0,0.0,0.0,0.0,0.0,0.0,0.0,0.0,0.0,0.0,0.0,0.0,0.0,0.0,0.0,0.0,0.0,0.0,0.0,0.0,0.0,0.0,0.0,0.0,0.0,0.0,0.0,0.0,0.0,0.0,0.0,0.0,0.0,0.0,0.0,0.0,0.0,0.0,0.0,0.0,0.0,0.0,0.0,0.0,0.0,0.0,0.0,0.0,0.0,0.0,0.0,-1.1536,0.0,-1.1565,-1.1321,-1.1212,-1.0907,0.0,0.0,0.0,0.0,0.0,0.0,0.0,0.0,0.0,0.0,0.0,0.0,0.0,0.0,0.0,0.0,0.0,0.0,0.0,0.0,0.0,0.0,0.0,0.0,0.0,0.0,0.0,0.0,0.0,0.0,0.0,0.0,0.0,0.0,0.0,0.0,0.0,0.0,0.0,0.0,0.0,0.0,0.0,0.0,0.0,0.0,0.0,0.0,0.0,0.0,0.0,0.0,0.0,0.0,0.0,0.0,0.0,0.0,0.0,0.0,0.0,0.0,0.0,0.0,0.0,0.0,0.0,0.0,0.0,0.0,0.0,0.0,0.0,0.0,0.0,0.0,0.0,0.0,0.0,0.0,0.0,0.0,0.0,0.0,0.0,0.0,0.0,0.0,0.0,0.0,0.0,0.0,0.0,0.0,0.0,0.0,0.0,0.0,0.0,0.0,0.0,0.0,0.0,0.0,0.0,0.0,0.0,0.0,-1.1556,-1.1677,-1.169,-1.1775,-1.1619,-1.1335,-1.0962,0.0,0.0,0.0,0.0,0.0,0.0,0.0,0.0,0.0,0.0,0.0,0.0,0.0,0.0,0.0,0.0,0.0,0.0,0.0,0.0,0.0,0.0,0.0,0.0,0.0,0.0,0.0,0.0,0.0,0.0,0.0,0.0,0.0,0.0,0.0,0.0,0.0,0.0,0.0,0.0,0.0,0.0,0.0,0.0,0.0,0.0,0.0,0.0,0.0,0.0,0.0,0.0,0.0,0.0,0.0,0.0,0.0,0.0,0.0,0.0,0.0,0.0,0.0,0.0,0.0,0.0,0.0,0.0,0.0,0.0,0.0,0.0,0.0,0.0,0.0,0.0,0.0,0.0,0.0,0.0,0.0,0.0,0.0,0.0,0.0,0.0,0.0,0.0,0.0,0.0,0.0,0.0,0.0,0.0,0.0,0.0,0.0,0.0,0.0,0.0,0.0,0.0,0.0,0.0,0.0,0.0,0.0,0.0,0.0,-1.2149,-1.2149,-1.1925,-1.1616,-1.1489,-1.1267,0.0,0.0,0.0,0.0,0.0,0.0,0.0,0.0,0.0,0.0,0.0,0.0,0.0,0.0,0.0,0.0,0.0,0.0,0.0,0.0,0.0,0.0,0.0,0.0,0.0,0.0,0.0,0.0,0.0,0.0,0.0,0.0,0.0,0.0,0.0,0.0,0.0,0.0,0.0,0.0,0.0,0.0,0.0,0.0,0.0,0.0,0.0,0.0,0.0,0.0,0.0,0.0,0.0,0.0,0.0,0.0,0.0,0.0,0.0,0.0,0.0,0.0,0.0,0.0,0.0,0.0,0.0,0.0,0.0,0.0,0.0,0.0,0.0,0.0,0.0,0.0,0.0,0.0,0.0,0.0,0.0,0.0,0.0,0.0,0.0,0.0,0.0,0.0,0.0,0.0,0.0,0.0,0.0,0.0,0.0,0.0,0.0,0.0,0.0,0.0,0.0,0.0,0.0,0.0,0.0,0.0,0.0,0.0,0.0,-1.2861,-1.2759,-1.263,-1.232,-1.1978,-1.1536,-1.0705,0.0,0.0,0.0,0.0,0.0,0.0,0.0,0.0,0.0,0.0,0.0,0.0,0.0,0.0,0.0,0.0,0.0,0.0,0.0,0.0,0.0,0.0,0.0,0.0,0.0,0.0,0.0,0.0,0.0,0.0,0.0,0.0,0.0,0.0,0.0,0.0,0.0,0.0,0.0,0.0,0.0,0.0,0.0,0.0,0.0,0.0,0.0,0.0,0.0,0.0,0.0,0.0,0.0,0.0,0.0,0.0,0.0,0.0,0.0,0.0,0.0,0.0,0.0,0.0,0.0,0.0,0.0,0.0,0.0,0.0,0.0,0.0,0.0,0.0,0.0,0.0,0.0,0.0,0.0,0.0,0.0,0.0,0.0,0.0,0.0,0.0,0.0,0.0,0.0,0.0,0.0,0.0,0.0,0.0,0.0,0.0,0.0,0.0,0.0,0.0,0.0,0.0,0.0,0.0,0.0,0.0,0.0,0.0,-1.3541,-1.3485,-1.3444,-1.3589,-1.2958,-1.2052,0.0,0.0,0.0,0.0,0.0,0.0,0.0,0.0,0.0,0.0,0.0,0.0,0.0,0.0,0.0,0.0,0.0,0.0,0.0,0.0,0.0,0.0,0.0,0.0,0.0,0.0,0.0,0.0,0.0,0.0,0.0,0.0,0.0,0.0,0.0,0.0,0.0,0.0,0.0,0.0,0.0,0.0,0.0,0.0,0.0,0.0,0.0,0.0,0.0,0.0,0.0,0.0,0.0,0.0,0.0,0.0,0.0,0.0,0.0,0.0,0.0,0.0,0.0,0.0,0.0,0.0,0.0,0.0,0.0,0.0,0.0,0.0,0.0,0.0,0.0,0.0,0.0,0.0,0.0,0.0,0.0,0.0,0.0,0.0,0.0,0.0,0.0,0.0,0.0,0.0,0.0,0.0,0.0,0.0,0.0,0.0,0.0,0.0,0.0,0.0,0.0,0.0,0.0,0.0,0.0,0.0,0.0,0.0,0.0,-1.4652,-1.4731,-1.4956,-1.5264,-1.4034,-1.2589,0.0,0.0,0.0,0.0,0.0,0.0,0.0,0.0,0.0,0.0,0.0,0.0,0.0,0.0,0.0,0.0,0.0,0.0,0.0,0.0,0.0,0.0,0.0,0.0,0.0,0.0,0.0,0.0,0.0,0.0,0.0,0.0,0.0,0.0,0.0,0.0,0.0,0.0,0.0,0.0,0.0,0.0,0.0,0.0,0.0,0.0,0.0,0.0,0.0,0.0,0.0,0.0,0.0,0.0,0.0,0.0,0.0,0.0,0.0,0.0,0.0,0.0,0.0,0.0,0.0,0.0,0.0,0.0,0.0,0.0,0.0,0.0,0.0,0.0,0.0,0.0,0.0,0.0,0.0,0.0,0.0,0.0,0.0,0.0,0.0,0.0,0.0,0.0,0.0,0.0,0.0,0.0,0.0,0.0,0.0,0.0,0.0,0.0,0.0,0.0,0.0,0.0,0.0,0.0,0.0,0.0,0.0,0.0,-1.4551,-1.5617,-1.5622,-1.5938,-1.6547,-1.4942,-1.3398,0.0,0.0,0.0,0.0,0.0,0.0,0.0,0.0,0.0,0.0,0.0,0.0,0.0,0.0,0.0,0.0,0.0,0.0,0.0,0.0,0.0,0.0,0.0,0.0,0.0,0.0,0.0,0.0,0.0,0.0,0.0,0.0,0.0,0.0,0.0,0.0,0.0,0.0,0.0,0.0,0.0,0.0,0.0,0.0,0.0,0.0,0.0,0.0,0.0,0.0,0.0,0.0,0.0,0.0,0.0,0.0,0.0,0.0,0.0,0.0,0.0,0.0,0.0,0.0,0.0,0.0,0.0,0.0,0.0,0.0,0.0,0.0,0.0,0.0,0.0,0.0,0.0,0.0,0.0,0.0,0.0,0.0,0.0,0.0,0.0,0.0,0.0,0.0,0.0,0.0,0.0,0.0,0.0,0.0,0.0,0.0,0.0,0.0,0.0,0.0,0.0,0.0,0.0,0.0,0.0,0.0,0.0,0.0,-1.4847,-1.6024,-1.6192,-1.6449,-1.6967,-1.587,-1.4359,0.0,0.0,0.0,0.0,0.0,0.0,0.0,0.0,0.0,0.0,0.0,0.0,0.0,0.0,0.0,0.0,0.0,0.0,0.0,0.0,0.0,0.0,0.0,0.0,0.0,0.0,0.0,0.0,0.0,0.0,0.0,0.0,0.0,0.0,0.0,0.0,0.0,0.0,0.0,0.0,0.0,0.0,0.0,0.0,0.0,0.0,0.0,0.0,0.0,0.0,0.0,0.0,0.0,0.0,0.0,0.0,0.0,0.0,0.0,0.0,0.0,0.0,0.0,0.0,0.0,0.0,0.0,0.0,0.0,0.0,0.0,0.0,0.0,0.0,0.0,0.0,0.0,0.0,0.0,0.0,0.0,0.0,0.0,0.0,0.0,0.0,0.0,0.0,0.0,0.0,0.0,0.0,0.0,0.0,0.0,0.0,0.0,0.0,0.0,0.0,0.0,0.0,0.0,0.0,0.0,0.0,0.0,0.0,-1.4919,-1.6105,-1.6029,-1.6472,-1.7039,-1.6349,-1.4922,0.0,0.0,0.0,0.0,0.0,0.0,0.0,0.0,0.0,0.0,0.0,0.0,0.0,0.0,0.0,0.0,0.0,0.0,0.0,0.0,0.0,0.0,0.0,0.0,0.0,0.0,0.0,0.0,0.0,0.0,0.0,0.0,0.0,0.0,0.0,0.0,0.0,0.0,0.0,0.0,0.0,0.0,0.0,0.0,0.0,0.0,0.0,0.0,-1.1495,0.0,0.0,0.0,0.0,0.0,0.0,0.0,0.0,0.0,0.0,0.0,0.0,0.0,0.0,0.0,0.0,0.0,0.0,0.0,0.0,0.0,0.0,0.0,0.0,0.0,0.0,0.0,0.0,0.0,0.0,0.0,0.0,0.0,0.0,0.0,0.0,0.0,0.0,0.0,0.0,0.0,0.0,0.0,0.0,0.0,0.0,0.0,0.0,0.0,0.0,0.0,0.0,0.0,0.0,0.0,0.0,0.0,0.0,0.0,-1.5093,-1.656,-1.6207,-1.6465,-1.7358,-1.6996,-1.5595,0.0,0.0,0.0,0.0,0.0,0.0,0.0,0.0,0.0,0.0,0.0,0.0,0.0,0.0,0.0,0.0,0.0,0.0,0.0,0.0,0.0,0.0,0.0,0.0,0.0,0.0,0.0,0.0,0.0,0.0,0.0,0.0,0.0,0.0,0.0,0.0,0.0,0.0,0.0,0.0,0.0,0.0,0.0,0.0,0.0,0.0,0.0,0.0,0.0,0.0,0.0,0.0,0.0,0.0,0.0,0.0,0.0,0.0,0.0,0.0,0.0,0.0,0.0,0.0,0.0,0.0,0.0,0.0,0.0,0.0,0.0,0.0,0.0,0.0,0.0,0.0,0.0,0.0,0.0,0.0,0.0,0.0,0.0,0.0,0.0,0.0,0.0,0.0,0.0,0.0,0.0,0.0,0.0,0.0,0.0,0.0,0.0,0.0,0.0,0.0,0.0,0.0,0.0,0.0,0.0,0.0,0.0,-1.3816,-1.518,-1.6956,-1.6547,-1.6836,-1.7889,-1.7622,-1.6247,0.0,0.0,0.0,0.0,0.0,0.0,0.0,0.0,0.0,0.0,0.0,0.0,0.0,0.0,0.0,0.0,0.0,0.0,0.0,0.0,0.0,0.0,0.0,0.0,0.0,0.0,0.0,0.0,0.0,0.0,0.0,0.0,0.0,0.0,0.0,0.0,0.0,0.0,0.0,-1.1269,-1.1495,0.0,0.0,0.0,0.0,0.0,0.0,0.0,0.0,-1.1879,0.0,0.0,0.0,0.0,0.0,0.0,0.0,0.0,0.0,0.0,0.0,0.0,0.0,0.0,0.0,0.0,0.0,0.0,0.0,0.0,0.0,0.0,0.0,0.0,0.0,0.0,0.0,0.0,0.0,0.0,0.0,0.0,0.0,0.0,0.0,0.0,0.0,0.0,0.0,0.0,0.0,0.0,0.0,0.0,0.0,0.0,0.0,0.0,0.0,0.0,0.0,0.0,0.0,0.0,0.0,0.0,-1.2922,-1.3821,-1.5175,-1.7059,-1.738,-1.7861,-1.8487,-1.7669,-1.6192,-1.4538,0.0,0.0,0.0,0.0,0.0,0.0,0.0,0.0,0.0,0.0,0.0,0.0,0.0,0.0,0.0,0.0,0.0,0.0,0.0,0.0,0.0,0.0,0.0,0.0,0.0,0.0,0.0,0.0,0.0,0.0,0.0,0.0,0.0,0.0,0.0,0.0,0.0,0.0,0.0,-1.1999,-1.2054,0.0,0.0,0.0,0.0,0.0,0.0,0.0,0.0,-1.2192,0.0,0.0,0.0,0.0,0.0,0.0,0.0,0.0,0.0,0.0,0.0,0.0,0.0,0.0,0.0,0.0,0.0,0.0,0.0,0.0,0.0,0.0,0.0,0.0,0.0,0.0,0.0,0.0,0.0,0.0,0.0,0.0,0.0,0.0,0.0,0.0,0.0,0.0,0.0,0.0,0.0,0.0,0.0,0.0,0.0,0.0,0.0,0.0,0.0,0.0,0.0,0.0,0.0,0.0,0.0,-1.2998,-1.4012,-1.525,-1.6948,-1.7566,-1.8323,-1.9227,-1.7751,-1.6247,0.0,0.0,0.0,0.0,0.0,0.0,0.0,0.0,0.0,0.0,0.0,0.0,0.0,0.0,0.0,0.0,0.0,0.0,0.0,0.0,0.0,0.0,0.0,0.0,0.0,0.0,0.0,0.0,0.0,0.0,0.0,0.0,0.0,0.0,0.0,0.0,0.0,0.0,0.0,0.0,-1.2474,-1.2637,-1.2929,0.0,0.0,0.0,0.0,0.0,0.0,-1.234,-1.2519,0.0,0.0,0.0,0.0,0.0,0.0,0.0,0.0,0.0,0.0,0.0,0.0,0.0,0.0,0.0,0.0,0.0,0.0,0.0,0.0,0.0,0.0,0.0,0.0,0.0,0.0,0.0,0.0,0.0,0.0,0.0,0.0,0.0,0.0,0.0,0.0,0.0,0.0,0.0,0.0,0.0,0.0,0.0,0.0,0.0,0.0,0.0,0.0,0.0,0.0,0.0,0.0,0.0,0.0,0.0,-1.3222,-1.4183,-1.5492,-1.7168,-1.7703,-1.851,-1.9388,-1.795,-1.6614,0.0,0.0,0.0,0.0,0.0,0.0,0.0,0.0,0.0,0.0,0.0,0.0,0.0,0.0,0.0,0.0,0.0,0.0,0.0,0.0,0.0,0.0,0.0,0.0,0.0,0.0,0.0,0.0,0.0,0.0,0.0,0.0,0.0,0.0,0.0,0.0,0.0,0.0,0.0,0.0,0.0,-1.3214,-1.3532,-1.32,0.0,0.0,0.0,0.0,-1.2387,-1.2977,0.0,0.0,0.0,0.0,0.0,0.0,0.0,0.0,0.0,0.0,0.0,0.0,0.0,0.0,0.0,0.0,0.0,0.0,0.0,0.0,0.0,0.0,0.0,0.0,0.0,0.0,0.0,0.0,0.0,0.0,0.0,0.0,0.0,0.0,0.0,0.0,0.0,0.0,0.0,0.0,0.0,0.0,0.0,0.0,0.0,0.0,0.0,0.0,0.0,0.0,0.0,0.0,0.0,0.0,0.0,0.0,-1.3735,-1.4323,-1.579,-1.7615,-1.8354,-1.867,-1.8774,-1.7895,-1.6781,0.0,0.0,0.0,0.0,0.0,0.0,0.0,0.0,0.0,0.0,0.0,0.0,0.0,0.0,0.0,0.0,0.0,0.0,0.0,0.0,0.0,0.0,0.0,0.0,0.0,0.0,0.0,0.0,0.0,0.0,0.0,0.0,0.0,0.0,0.0,0.0,0.0,0.0,0.0,0.0,0.0,-1.3709,-1.4136,-1.381,-1.3464,0.0,0.0,0.0,-1.3258,-1.3839,0.0,0.0,0.0,0.0,0.0,0.0,0.0,0.0,0.0,0.0,0.0,0.0,0.0,0.0,0.0,0.0,0.0,0.0,0.0,0.0,0.0,0.0,0.0,0.0,0.0,0.0,0.0,0.0,0.0,0.0,0.0,0.0,0.0,0.0,0.0,0.0,0.0,0.0,0.0,0.0,0.0,0.0,0.0,0.0,0.0,0.0,0.0,0.0,0.0,0.0,0.0,0.0,0.0,0.0,0.0,-1.3715,-1.4135,-1.4904,-1.6225,-1.8397,-1.834,-1.8541,-1.9262,-1.8295,-1.7315,0.0,0.0,0.0,0.0,0.0,0.0,0.0,0.0,0.0,0.0,0.0,0.0,0.0,0.0,0.0,0.0,0.0,0.0,0.0,0.0,0.0,0.0,0.0,0.0,0.0,0.0,0.0,0.0,0.0,0.0,0.0,0.0,0.0,0.0,0.0,0.0,0.0,0.0,0.0,0.0,0.0,0.0,-1.4502,-1.4387,0.0,0.0,0.0,-1.2771,-1.3343,0.0,0.0,0.0,0.0,0.0,0.0,0.0,0.0,0.0,0.0,0.0,0.0,0.0,0.0,0.0,0.0,0.0,0.0,0.0,0.0,0.0,0.0,0.0,0.0,0.0,0.0,0.0,0.0,0.0,0.0,0.0,0.0,0.0,0.0,0.0,0.0,0.0,0.0,0.0,0.0,0.0,0.0,0.0,0.0,0.0,0.0,0.0,0.0,0.0,0.0,0.0,0.0,0.0,0.0,0.0,0.0,0.0,-1.4367,-1.5081,-1.6632,-1.8499,-1.8382,-1.8658,-1.9557,-1.8867,0.0,0.0,0.0,0.0,0.0,0.0,0.0,0.0,0.0,0.0,0.0,0.0,0.0,0.0,0.0,0.0,0.0,0.0,0.0,0.0,0.0,0.0,0.0,0.0,0.0,0.0,0.0,-1.0168,0.0,0.0,0.0,0.0,0.0,0.0,0.0,0.0,0.0,0.0,0.0,0.0,0.0,0.0,-1.4448,-1.4848,-1.4909,-1.4936,0.0,0.0,-1.3257,-1.3739,-1.4867,-1.5319,0.0,0.0,0.0,0.0,0.0,0.0,0.0,0.0,0.0,0.0,0.0,0.0,0.0,0.0,0.0,0.0,0.0,0.0,0.0,0.0,0.0,0.0,0.0,0.0,0.0,0.0,0.0,0.0,0.0,0.0,0.0,0.0,0.0,0.0,0.0,0.0,0.0,0.0,0.0,0.0,0.0,0.0,0.0,0.0,0.0,0.0,0.0,0.0,0.0,0.0,0.0,0.0,0.0,0.0,0.0,-1.4336,-1.5218,-1.6306,-1.7854,-1.8371,-1.8823,-1.9183,-1.9676,-1.8821,0.0,0.0,0.0,0.0,0.0,0.0,0.0,0.0,0.0,0.0,0.0,0.0,0.0,0.0,0.0,0.0,0.0,0.0,0.0,0.0,0.0,0.0,0.0,0.0,0.0,0.0,0.0,0.0,0.0,0.0,0.0,0.0,0.0,0.0,0.0,0.0,0.0,0.0,0.0,0.0,0.0,-1.4557,-1.5269,-1.5364,-1.5466,0.0,0.0,-1.4013,-1.4917,-1.5655,-1.5806,-1.4771,0.0,0.0,0.0,0.0,0.0,0.0,0.0,0.0,0.0,0.0,0.0,0.0,0.0,0.0,0.0,0.0,0.0,0.0,0.0,0.0,0.0,0.0,0.0,0.0,0.0,0.0,0.0,0.0,0.0,0.0,0.0,0.0,0.0,0.0,0.0,0.0,0.0,0.0,0.0,0.0,0.0,0.0,0.0,0.0,0.0,0.0,0.0,0.0,0.0,0.0,0.0,0.0,0.0,-1.4156,-1.4529,-1.5414,-1.6545,-1.8002,-1.8663,-1.898,-1.9596,-1.9882,-1.9302,0.0,0.0,0.0,0.0,0.0,0.0,0.0,0.0,0.0,0.0,0.0,0.0,0.0,0.0,0.0,0.0,0.0,0.0,0.0,0.0,0.0,0.0,0.0,0.0,0.0,0.0,0.0,0.0,-1.1816,-1.1918,-1.1837,0.0,0.0,0.0,0.0,0.0,0.0,0.0,0.0,0.0,0.0,-1.4841,-1.5581,-1.5845,0.0,0.0,-1.5273,-1.4877,-1.5274,-1.5562,-1.5499,-1.4833,-1.3974,0.0,0.0,0.0,0.0,0.0,0.0,0.0,0.0,0.0,0.0,0.0,0.0,0.0,0.0,0.0,0.0,0.0,0.0,0.0,0.0,0.0,0.0,0.0,0.0,0.0,0.0,0.0,0.0,0.0,0.0,0.0,0.0,0.0,0.0,0.0,0.0,0.0,0.0,0.0,0.0,0.0,0.0,0.0,0.0,0.0,0.0,0.0,0.0,0.0,0.0,0.0,0.0,-1.4441,-1.4833,-1.5771,-1.6736,-1.8241,-1.8797,-1.9365,-1.9888,-2.0035,-1.9605,0.0,0.0,0.0,0.0,0.0,0.0,0.0,0.0,0.0,0.0,0.0,0.0,0.0,0.0,0.0,0.0,0.0,0.0,0.0,0.0,0.0,0.0,0.0,0.0,0.0,0.0,0.0,0.0,-1.221,-1.2216,-1.187,0.0,0.0,0.0,0.0,0.0,0.0,0.0,0.0,0.0,0.0,-1.5106,-1.5757,-1.6117,-1.6327,-1.6381,-1.585,-1.5625,-1.6029,-1.5655,-1.5241,-1.5007,0.0,0.0,0.0,0.0,0.0,0.0,0.0,0.0,0.0,0.0,0.0,0.0,0.0,0.0,0.0,0.0,0.0,0.0,0.0,0.0,0.0,0.0,0.0,0.0,0.0,0.0,0.0,0.0,0.0,0.0,0.0,0.0,0.0,0.0,0.0,0.0,0.0,0.0,0.0,0.0,0.0,0.0,0.0,0.0,0.0,0.0,0.0,0.0,0.0,0.0,0.0,0.0,0.0,0.0,-1.5156,-1.5883,-1.6641,-1.7921,-1.9029,-1.9796,-2.0112,-2.021,-2.0053,-1.8932,0.0,0.0,0.0,0.0,0.0,0.0,0.0,0.0,0.0,0.0,0.0,0.0,0.0,0.0,0.0,0.0,0.0,0.0,0.0,0.0,0.0,0.0,0.0,0.0,0.0,0.0,-1.1843,-1.223,-1.2318,0.0,0.0,0.0,0.0,0.0,0.0,0.0,0.0,0.0,0.0,-1.4882,-1.533,-1.5784,-1.611,-1.6259,-1.6144,-1.6383,-1.6572,-1.6869,-1.5432,-1.4538,0.0,0.0,0.0,0.0,0.0,0.0,0.0,0.0,0.0,0.0,0.0,0.0,0.0,0.0,0.0,0.0,0.0,0.0,0.0,0.0,0.0,0.0,0.0,0.0,0.0,0.0,0.0,0.0,-0.878,0.0,0.0,0.0,0.0,0.0,0.0,0.0,0.0,0.0,0.0,0.0,-1.3464,-1.3125,0.0,0.0,0.0,0.0,0.0,0.0,0.0,0.0,0.0,0.0,0.0,0.0,-1.4475,-1.521,-1.6201,-1.7046,-1.8001,-1.9275,-2.0026,-2.0185,-2.0471,-1.9998,-1.8274,0.0,0.0,0.0,0.0,0.0,0.0,0.0,0.0,0.0,0.0,0.0,0.0,0.0,0.0,0.0,0.0,0.0,0.0,0.0,0.0,0.0,0.0,0.0,0.0,0.0,-1.2168,0.0,0.0,0.0,0.0,0.0,0.0,0.0,0.0,0.0,0.0,0.0,-1.3465,-1.4344,-1.4579,-1.5011,-1.575,-1.594,-1.6198,0.0,0.0,0.0,0.0,0.0,0.0,0.0,0.0,0.0,0.0,0.0,0.0,0.0,0.0,-1.2915,-1.2569,-1.2745,-1.3012,-1.2786,0.0,0.0,0.0,0.0,0.0,0.0,0.0,0.0,0.0,0.0,0.0,0.0,0.0,0.0,0.0,0.0,-0.9756,0.0,0.0,0.0,0.0,0.0,0.0,0.0,0.0,-1.3709,-1.4,-1.4231,-1.4048,-1.4001,0.0,-1.4048,-1.3559,0.0,0.0,0.0,0.0,0.0,0.0,0.0,0.0,-1.4477,-1.5276,-1.6445,-1.526,-1.201,-1.2583,-1.5537,-2.019,-2.0793,-2.0038,-1.845,-1.7304,-1.6103,0.0,0.0,0.0,0.0,0.0,0.0,0.0,0.0,0.0,0.0,0.0,0.0,0.0,0.0,0.0,0.0,0.0,0.0,0.0,0.0,0.0,0.0,0.0,-1.2332,0.0,0.0,0.0,0.0,0.0,0.0,0.0,0.0,0.0,-1.2539,-1.2931,-1.3507,-1.4297,-1.4706,-1.5201,-1.5567,0.0,0.0,0.0,0.0,0.0,0.0,0.0,-1.4858,-1.4532,-1.4785,-1.5025,-1.5139,-1.4434,-1.4021,-1.4014,0.0,0.0,-1.3234,-1.3363,-1.3466,-1.339,-1.3403,-1.3417,-1.3471,-1.3485,-1.3471,0.0,0.0,0.0,0.0,0.0,0.0,0.0,0.0,-0.9113,-0.8596,0.0,-0.9062,0.0,0.0,0.0,0.0,0.0,0.0,0.0,0.0,-1.4828,-1.512,-1.4991,-1.4798,-1.4997,-1.5176,-1.5222,-1.5251,-1.5068,-1.4009,0.0,0.0,0.0,0.0,0.0,0.0,-1.4369,-1.5152,-1.5984,-1.1269,0.0,0.0,-0.6657,-1.9339,-2.0633,-2.0397,-1.9461,-1.8416,-1.7324,-1.6144,-1.4504,0.0,0.0,0.0,0.0,0.0,0.0,0.0,0.0,0.0,0.0,0.0,0.0,0.0,0.0,0.0,0.0,0.0,0.0,0.0,0.0,-1.2733,0.0,0.0,0.0,0.0,0.0,0.0,0.0,0.0,0.0,0.0,-1.404,-1.4066,-1.3858,-1.3892,0.0,0.0,0.0,0.0,-1.6429,-1.5642,-1.6259,-1.6407,-1.512,-1.5828,-1.6539,-1.6474,0.0,0.0,-1.5506,-1.5079,-1.4794,-1.478,-1.4903,-1.4774,-1.4068,-1.3919,-1.3899,-1.3912,-1.3933,-1.3953,-1.4089,-1.4163,-1.419,0.0,0.0,0.0,0.0,0.0,-0.8995,-0.9316,-0.6865,-0.9286,-0.9078,-0.7352,-1.1204,0.0,0.0,0.0,0.0,0.0,0.0,-1.4992,-1.4726,-1.5153,-1.5377,-1.5452,-1.5355,-1.5401,-1.5794,-1.5753,-1.5712,-1.5459,-1.4871,-1.4049,-1.303,0.0,0.0,0.0,0.0,-1.3755,-1.377,-1.1938,-0.7308,0.0,0.0,-0.2004,-0.5935,-1.5571,-2.0478,-1.9921,-1.8803,-1.784,-1.6761,-1.5801,0.0,0.0,0.0,0.0,0.0,0.0,0.0,0.0,0.0,0.0,0.0,0.0,0.0,0.0,0.0,0.0,0.0,0.0,0.0,-1.3092,-1.3269,-1.2963,0.0,0.0,0.0,0.0,0.0,0.0,0.0,0.0,0.0,-1.3657,-1.4242,-1.471,0.0,0.0,-1.5384,-1.5628,-1.6015,-1.6408,-1.6788,0.0,0.0,0.0,-1.69,-1.7312,-1.7458,-1.7024,-1.6529,-1.609,-1.5947,-1.5825,-1.5716,-1.573,-1.5683,-1.5479,-1.5086,-1.4855,-1.493,-1.4957,-1.5011,-1.5153,-1.5194,-1.5228,0.0,-0.0,-0.1098,-0.3962,-0.8117,-1.3114,-1.3291,-1.0119,-1.1962,-1.2091,-1.0756,-1.3505,-1.4482,-1.4298,-1.3599,0.0,0.0,0.0,-1.5874,-1.5513,-1.5683,-1.5845,-1.5988,-1.587,-1.5944,-1.6205,-1.635,-1.6323,-1.5911,-1.5736,-1.5254,-1.4477,0.0,0.0,-1.2782,-1.0973,-1.1073,-1.2497,-1.2171,-0.8111,0.0,0.0,0.0,0.0,-1.0898,-1.7732,-2.01,-1.9223,-1.8437,-1.746,-1.6898,-1.6039,0.0,0.0,0.0,0.0,0.0,0.0,0.0,0.0,0.0,0.0,0.0,-1.1809,0.0,0.0,0.0,0.0,-1.2256,-1.3132,-1.3721,-1.3569,0.0,0.0,0.0,0.0,0.0,0.0,0.0,-1.2991,-1.3436,-1.3842,-1.3738,-1.4977,-1.5824,-1.554,-1.5615,-1.5852,-1.6083,0.0,-1.6917,-1.7283,-1.6584,-1.6315,-1.725,-1.7635,-1.791,-1.8038,-1.7482,-1.7106,-1.67,-1.6571,-1.6456,-1.6368,-1.63,-1.6259,-1.6252,-1.5954,-1.5689,-1.5683,-1.5676,-1.573,-1.5872,-1.5906,-1.5947,0.0,0.0,0.0,-0.5413,-1.4061,-1.6057,-1.6508,-1.5805,-1.6362,-1.6447,-1.6145,-1.552,-1.4871,-1.4448,-1.4497,0.0,0.0,-1.64,-1.6391,-1.6327,-1.6341,-1.6408,-1.6524,-1.6333,-1.642,-1.6761,-1.6852,-1.6988,-1.6537,-1.635,-1.6342,-1.6321,-1.3397,-1.2205,-1.2311,-0.7495,-0.7202,-1.2006,-1.5347,-1.1533,0.0,0.0,0.0,0.0,-0.6774,-1.3438,-1.9783,-1.963,-1.9027,-1.8158,-1.7725,-1.7031,-1.611,0.0,0.0,0.0,0.0,0.0,0.0,0.0,0.0,0.0,0.0,0.0,0.0,0.0,0.0,0.0,-1.3756,0.0,-1.4507,-1.3961,0.0,0.0,0.0,-1.3498,-1.4061,-1.4163,-1.4115,-1.437,0.0,0.0,0.0,0.0,-1.6846,-1.6557,-1.6845,-1.687,-1.6625,-1.7324,-1.7745,-1.7385,-1.7331,-1.717,-1.7616,-1.8323,-1.8517,-1.8246,-1.786,-1.7534,-1.7263,-1.6998,-1.6822,-1.6802,-1.6686,-1.6605,-1.6598,-1.6592,-1.651,-1.6252,-1.6164,-1.6178,-1.63,-1.6347,-1.6408,0.0,0.0,0.0,-0.1447,-0.4432,-1.3156,-1.6848,-1.6647,-1.6591,-1.6529,-1.6316,-1.5988,-1.575,-1.5629,-1.5698,-1.5856,-1.6475,-1.6644,-1.6647,-1.6469,-1.6592,-1.6605,-1.6537,-1.6761,-1.689,-1.6931,-1.7433,-1.7405,-1.687,-1.6768,-1.6598,-1.6381,-1.6029,-1.3042,-0.7605,-0.5494,-0.8206,-1.5705,-1.6511,-1.1453,0.0,0.0,0.0,0.0,-0.6799,-1.3509,-1.9852,-1.9759,-1.9115,-1.845,-1.7909,-1.7552,-1.675,-1.5993,0.0,0.0,0.0,0.0,0.0,0.0,0.0,0.0,0.0,-1.2325,-1.2291,0.0,-1.3816,0.0,-1.4157,-1.5389,-1.5306,-1.5011,0.0,0.0,-1.4258,-1.4299,-1.4557,-1.4984,-1.5053,-1.5006,-1.5334,-1.5832,-1.6227,-1.682,-1.7348,-1.7236,-1.6931,-1.6897,-1.7168,-1.7772,-1.8179,-1.8097,-1.8081,-1.8295,-1.843,-1.8658,-1.863,-1.8287,-1.8016,-1.7751,-1.7575,-1.7392,-1.7263,-1.7256,-1.7236,-1.7209,-1.7188,-1.7209,-1.7182,-1.7093,-1.6836,-1.6598,-1.6639,-1.6734,-1.6863,0.0,0.0,0.0,0.0,-0.084,-1.2142,-1.6962,-1.6948,-1.6795,-1.6714,-1.6742,-1.6563,-1.6564,-1.6567,-1.6494,-1.6647,-1.6793,-1.6891,-1.6831,-1.6822,-1.691,-1.6937,-1.6931,-1.6882,-1.6996,-1.7277,-1.7732,-1.7732,-1.7483,-1.708,-1.6924,-1.6822,-1.6924,-1.3708,-0.7104,-0.4008,-0.4757,-0.944,-0.9376,-0.6331,0.0,0.0,0.0,0.0,-0.4622,-1.0908,-1.8215,-1.7938,-1.7633,-1.7517,-1.7864,-1.7883,-1.7163,-1.6823,-1.5323,0.0,0.0,0.0,0.0,0.0,0.0,0.0,0.0,0.0,0.0,0.0,-1.4312,0.0,-1.4865,0.0,-1.6378,-1.5716,-1.5262,-1.5215,-1.5147,-1.5221,-1.5499,-1.5825,-1.5797,-1.5716,-1.5978,-1.6435,-1.7009,-1.7162,-1.7426,-1.7683,-1.7426,-1.746,-1.7792,-1.828,-1.862,-1.8633,-1.883,-1.8724,-1.8877,-1.8796,-1.8687,-1.8525,-1.8267,-1.8016,-1.7874,-1.7663,-1.7521,-1.7521,-1.7467,-1.7419,-1.7419,-1.7419,-1.7419,-1.7392,-1.7283,-1.7141,-1.706,-1.7114,-1.7222,0.0,0.0,0.0,0.0,0.0,-1.0742,-1.5211,-1.5854,-1.5817,-1.6354,-1.7051,-1.7085,-1.6939,-1.7031,-1.6946,-1.7078,-1.6996,-1.6996,-1.7133,-1.7161,-1.7168,-1.7249,-1.7392,-1.719,-1.7284,-1.767,-1.7765,-1.7989,-1.7889,-1.7463,-1.7107,-1.7003,-1.6942,-1.4602,-0.9517,-0.3274,0.0,0.0,0.0,0.0,0.0,0.0,0.0,0.0,-0.2251,-0.735,-1.5232,-1.5572,-1.5832,-1.6434,-1.7587,-1.7793,-1.7239,-1.6822,-1.5535,0.0,-1.3108,0.0,0.0,0.0,0.0,0.0,0.0,0.0,0.0,-1.4292,-1.4403,-1.4447,-1.5876,-1.6774,-1.7426,-1.6307,-1.5798,-1.6164,-1.6069,-1.6123,-1.6497,-1.6571,-1.6578,-1.6578,-1.652,-1.6674,-1.7012,-1.7161,-1.758,-1.7841,-1.7894,-1.8097,-1.8308,-1.8694,-1.8986,-1.9,-1.9006,-1.9027,-1.9255,-1.9,-1.8918,-1.8762,-1.8518,-1.8301,-1.8138,-1.7894,-1.7711,-1.7697,-1.7595,-1.7494,-1.7473,-1.7487,-1.7487,-1.75,-1.7595,-1.7629,-1.7507,-1.75,-1.7561,0.0,0.0,0.0,0.0,0.0,-0.2354,-0.5747,-1.02,-1.0196,-1.2736,-1.6985,-1.6924,-1.7092,-1.7071,-1.7092,-1.6917,-1.6937,-1.6937,-1.6965,-1.7019,-1.7019,-1.7093,-1.7236,-1.7365,-1.7561,-1.7812,-1.7792,-1.8019,-1.7819,-1.7717,-1.7372,-1.6988,-1.6902,-1.6391,0.0,0.0,0.0,0.0,0.0,0.0,0.0,0.0,0.0,0.0,-0.3204,0.0,-0.9954,-1.3568,-1.5694,-1.6039,-1.6835,0.0,0.0,0.0,0.0,0.0,0.0,0.0,0.0,0.0,0.0,0.0,-1.4536,-1.4529,-1.4299,-1.4531,-1.4959,-1.5691,-1.6637,-1.7298,-1.7348,-1.7023,-1.6883,-1.6958,-1.6741,-1.6619,-1.67,-1.6815,-1.689,-1.6465,-1.669,-1.6862,-1.711,-1.7467,-1.7806,-1.7889,-1.8016,-1.8267,-1.8314,-1.8796,-1.9101,-1.9027,-1.9101,-1.9162,-1.965,-1.9317,-1.8966,-1.8782,-1.862,-1.8443,-1.8301,-1.8138,-1.8009,-1.7996,-1.788,-1.7772,-1.7779,-1.7779,-1.7765,-1.7779,-1.7901,-1.7962,-1.7812,-1.788,-1.8009,0.0,0.0,0.0,0.0,0.0,0.0,-0.1714,-0.4278,-0.4278,-0.8986,-1.6956,-1.6922,-1.7066,-1.6978,-1.6978,-1.6978,-1.6978,-1.6978,-1.7019,-1.7087,-1.7161,-1.7277,-1.7426,-1.7643,-1.7826,-1.7975,-1.8204,-1.8204,-1.7962,-1.7902,-1.7765,-1.712,-1.4277,-1.2832,-1.2563,-0.4328,0.0,0.0,0.0,0.0,0.0,0.0,0.0,0.0,0.0,0.0,0.0,0.0,0.0,0.0,0.0,0.0,0.0,0.0,0.0,-1.5649,-1.5941,-1.6119,-1.6047,-1.5667,-1.5432,-1.5506,-1.5716,-1.5428,-1.4532,-1.5015,-1.5645,-1.6495,-1.7064,-1.7412,-1.7711,-1.7525,-1.7338,-1.7392,-1.7216,-1.708,-1.7087,-1.7148,-1.7195,-1.6989,-1.7103,-1.7224,-1.7521,-1.7602,-1.7902,-1.7985,-1.8077,-1.8321,-1.8369,-1.8823,-1.9183,-1.921,-1.9332,-1.94,-1.9578,-1.9509,-1.9156,-1.9,-1.8796,-1.8606,-1.845,-1.8301,-1.8206,-1.8192,-1.8077,-1.7975,-1.7968,-1.7914,-1.7887,-1.7962,-1.8036,-1.8131,-1.8158,-1.8199,-1.8247,0.0,0.0,0.0,0.0,0.0,0.0,0.0,0.0,0.0,0.0,0.0,-1.6194,-1.6956,-1.7026,-1.6998,-1.6978,-1.6978,-1.6978,-1.7039,-1.6942,-1.7311,-1.746,-1.7616,-1.7659,-1.7833,-1.8131,-1.8545,-1.8545,-1.79,-1.7826,-1.7711,-1.7099,-1.2492,-0.9191,-0.6773,-0.2325,0.0,0.0,0.0,0.0,0.0,0.0,0.0,0.0,0.0,-0.4202,-1.2659,-1.2812,-1.4149,-1.6843,-1.6724,-1.6181,-1.5666,-1.6639,-1.7156,-1.7048,-1.699,-1.7019,-1.7106,-1.662,-1.6381,-1.6625,-1.6754,-1.6379,-1.503,-1.5673,-1.6452,-1.7012,-1.7394,-1.76,-1.7847,-1.7568,-1.7548,-1.767,-1.7548,-1.7453,-1.746,-1.746,-1.7453,-1.746,-1.7487,-1.7548,-1.7889,-1.7916,-1.795,-1.7874,-1.8124,-1.8382,-1.8511,-1.8905,-1.9271,-1.9674,-1.9556,-1.9603,-1.9756,-1.9434,-1.9379,-1.9244,-1.8993,-1.8762,-1.8633,-1.847,-1.8369,-1.8362,-1.8233,-1.8145,-1.8124,-1.8043,-1.7996,-1.8104,-1.8158,-1.824,-1.845,-1.8464,-1.8443,0.0,0.0,0.0,0.0,0.0,0.0,0.0,0.0,0.0,0.0,-0.3043,-1.2736,-1.7029,-1.6989,-1.7053,-1.6978,-1.6978,-1.6978,-1.6992,0.0,-1.7154,-1.7304,-1.746,-1.7411,-1.7686,-1.8253,-1.8524,-1.8552,-1.8267,-1.7941,-1.7907,-1.7696,-1.6964,-1.1393,-0.1868,-0.0473,0.0,0.0,0.0,0.0,0.0,0.0,0.0,0.0,0.0,-0.3432,-1.0337,-1.3645,-1.5705,-1.6664,-1.7505,-1.7724,-1.7226,-1.7525,-1.7593,-1.7116,-1.7243,-1.7339,-1.744,-1.7236,-1.7053,-1.7093,-1.7121,-1.6978,-1.6247,-1.6289,-1.6915,-1.7614,-1.7864,-1.7827,-1.7882,-1.7957,-1.7792,-1.7812,-1.7704,-1.7616,-1.7616,-1.7616,-1.7616,-1.7398,-1.7724,-1.7792,-1.7812,-1.7826,-1.7826,-1.7901,-1.8131,-1.8491,-1.8911,-1.9142,-1.9318,-1.9556,-1.9644,-1.9651,-1.961,-1.9515,-1.9434,-1.9406,-1.9149,-1.8945,-1.8898,-1.8674,-1.8518,-1.8504,-1.8382,-1.8301,-1.828,-1.8274,-1.8247,-1.828,-1.8362,-1.847,-1.8552,-1.8626,-1.8708,0.0,0.0,0.0,0.0,0.0,0.0,0.0,0.0,0.0,0.0,0.0,-0.5676,-1.128,-1.6822,-1.6956,-1.7073,-1.6978,-1.6978,-1.7026,-1.7107,-1.7249,-1.7399,-1.7555,-1.7552,-1.7827,-1.8335,-1.8621,-1.8649,-1.7914,-1.1727,-0.8306,-0.8611,-1.4477,-1.1893,0.0,0.0,0.0,0.0,0.0,0.0,0.0,0.0,0.0,0.0,0.0,-0.3325,-1.0105,-1.5424,-1.8377,-1.8575,-1.8871,-1.8829,-1.847,-1.8356,-1.8101,-1.7545,-1.7629,-1.7703,-1.7767,-1.7532,-1.7351,-1.7433,-1.7514,-1.7317,-1.7034,-1.7008,-1.725,-1.7772,-1.7916,-1.7806,-1.7874,-1.7874,-1.786,-1.786,-1.7806,-1.7765,-1.7765,-1.7765,-1.7765,-1.7772,-1.7819,-1.786,-1.786,-1.786,-1.786,-1.7887,-1.8131,-1.8545,-1.9101,-1.9203,-1.9312,-1.959,-1.9664,-1.9664,-1.9657,-1.961,-1.9529,-1.9447,-1.925,-1.9088,-1.9006,-1.8789,-1.8681,-1.8647,-1.8538,-1.845,-1.843,-1.8369,-1.8362,-1.843,-1.8477,-1.8572,-1.8728,-1.8898,-1.8966,0.0,0.0,0.0,0.0,0.0,0.0,0.0,0.0,0.0,0.0,0.0,0.0,-0.5027,-1.2946,-1.5747,-1.6942,-1.6998,-1.6978,-1.706,-1.7415,-1.7351,-1.7507,-1.7677,-1.7713,-1.7927,-1.8088,-1.867,-1.8726,-1.7263,-0.6131,0.0,0.0,-0.9339,-0.9255,0.0,0.0,0.0,0.0,0.0,0.0,0.0,0.0,0.0,0.0,0.0,-0.3187,-0.9976,-1.6921,-2.0292,-2.0126,-1.982,-1.9488,-1.9351,-1.9008,-1.8658,-1.8091,-1.8088,-1.7909,-1.7989,-1.7772,-1.7623,-1.7738,-1.788,-1.7786,-1.7643,-1.7706,-1.7619,-1.7941,-1.7968,-1.8023,-1.8097,-1.8043,-1.7962,-1.7962,-1.7935,-1.7914,-1.7914,-1.7887,-1.786,-1.786,-1.786,-1.786,-1.786,-1.786,-1.7901,-1.8002,-1.8199,-1.8586,-1.9067,-1.9203,-1.9325,-1.9563,-1.9664,-1.9664,-1.9664,-1.9657,-1.961,-1.9488,-1.9318,-1.9176,-1.904,-1.8898,-1.8776,-1.8742,-1.8667,-1.8593,-1.8572,-1.8504,-1.8504,-1.862,-1.8667,-1.8735,-1.8972,-1.9135,-1.9196,0.0,0.0,0.0,0.0,0.0,0.0,0.0,0.0,0.0,0.0,0.0,0.0,0.0,-0.3037,-1.2516,-1.6949,-1.6992,-1.6978,-1.7066,-1.7429,-1.7351,-1.7521,-1.7498,-1.7874,-1.782,-1.7987,-1.8145,-1.7556,-1.7091,-0.5933,0.0,0.0,-0.1181,0.0,0.0,0.0,0.0,0.0,0.0,0.0,0.0,0.0,0.0,0.0,0.0,-0.3203,-0.9717,-1.6999,-2.0392,-2.0139,-1.9827,-1.9583,-1.9619,-1.9214,-1.8721,-1.8654,-1.8274,-1.7982,-1.7853,-1.7948,-1.803,-1.8057,-1.8186,-1.828,-1.8301,-1.8274,-1.8027,-1.8041,-1.8507,-1.85,-1.8301,-1.8274,-1.8247,-1.8226,-1.8138,-1.807,-1.8043,-1.7948,-1.786,-1.786,-1.786,-1.7867,-1.788,-1.7894,-1.7989,-1.8226,-1.8375,-1.8654,-1.9094,-1.9203,-1.9312,-1.9569,-1.9664,-1.9664,-1.9664,-1.9664,-1.9651,-1.961,-1.9393,-1.923,-1.9128,-1.8952,-1.8762,-1.8762,-1.8749,-1.8721,-1.8742,-1.8728,-1.8769,-1.8877,-1.8932,-1.8993,-1.9156,-1.9298,-1.9339,0.0,0.0,0.0,0.0,0.0,0.0,0.0,0.0,0.0,0.0,0.0,0.0,0.0,0.0,-1.197,-1.7096,-1.7066,-1.6929,-1.7049,-1.7197,-1.7337,-1.7498,-1.7659,-1.7941,-1.7853,-1.7098,-1.1095,0.0,-0.6893,0.0,0.0,0.0,0.0,0.0,0.0,0.0,0.0,0.0,0.0,0.0,0.0,0.0,0.0,0.0,0.0,-0.1065,-0.4994,-1.47,-2.0513,-2.02,-1.9997,-1.9773,-1.9695,-1.9413,-1.9186,-1.8769,-1.843,-1.8199,-1.8138,-1.8192,-1.8267,-1.8342,-1.8409,-1.8477,-1.8572,-1.8579,-1.8579,-1.8559,-1.8658,-1.8816,-1.8658,-1.8375,-1.8321,-1.8308,-1.826,-1.8192,-1.8097,-1.8036,-1.7968,-1.788,-1.786,-1.7907,-1.7989,-1.8077,-1.8219,-1.8403,-1.8504,-1.8715,-1.9115,-1.9203,-1.9332,-1.9583,-1.9664,-1.9664,-1.9664,-1.9664,-1.9664,-1.963,-1.9488,-1.9332,-1.9196,-1.9054,-1.8877,-1.8789,-1.8782,-1.8823,-1.8884,-1.8898,-1.8945,-1.9074,-1.921,-1.9271,-1.9325,-1.9461,-1.9481,0.0,0.0,0.0,0.0,0.0,0.0,0.0,0.0,0.0,0.0,0.0,0.0,0.0,0.0,-0.8777,-1.2413,-1.2244,-1.2297,-1.2389,-1.2491,-1.4129,-1.6047,-1.778,-1.78,-1.6055,-1.2051,-0.4309,0.0,0.0,0.0,0.0,0.0,0.0,0.0,0.0,0.0,0.0,0.0,0.0,0.0,0.0,0.0,0.0,0.0,0.0,0.0,0.0,-1.1303,-1.8465,-2.0207,-2.0126,-1.9922,-1.977,-1.9803,-1.9553,-1.9015,-1.8525,-1.8382,-1.8375,-1.8375,-1.8423,-1.8518,-1.8565,-1.864,-1.8735,-1.8762,-1.8762,-1.8742,-1.8802,-1.8733,-1.8795,-1.8733,-1.845,-1.8443,-1.8409,-1.8328,-1.8233,-1.8158,-1.805,-1.7948,-1.7935,-1.7982,-1.8362,-1.8507,-1.8416,-1.8498,-1.8572,-1.8728,-1.9094,-1.921,-1.9312,-1.9603,-1.9664,-1.9664,-1.9664,-1.9664,-1.9664,-1.963,-1.9522,-1.9386,-1.9271,-1.9149,-1.9047,-1.8972,-1.8905,-1.8905,-1.8771,-1.8811,-1.9101,-1.9237,-1.9366,-1.9468,-1.9495,-1.9576,-1.9508,0.0,0.0,0.0,0.0,0.0,0.0,0.0,0.0,0.0,0.0,0.0,0.0,0.0,0.0,0.0,0.0,0.0,0.0,0.0,0.0,-0.6609,-1.2006,-1.761,-1.784,-1.197,0.0,0.0,0.0,0.0,0.0,0.0,0.0,0.0,0.0,0.0,0.0,0.0,0.0,0.0,0.0,0.0,0.0,0.0,0.0,0.0,0.0,0.0,-0.7085,-1.3736,-1.9943,-2.0132,-1.9963,-1.9664,-1.9619,-1.9553,-1.9275,-1.8857,-1.8761,-1.8531,-1.8538,-1.8538,-1.8552,-1.8667,-1.8749,-1.8755,-1.8762,-1.8762,-1.8762,-1.8728,-1.8721,-1.8728,-1.8701,-1.8701,-1.8701,-1.8599,-1.8525,-1.8498,-1.8267,-1.8111,-1.786,-1.7867,-1.8158,-1.876,-1.8665,-1.8511,-1.8572,-1.866,-1.8857,-1.9108,-1.9203,-1.9339,-1.9563,-1.9664,-1.9664,-1.9664,-1.9664,-1.9664,-1.9644,-1.9563,-1.9434,-1.9379,-1.9305,-1.923,-1.9169,-1.9122,-1.9122,-1.8925,-1.8979,-1.9284,-1.9386,-1.9488,-1.9569,-1.9535,-1.9481,-1.94,0.0,0.0,0.0,0.0,0.0,0.0,0.0,0.0,0.0,0.0,0.0,0.0,0.0,0.0,0.0,0.0,0.0,0.0,0.0,0.0,-0.2223,-0.4246,-0.606,-0.6542,-0.4757,0.0,0.0,0.0,0.0,0.0,0.0,0.0,0.0,0.0,0.0,0.0,0.0,0.0,0.0,0.0,0.0,0.0,0.0,0.0,0.0,0.0,0.0,-0.6537,-1.3447,-2.0131,-2.0207,-2.001,-1.9786,-1.9413,-1.9122,-1.918,-1.9337,-1.9303,-1.883,-1.883,-1.8782,-1.8694,-1.8728,-1.8762,-1.8762,-1.8762,-1.8762,-1.8762,-1.8762,-1.8762,-1.8762,-1.8762,-1.8762,-1.8749,-1.8715,-1.8633,-1.8545,-1.843,-1.8335,-1.8048,-1.8308,-1.863,-1.8692,-1.8823,-1.8674,-1.8681,-1.8728,-1.8898,-1.9115,-1.9203,-1.9318,-1.9569,-1.9664,-1.9664,-1.9664,-1.9664,-1.9664,-1.9657,-1.9603,-1.9522,-1.9461,-1.9413,-1.9345,-1.9264,-1.925,-1.9284,-1.9073,-1.9173,-1.9474,-1.9495,-1.9596,-1.9535,-1.9515,-1.9386,-1.9244,0.0,0.0,0.0,0.0,0.0,0.0,0.0,0.0,0.0,0.0,0.0,0.0,0.0,0.0,0.0,0.0,0.0,0.0,0.0,0.0,0.0,0.0,0.0,0.0,0.0,0.0,0.0,0.0,0.0,0.0,0.0,0.0,0.0,0.0,0.0,0.0,0.0,0.0,0.0,0.0,0.0,0.0,0.0,0.0,0.0,0.0,0.0,-0.6523,-1.3438,-1.9204,-2.0241,-1.9963,-1.9671,-1.9173,-1.8965,-1.9081,-1.9497,-1.9497,-1.904,-1.8972,-1.8871,-1.8776,-1.8762,-1.8762,-1.8762,-1.8762,-1.8762,-1.8762,-1.8762,-1.8762,-1.8762,-1.8762,-1.8762,-1.8762,-1.8762,-1.8721,-1.862,-1.8613,-1.8322,-1.8262,-1.8538,-1.8829,-1.885,-1.8701,-1.8742,-1.8762,-1.8796,-1.8945,-1.9142,-1.9257,-1.9359,-1.9603,-1.9705,-1.9739,-1.9773,-1.9807,-1.9793,-1.978,-1.9698,-1.9617,-1.959,-1.9542,-1.9474,-1.9386,-1.9366,-1.9413,-1.9481,-1.9583,-1.9603,-1.959,-1.9529,-1.9461,-1.9366,-1.9237,-1.9115,0.0,0.0,0.0,0.0,0.0,0.0,0.0,0.0,0.0,0.0,0.0,0.0,0.0,0.0,0.0,0.0,0.0,0.0,0.0,0.0,0.0,0.0,0.0,0.0,0.0,0.0,0.0,0.0,0.0,0.0,0.0,0.0,0.0,0.0,0.0,0.0,0.0,0.0,0.0,0.0,0.0,0.0,0.0,0.0,0.0,0.0,0.0,-0.6518,-1.343,-1.947,-2.0241,-2.0072,-1.9633,-1.9099,-1.8867,-1.9217,-1.9324,-1.9324,-1.9156,-1.8972,-1.8864,-1.881,-1.8782,-1.8789,-1.8789,-1.8769,-1.8762,-1.8762,-1.8762,-1.8762,-1.8762,-1.8762,-1.8762,-1.8762,-1.8776,-1.8782,-1.8769,-1.8769,-1.8755,-1.851,-1.8523,-1.8762,-1.8755,-1.8755,-1.8762,-1.8782,-1.8877,-1.9013,-1.9176,-1.9305,-1.9474,-1.9644,-1.9759,-1.982,-1.9902,-1.9983,-1.9956,-1.9922,-1.9813,-1.9732,-1.9773,-1.9752,-1.9671,-1.959,-1.9529,-1.9563,-1.9481,-1.9563,-1.9501,-1.9474,-1.942,-1.9339,-1.9223,-1.9101,-1.9027,0.0,0.0,0.0,0.0,0.0,0.0,0.0,0.0,0.0,0.0,0.0,0.0,0.0,0.0,0.0,0.0,0.0,0.0,0.0,0.0,0.0,0.0,0.0,0.0,0.0,0.0,0.0,0.0,0.0,0.0,0.0,0.0,0.0,0.0,0.0,0.0,0.0,0.0,0.0,0.0,0.0,0.0,0.0,0.0,0.0,0.0,0.0,-0.6734,-1.3399,-2.0104,-2.0288,-1.9881,-1.9722,-1.9153,-1.9153,-1.9366,-1.9564,-1.955,-1.9339,-1.9271,-1.9156,-1.9074,-1.8979,-1.8925,-1.8898,-1.8823,-1.8769,-1.8762,-1.8762,-1.8762,-1.8762,-1.8762,-1.8762,-1.8762,-1.885,-1.8918,-1.8945,-1.9006,-1.9013,-1.8938,-1.8918,-1.8877,-1.8789,-1.8762,-1.8762,-1.8776,-1.8898,-1.9047,-1.9183,-1.9339,-1.9535,-1.9752,-1.9834,-1.9929,-2.0031,-2.0119,-2.0139,-2.0092,-1.9997,-1.9915,-1.9949,-1.9888,-1.9813,-1.9739,-1.9691,-1.9624,-1.9549,-1.9474,-1.9413,-1.9312,-1.9217,-1.9135,-1.9061,-1.8986,-1.8911,0.0,0.0,0.0,0.0,0.0,0.0,0.0,0.0,0.0,0.0,0.0,0.0,0.0,0.0,0.0,0.0,0.0,0.0,0.0,0.0,0.0,0.0,0.0,0.0,0.0,0.0,0.0,0.0,0.0,0.0,0.0,0.0,0.0,0.0,0.0,0.0,0.0,0.0,0.0,0.0,0.0,0.0,0.0,0.0,0.0,0.0,-0.3636,-0.8248,-1.3377,-1.9057,-2.0315,-1.9895,-1.9736,-1.9233,-1.9247,-1.9688,-1.9681,-1.9674,-1.9427,-1.9359,-1.9312,-1.9203,-1.9122,-1.904,-1.8751,-1.8884,-1.8837,-1.8769,-1.8762,-1.8762,-1.8762,-1.8762,-1.8782,-1.8843,-1.8925,-1.9033,-1.9128,-1.923,-1.921,-1.9115,-1.9067,-1.8966,-1.8823,-1.8762,-1.8762,-1.8782,-1.8938,-1.9081,-1.9223,-1.9386,-1.9624,-1.982,-1.9929,-2.0037,-2.0166,-2.0248,-2.0315,-2.0268,-2.0193,-2.0146,-2.0139,-1.9963,-1.9841,-1.9712,-1.9637,-1.9549,-1.9468,-1.9133,-1.9052,-1.8918,-1.904,-1.8993,-1.8945,-1.8871,-1.8803,0.0,0.0,0.0,0.0,0.0,0.0,0.0,0.0,0.0,0.0,0.0,0.0,0.0,0.0,0.0,0.0,0.0,0.0,0.0,0.0,0.0,0.0,0.0,0.0,0.0,0.0,0.0,0.0,0.0,0.0,0.0,0.0,0.0,0.0,0.0,0.0,0.0,0.0,0.0,0.0,0.0,0.0,0.0,0.0,0.0,-0.284,-0.8531,-1.108,-1.4401,-1.9567,-2.0275,-1.9908,-1.9818,-1.959,-1.9583,-1.9722,-1.9695,-1.9701,-1.942,-1.9373,-1.9284,-1.9284,-1.9237,-1.9162,-1.8831,-1.8784,-1.8717,-1.885,-1.883,-1.8816,-1.8816,-1.8823,-1.8884,-1.8993,-1.9061,-1.9176,-1.9393,-1.92,-1.9373,-1.9502,-1.9196,-1.8851,-1.883,-1.8782,-1.8762,-1.881,-1.9,-1.9156,-1.9257,-1.9434,-1.9698,-1.9875,-2.0024,-2.0173,-2.0309,-2.037,-2.0424,-2.0397,-2.0349,-2.0322,-2.0261,-2.0071,-1.9847,-1.9719,-1.9569,-1.9481,-1.9359,-1.9006,-1.8892,-1.9006,-1.8925,-1.8884,-1.8843,-1.8782,-1.8762,0.0,0.0,0.0,0.0,0.0,0.0,0.0,0.0,0.0,0.0,0.0,0.0,0.0,0.0,0.0,0.0,0.0,0.0,0.0,0.0,0.0,0.0,0.0,0.0,0.0,0.0,0.0,0.0,0.0,0.0,0.0,0.0,0.0,0.0,0.0,0.0,0.0,0.0,0.0,0.0,0.0,0.0,0.0,0.0,0.0,0.0,-1.0085,-1.5238,-1.8194,-1.976,-2.0173,-1.9956,-1.9644,-1.9637,-1.9637,-1.9603,-1.9596,-1.9596,-1.959,-1.9556,-1.9535,-1.9529,-1.9427,-1.9359,-1.9318,-1.8965,-1.8892,-1.8838,-1.8845,-1.8831,-1.9074,-1.9081,-1.9156,-1.9284,-1.9298,-1.9379,-1.9535,-1.9596,-1.9542,-1.9647,-1.9271,-1.8872,-1.8724,-1.8823,-1.8769,-1.8816,-1.9,-1.9217,-1.9298,-1.9549,-1.9834,-2.001,-2.0166,-2.0315,-2.0431,-2.0492,-2.0526,-2.0512,-2.0485,-2.0465,-2.0363,-2.02,-1.9949,-1.9732,-1.9522,-1.94,-1.921,-1.9054,-1.8938,-1.8864,-1.8837,-1.881,-1.8796,-1.8762,-1.8762,0.0,0.0,0.0,0.0,0.0,0.0,0.0,0.0,0.0,0.0,0.0,0.0,0.0,0.0,0.0,0.0,0.0,0.0,0.0,0.0,0.0,0.0,0.0,0.0,0.0,0.0,0.0,0.0,0.0,0.0,0.0,0.0,0.0,0.0,0.0,0.0,0.0,0.0,0.0,0.0,0.0,0.0,0.0,0.0,0.0,-0.3355,-1.0068,-1.675,-2.0191,-2.018,-2.0085,-1.9963,-1.9705,-1.9664,-1.9664,-1.9664,-1.9664,-1.9664,-1.9664,-1.9664,-1.9664,-1.9651,-1.9569,-1.9501,-1.9434,-1.9339,-1.9046,-1.8959,-1.9196,-1.9203,-1.9454,-1.9257,-1.9339,-1.9406,-1.9488,-1.9563,-1.9657,-1.9657,-1.959,-1.9695,-1.9305,-1.9149,-1.8771,-1.8857,-1.8823,-1.8884,-1.9054,-1.9203,-1.9332,-1.9664,-1.9929,-2.0078,-2.0234,-2.037,-2.0465,-2.0519,-2.0539,-2.0539,-2.0505,-2.0505,-2.0363,-2.0214,-1.9963,-1.9691,-1.9488,-1.9291,-1.9108,-1.8952,-1.8857,-1.8796,-1.8769,-1.8762,-1.8762,-1.8762,-1.8762,0.0,0.0,0.0,0.0,0.0,0.0,0.0,0.0,0.0,0.0,0.0,0.0,0.0,0.0,0.0,0.0,0.0,0.0,0.0,0.0,0.0,0.0,0.0,0.0,0.0,0.0,0.0,0.0,0.0,0.0,0.0,0.0,0.0,0.0,0.0,0.0,0.0,0.0,0.0,0.0,0.0,0.0,0.0,0.0,0.0,0.0,-0.9775,-1.5383,-1.8818,-2.0112,-2.0092,-1.9936,-1.9712,-1.9685,-1.9685,-1.9685,-1.9685,-1.9664,-1.9664,-1.9664,-1.9664,-1.9657,-1.9657,-1.961,-1.9501,-1.9461,-1.9413,-1.9318,-1.9502,-1.9537,-1.9557,-1.9633,-1.9454,-1.9495,-1.959,-1.9651,-1.9664,-1.9664,-1.961,-1.9715,-1.9803,-1.9392,-1.902,-1.8891,-1.8816,-1.8925,-1.9094,-1.923,-1.9427,-1.9725,-1.9936,-2.0078,-2.0234,-2.0144,-2.0471,-2.0539,-2.0539,-2.0532,-2.0485,-2.0431,-2.0248,-2.0078,-1.9868,-1.9644,-1.944,-1.9244,-1.9054,-1.8918,-1.8803,-1.8769,-1.8762,-1.8762,-1.8762,-1.8762,-1.8762,0.0,0.0,0.0,0.0,0.0,0.0,0.0,0.0,0.0,0.0,0.0,0.0,0.0,0.0,0.0,0.0,0.0,0.0,0.0,0.0,0.0,0.0,0.0,0.0,0.0,0.0,0.0,0.0,0.0,0.0,0.0,0.0,0.0,0.0,0.0,0.0,0.0,0.0,0.0,0.0,0.0,0.0,0.0,0.0,0.0,0.0,-0.8728,-1.149,-1.4695,-1.8605,-1.999,-1.9881,-1.9807,-1.9712,-1.9712,-1.9766,-1.9712,-1.9664,-1.9664,-1.9664,-1.9664,-1.9664,-1.9664,-1.9651,-1.963,-1.9603,-1.9596,-1.9563,-1.9563,-1.9777,-1.9777,-1.9583,-1.9596,-1.9603,-1.963,-1.9664,-1.9664,-1.9664,-1.9637,-1.9811,-1.9619,-1.9434,-1.8898,-1.8898,-1.8877,-1.8986,-1.9115,-1.9264,-1.9515,-1.98,-1.9956,-2.0098,-2.0302,-2.0458,-2.0492,-2.0539,-2.0539,-2.0512,-2.0465,-2.0363,-2.018,-2.0024,-1.9847,-1.963,-1.9393,-1.9203,-1.902,-1.8877,-1.8769,-1.8762,-1.8762,-1.8762,-1.8762,-1.8762,-1.8762,0.0,0.0,0.0,0.0,0.0,0.0,0.0,0.0,0.0,0.0,0.0,0.0,0.0,0.0,0.0,0.0,0.0,0.0,0.0,0.0,0.0,0.0,0.0,0.0,0.0,0.0,0.0,0.0,0.0,0.0,0.0,0.0,0.0,0.0,0.0,0.0,0.0,0.0,0.0,0.0,0.0,0.0,0.0,0.0,0.0,-0.4381,-1.4182,-1.5048,-1.6703,-1.9096,-1.9915,-1.9813,-1.9834,-1.9997,-1.999,-1.982,-1.9746,-1.9671,-1.9664,-1.9664,-1.9664,-1.9664,-1.9664,-1.9664,-1.9664,-1.9664,-1.9664,-1.9664,-1.9657,-1.9664,-1.9664,-1.9664,-1.9664,-1.9664,-1.9664,-1.9664,-1.9664,-1.9664,-1.9664,-1.961,-1.964,-1.9257,-1.9108,-1.8918,-1.8945,-1.9061,-1.9122,-1.9278,-1.9583,-1.9841,-1.9997,-2.0159,-2.0383,-2.0512,-2.0526,-2.0539,-2.0539,-2.0499,-2.0431,-2.0309,-2.0146,-2.001,-1.9868,-1.9617,-1.9352,-1.9189,-1.902,-1.8877,-1.8762,-1.8762,-1.8762,-1.8762,-1.8762,-1.8762,-1.8762,0.0,0.0,0.0,0.0,0.0,0.0,0.0,0.0,0.0,0.0,0.0,0.0,0.0,0.0,0.0,0.0,0.0,0.0,0.0,0.0,0.0,0.0,0.0,0.0,0.0,0.0,0.0,0.0,0.0,0.0,0.0,0.0,0.0,0.0,0.0,0.0,0.0,0.0,0.0,0.0,0.0,0.0,0.0,0.0,0.0,0.0,-1.3129,-1.7097,-1.9727,-1.9903,-1.9841,-1.978,-1.9827,-2.0038,-2.0262,-1.9642,-1.9793,-1.9705,-1.9671,-1.9664,-1.9664,-1.9664,-1.9664,-1.9664,-1.9664,-1.9664,-1.9664,-1.9664,-1.9664,-1.9664,-1.9664,-1.9664,-1.9664,-1.9664,-1.9664,-1.9664,-1.9664,-1.9664,-1.9664,-1.9624,-1.9653,-1.9468,-1.9108,-1.8724,-1.9047,-1.9122,-1.9176,-1.9312,-1.9617,-1.9868,-2.0024,-2.0173,-2.0383,-2.0512,-2.0532,-2.0539,-2.0539,-2.0478,-2.041,-2.0254,-2.0098,-1.9929,-1.9759,-1.9542,-1.9312,-1.9162,-1.9013,-1.8871,-1.8789,-1.8776,-1.8762,-1.8762,-1.8762,-1.8762,-1.8762,0.0,0.0,0.0,0.0,0.0,0.0,0.0,0.0,0.0,0.0,0.0,0.0,0.0,0.0,0.0,0.0,0.0,0.0,0.0,0.0,0.0,0.0,0.0,0.0,0.0,0.0,0.0,0.0,0.0,0.0,0.0,0.0,0.0,0.0,0.0,0.0,0.0,0.0,0.0,0.0,0.0,0.0,0.0,0.0,0.0,0.0,-0.616,-1.4501,-1.9977,-1.9897,-1.9841,-1.9834,-1.9696,-2.0155,-2.0175,-1.9976,-1.9649,-1.9766,-1.9685,-1.9664,-1.9664,-1.9664,-1.9664,-1.9664,-1.9664,-1.9664,-1.9664,-1.9664,-1.9664,-1.9664,-1.9664,-1.9664,-1.9664,-1.9664,-1.9664,-1.9664,-1.9664,-1.9664,-1.9651,-1.961,-1.964,-1.942,-1.9067,-1.8751,-1.9006,-1.9088,-1.9183,-1.9345,-1.9617,-1.9868,-2.0064,-2.0214,-2.0363,-2.0465,-2.0539,-2.0539,-2.0532,-2.0465,-2.037,-2.0207,-2.0037,-1.9834,-1.9637,-1.9427,-1.9284,-1.9156,-1.9013,-1.8864,-1.8796,-1.8762,-1.8762,-1.8762,-1.8762,-1.8762,-1.8762,0.0,0.0,0.0,0.0,0.0,0.0,0.0,0.0,0.0,0.0,0.0,0.0,0.0,0.0,0.0,0.0,0.0,0.0,0.0,0.0,0.0,0.0,0.0,0.0,0.0,0.0,0.0,0.0,0.0,0.0,0.0,0.0,0.0,0.0,0.0,0.0,0.0,0.0,0.0,0.0,0.0,0.0,0.0,0.0,0.0,0.0,-0.6152,-0.9886,-1.6631,-1.9071,-1.9827,-1.9813,-1.9908,-2.0003,-2.0278,-2.0064,-1.9956,-1.9807,-1.9691,-1.9664,-1.9664,-1.9664,-1.9664,-1.9664,-1.9664,-1.9664,-1.9664,-1.9664,-1.9664,-1.9664,-1.9664,-1.9664,-1.9664,-1.9664,-1.9664,-1.9664,-1.9664,-1.9664,-1.9624,-1.9805,-1.9598,-1.9413,-1.904,-1.8751,-1.8972,-1.9047,-1.9169,-1.9379,-1.9617,-1.9868,-2.0098,-2.0234,-2.0376,-2.0471,-2.0539,-2.0539,-2.0512,-2.0451,-2.0329,-2.0159,-1.9969,-1.9773,-1.9549,-1.9325,-1.921,-1.9122,-1.9006,-1.8864,-1.881,-1.8762,-1.8762,-1.8762,-1.8762,-1.8762,-1.8762,0.0,0.0,0.0,0.0,0.0,0.0,0.0,0.0,0.0,0.0,0.0,0.0,0.0,0.0,0.0,0.0,0.0,0.0,0.0,0.0,0.0,0.0,0.0,0.0,0.0,0.0,0.0,0.0,0.0,0.0,0.0,0.0,0.0,0.0,0.0,0.0,0.0,0.0,0.0,0.0,0.0,0.0,0.0,0.0,0.0,-0.3607,-1.1571,-1.32,-1.5869,-1.879,-1.9868,-1.9732,-1.9861,-1.999,-2.0326,-2.0333,-1.9976,-1.9847,-1.9746,-1.9664,-1.9664,-1.9664,-1.9664,-1.9664,-1.9664,-1.9664,-1.9664,-1.9664,-1.9664,-1.9664,-1.9664,-1.9664,-1.9664,-1.9664,-1.9664,-1.9664,-1.9664,-1.9637,-1.9791,-1.9688,-1.953,-1.9392,-1.8784,-1.8918,-1.8891,-1.902,-1.9149,-1.9305,-1.9556,-1.9902,-2.0126,-2.0261,-2.0383,-2.0485,-2.0539,-2.0539,-2.0499,-2.0424,-2.0282,-2.0105,-1.9908,-1.9712,-1.9481,-1.9264,-1.9156,-1.9067,-1.8966,-1.8871,-1.8803,-1.8762,-1.8762,-1.8762,-1.8762,-1.8762,-1.8762,0.0,0.0,0.0,0.0,0.0,0.0,0.0,0.0,0.0,0.0,0.0,0.0,0.0,0.0,0.0,0.0,0.0,0.0,0.0,0.0,0.0,0.0,0.0,0.0,0.0,0.0,0.0,0.0,0.0,0.0,0.0,0.0,0.0,0.0,0.0,0.0,0.0,0.0,0.0,0.0,0.0,0.0,0.0,0.0,0.0,-0.5158,-1.5208,-1.7068,-1.8943,-1.9358,-1.9834,-1.9746,-1.9847,-1.9635,-1.9983,-2.0306,-2.0071,-1.9749,-1.9841,-1.9725,-1.9664,-1.9664,-1.9664,-1.9664,-1.9664,-1.9664,-1.9664,-1.9664,-1.9664,-1.9664,-1.9664,-1.9664,-1.9664,-1.9664,-1.9664,-1.9664,-1.9664,-1.959,-1.9743,-1.9592,-1.9447,-1.9101,-1.8744,-1.8884,-1.8823,-1.8972,-1.9128,-1.9284,-1.9508,-1.9861,-2.0166,-2.0302,-2.041,-2.0505,-2.0539,-2.0539,-2.0478,-2.0404,-2.0241,-2.0058,-1.9868,-1.9664,-1.9434,-1.9244,-1.9122,-1.8993,-1.8871,-1.8796,-1.8769,-1.8762,-1.8762,-1.8762,-1.8762,-1.8762,-1.8762,0.0,0.0,0.0,0.0,0.0,0.0,0.0,0.0,0.0,0.0,0.0,0.0,0.0,0.0,0.0,0.0,0.0,0.0,0.0,0.0,0.0,0.0,0.0,0.0,0.0,0.0,0.0,0.0,0.0,0.0,0.0,0.0,0.0,0.0,0.0,0.0,0.0,0.0,0.0,0.0,0.0,0.0,0.0,0.0,0.0,0.0,-1.2595,-1.8875,-1.9964,-2.0098,-1.9827,-1.9691,-1.9759,-1.9827,-1.9936,-2.0078,-2.0098,-2.0024,-1.9875,-1.9746,-1.9685,-1.9664,-1.9664,-1.9664,-1.9664,-1.9664,-1.9664,-1.9664,-1.9664,-1.9664,-1.9664,-1.9664,-1.9664,-1.9664,-1.9664,-1.9651,-1.9624,-1.9542,-1.9447,-1.9523,-1.9365,-1.9027,-1.8932,-1.885,-1.8816,-1.8945,-1.9108,-1.9291,-1.9529,-1.9841,-2.0119,-2.0349,-2.0444,-2.0532,-2.0539,-2.0532,-2.0451,-2.0363,-2.0214,-2.0031,-1.9841,-1.963,-1.9373,-1.9162,-1.9006,-1.8884,-1.8776,-1.8762,-1.8762,-1.8762,-1.8762,-1.8762,-1.8762,-1.8762,-1.8762,0.0,0.0,0.0,0.0,0.0,0.0,0.0,0.0,0.0,0.0,0.0,0.0,0.0,0.0,0.0,0.0,0.0,0.0,0.0,0.0,0.0,0.0,0.0,0.0,0.0,0.0,0.0,0.0,0.0,0.0,0.0,0.0,0.0,0.0,0.0,0.0,0.0,0.0,0.0,0.0,0.0,0.0,0.0,0.0,0.0,0.0,-0.797,-1.6331,-2.0024,-2.0092,-1.9875,-1.9732,-1.9705,-1.9759,-1.9615,-1.9969,-1.999,-2.0189,-1.9861,-1.978,-1.9705,-1.9671,-1.9664,-1.9664,-1.9664,-1.9664,-1.9664,-1.9664,-1.9664,-1.9664,-1.9664,-1.9664,-1.9664,-1.9664,-1.9664,-1.9637,-1.9596,-1.9488,-1.9352,-1.942,-1.9276,-1.918,-1.8857,-1.8796,-1.8816,-1.8925,-1.9088,-1.9284,-1.9569,-1.9868,-2.0092,-2.0336,-2.0451,-2.0526,-2.0526,-2.0505,-2.0424,-2.0302,-2.0153,-1.9949,-1.9725,-1.9501,-1.9257,-1.9067,-1.8918,-1.8837,-1.8762,-1.8762,-1.8762,-1.8762,-1.8762,-1.8762,-1.8762,-1.8762,-1.8762,0.0,0.0,0.0,0.0,0.0,0.0,0.0,0.0,0.0,0.0,0.0,0.0,0.0,0.0,0.0,0.0,0.0,0.0,0.0,0.0,0.0,0.0,0.0,0.0,0.0,0.0,0.0,0.0,0.0,0.0,0.0,0.0,0.0,0.0,0.0,0.0,0.0,0.0,0.0,0.0,0.0,0.0,0.0,0.0,0.0,0.0,0.0,-1.257,-1.9846,-1.966,-1.9942,-1.9766,-1.9691,-1.9698,-1.9786,-1.9875,-1.9847,-2.0072,-1.9807,-1.9807,-1.9773,-1.9705,-1.9664,-1.9664,-1.9664,-1.9664,-1.9664,-1.9664,-1.9664,-1.9664,-1.9664,-1.9664,-1.9664,-1.9651,-1.963,-1.9563,-1.9501,-1.9406,-1.9264,-1.9317,-1.9193,-1.8871,-1.883,-1.8776,-1.8762,-1.8857,-1.9094,-1.9291,-1.9637,-1.9929,-2.0098,-2.0295,-2.0438,-2.0505,-2.0505,-2.0431,-2.0288,-2.0159,-2.0031,-1.9793,-1.9542,-1.9325,-1.9176,-1.9027,-1.8898,-1.8823,-1.8762,-1.8762,-1.8762,-1.8762,-1.8762,-1.8762,-1.8762,-1.8762,-1.8762,0.0,0.0,0.0,0.0,0.0,0.0,0.0,0.0,0.0,0.0,0.0,0.0,0.0,0.0,0.0,0.0,0.0,0.0,0.0,0.0,0.0,0.0,0.0,0.0,0.0,0.0,0.0,0.0,0.0,0.0,0.0,0.0,0.0,0.0,0.0,0.0,0.0,0.0,0.0,0.0,0.0,0.0,0.0,0.0,0.0,0.0,0.0,0.0,-1.5286,-1.8924,-1.9736,-1.982,-1.9691,-1.9671,-1.9732,-1.9834,-1.9786,-1.9773,-1.9732,-1.9746,-1.9712,-1.9691,-1.9664,-1.9664,-1.9664,-1.9664,-1.9664,-1.9664,-1.9664,-1.9664,-1.9664,-1.9664,-1.9657,-1.9637,-1.9576,-1.9488,-1.9393,-1.9291,-1.9176,-1.9228,-1.9125,-1.881,-1.8782,-1.8762,-1.8762,-1.8789,-1.9054,-1.9332,-1.9657,-1.9949,-2.0105,-2.0227,-2.0356,-2.0171,-2.0171,-2.0037,-2.0132,-2.0024,-1.9908,-1.9685,-1.9454,-1.9312,-1.9162,-1.9013,-1.8877,-1.8803,-1.8762,-1.8762,-1.8762,-1.8762,-1.8762,-1.8762,-1.8762,-1.8735,-1.8708,0.0,0.0,0.0,0.0,0.0,0.0,0.0,0.0,0.0,0.0,0.0,0.0,0.0,0.0,0.0,0.0,0.0,0.0,0.0,0.0,0.0,0.0,0.0,0.0,0.0,0.0,0.0,0.0,0.0,0.0,0.0,0.0,0.0,0.0,0.0,0.0,0.0,0.0,0.0,0.0,0.0,0.0,0.0,0.0,0.0,0.0,0.0,-0.7506,-1.3815,-1.7965,-2.0031,-1.9854,-1.9739,-1.9678,-1.9719,-1.9773,-1.9793,-1.9508,-1.9434,-1.9367,-1.9624,-1.9651,-1.9664,-1.9664,-1.9664,-1.9664,-1.9664,-1.9664,-1.9664,-1.9657,-1.9644,-1.9617,-1.9576,-1.9535,-1.942,-1.9332,-1.9237,-1.9128,-1.9033,-1.9145,-1.8837,-1.8782,-1.8816,-1.8823,-1.8911,-1.8959,-1.9162,-1.94,-1.963,-1.9888,-2.0078,-2.018,-2.0261,-2.0051,-2.0071,-1.9897,-1.9997,-1.9956,-1.982,-1.9624,-1.9427,-1.9284,-1.9108,-1.8925,-1.8816,-1.8776,-1.8762,-1.8755,-1.8762,-1.8762,-1.8728,-1.8667,-1.8572,-1.8538,-1.8565,0.0,0.0,0.0,0.0,0.0,0.0,0.0,0.0,0.0,0.0,0.0,0.0,0.0,0.0,0.0,0.0,0.0,0.0,0.0,0.0,0.0,0.0,0.0,0.0,0.0,0.0,0.0,0.0,0.0,0.0,0.0,0.0,0.0,0.0,0.0,0.0,0.0,0.0,0.0,0.0,0.0,0.0,0.0,0.0,0.0,0.0,0.0,0.0,-1.1839,-1.8535,-1.9897,-1.9936,-1.9705,-1.9671,-1.9678,-1.9685,-1.9685,-1.9671,-1.9644,-1.9515,-1.9508,-1.9569,-1.9556,-1.959,-1.9637,-1.9651,-1.963,-1.9603,-1.9624,-1.9624,-1.9596,-1.9529,-1.9461,-1.9393,-1.9284,-1.9189,-1.9094,-1.9,-1.8905,-1.8877,-1.8823,-1.8782,-1.883,-1.8898,-1.904,-1.9162,-1.9325,-1.9495,-1.9664,-1.982,-2.0017,-2.0064,-2.0132,-1.9903,-1.989,-1.999,-1.9868,-1.9834,-1.9725,-1.9529,-1.9366,-1.9217,-1.9033,-1.8837,-1.8782,-1.8762,-1.8755,-1.8755,-1.8701,-1.8633,-1.8579,-1.8511,-1.8409,-1.8369,-1.8423,0.0,0.0,0.0,0.0,0.0,0.0,0.0,0.0,0.0,0.0,0.0,0.0,0.0,0.0,0.0,0.0,0.0,0.0,0.0,0.0,0.0,0.0,0.0,0.0,0.0,0.0,0.0,0.0,0.0,0.0,0.0,0.0,0.0,0.0,0.0,0.0,0.0,0.0,0.0,0.0,0.0,0.0,0.0,0.0,0.0,0.0,0.0,0.0,-0.8797,-1.7327,-1.8705,-1.999,-1.9732,-1.9664,-1.9664,-1.9664,-1.9664,-1.9603,-1.9508,-1.9379,-1.9298,-1.9339,-1.9386,-1.9434,-1.9729,-1.975,-1.975,-1.975,-1.9508,-1.9468,-1.9352,-1.9318,-1.9271,-1.925,-1.9162,-1.9081,-1.8993,-1.8891,-1.881,-1.8837,-1.8816,-1.8871,-1.8925,-1.8952,-1.9067,-1.9183,-1.9318,-1.9481,-1.9651,-1.978,-1.9929,-1.9936,-1.9963,-1.999,-1.9709,-1.9854,-1.9786,-1.9752,-1.9624,-1.9434,-1.9284,-1.9156,-1.8993,-1.881,-1.8782,-1.8762,-1.8721,-1.8667,-1.8559,-1.8484,-1.8403,-1.8362,-1.8301,-1.8294,-1.8342,0.0,0.0,0.0,0.0,0.0,0.0,0.0,0.0,0.0,0.0,0.0,0.0,0.0,0.0,0.0,0.0,0.0,0.0,0.0,0.0,0.0,0.0,0.0,0.0,0.0,0.0,0.0,0.0,0.0,0.0,0.0,0.0,0.0,0.0,0.0,0.0,0.0,0.0,0.0,0.0,0.0,0.0,0.0,0.0,0.0,0.0,0.0,0.0,0.0,0.0,-1.6938,-1.926,-1.9786,-1.9671,-1.9664,-1.9664,-1.9651,-1.9556,-1.9379,-1.9284,-1.9183,-1.9061,-1.9142,-1.9264,-1.9592,-1.9612,-1.9612,-1.9605,-1.9352,-1.9052,-1.8972,-1.9176,-1.9115,-1.9094,-1.9033,-1.8959,-1.8979,-1.8877,-1.8905,-1.8918,-1.8938,-1.8751,-1.8764,-1.9033,-1.9081,-1.9189,-1.9298,-1.9468,-1.963,-1.9752,-1.9854,-1.9861,-1.9868,-1.9902,-1.9875,-1.978,-1.9712,-1.9664,-1.9522,-1.9359,-1.9237,-1.9115,-1.8952,-1.881,-1.8782,-1.8735,-1.8654,-1.8572,-1.8443,-1.8308,-1.8186,-1.8158,-1.8165,-1.8186,-1.8206,0.0,0.0,0.0,0.0,0.0,0.0,0.0,0.0,0.0,0.0,0.0,0.0,0.0,0.0,0.0,0.0,0.0,0.0,0.0,0.0,0.0,0.0,0.0,0.0,0.0,0.0,0.0,0.0,0.0,0.0,0.0,0.0,0.0,0.0,0.0,0.0,0.0,0.0,0.0,0.0,0.0,0.0,0.0,0.0,0.0,0.0,0.0,0.0,0.0,0.0,-1.2115,-1.6986,-1.9575,-1.9691,-1.9671,-1.9664,-1.9664,-1.9501,-1.9332,-1.9264,-1.9101,-1.8993,-1.9088,-1.9183,-1.8483,-1.849,-1.9468,-1.9454,-1.9196,-1.8939,-1.8905,-1.8825,-1.8979,-1.8938,-1.8891,-1.8905,-1.8979,-1.9,-1.9061,-1.8851,-1.8858,-1.8865,-1.8805,-1.9054,-1.9047,-1.9115,-1.9223,-1.94,-1.9563,-1.9719,-1.98,-1.9813,-1.9827,-1.9841,-1.9793,-1.9719,-1.9644,-1.9596,-1.9468,-1.9312,-1.9196,-1.9067,-1.8911,-1.8796,-1.8776,-1.8715,-1.8613,-1.847,-1.8308,-1.8172,-1.8063,-1.7996,-1.8016,-1.7982,-1.7975,0.0,0.0,0.0,0.0,0.0,0.0,0.0,0.0,0.0,0.0,0.0,0.0,0.0,0.0,0.0,0.0,0.0,0.0,0.0,0.0,0.0,0.0,0.0,0.0,0.0,0.0,0.0,0.0,0.0,0.0,0.0,0.0,0.0,0.0,0.0,0.0,0.0,0.0,0.0,0.0,0.0,0.0,0.0,0.0,0.0,0.0,0.0,0.0,0.0,0.0,0.0,-1.3991,-1.9766,-1.9691,-1.9664,-1.9664,-1.9651,-1.9583,-1.9434,-1.9312,-1.8688,-1.8046,-1.8307,-1.5633,-1.5179,-1.6403,-1.9067,-1.9054,-1.9047,-1.8798,-1.8771,-1.8938,-1.8898,-1.8884,-1.8884,-1.8986,-1.9061,-1.9128,-1.9183,-1.9189,-1.9203,-1.8885,-1.8831,-1.8993,-1.8986,-1.904,-1.9142,-1.9305,-1.9468,-1.9617,-1.9739,-1.9752,-1.9759,-1.9773,-1.9746,-1.9678,-1.9596,-1.9508,-1.9386,-1.925,-1.9094,-1.8966,-1.8843,-1.8776,-1.8742,-1.866,-1.8565,-1.8403,-1.8226,-1.8111,-1.8002,-1.7928,-1.786,-1.786,-1.786,0.0,0.0,0.0,0.0,0.0,0.0,0.0,0.0,0.0,0.0,0.0,0.0,0.0,0.0,0.0,0.0,0.0,0.0,0.0,0.0,0.0,0.0,0.0,0.0,0.0,0.0,0.0,0.0,0.0,0.0,0.0,0.0,0.0,0.0,0.0,0.0,0.0,0.0,0.0,0.0,0.0,0.0,0.0,0.0,0.0,0.0,0.0,0.0,0.0,0.0,0.0,-1.5036,-1.9588,-1.9732,-1.9678,-1.9678,-1.9685,-1.961,-1.8992,-1.6175,-1.5835,-1.5249,-1.5381,-1.4863,-1.5571,-1.7265,-1.8443,-1.8905,-1.8905,-1.8898,-1.8857,-1.883,-1.8843,-1.8864,-1.8979,-1.9094,-1.9176,-1.925,-1.9264,-1.9271,-1.9217,-1.9128,-1.9047,-1.8966,-1.8905,-1.8925,-1.8986,-1.9115,-1.9278,-1.9434,-1.959,-1.9685,-1.9685,-1.9685,-1.9664,-1.9644,-1.9556,-1.9454,-1.9325,-1.9183,-1.9013,-1.8891,-1.8803,-1.8749,-1.8701,-1.8599,-1.8484,-1.8321,-1.8152,-1.8043,-1.7955,-1.7901,-1.786,-1.786,-1.786,0.0,0.0,0.0,0.0,0.0,0.0,0.0,0.0,0.0,0.0,0.0,0.0,0.0,0.0,0.0,0.0,0.0,0.0,0.0,0.0,0.0,0.0,0.0,0.0,0.0,0.0,0.0,0.0,0.0,0.0,0.0,0.0,0.0,0.0,0.0,0.0,0.0,0.0,0.0,0.0,0.0,0.0,0.0,0.0,0.0,0.0,0.0,0.0,0.0,0.0,-0.8904,-1.5831,-1.9409,-1.978,-1.9725,-1.9705,-1.9719,-1.9685,-1.8581,-1.5997,-1.1279,-0.9997,-0.9199,-1.2957,-1.58,-1.7702,-1.8637,-1.8857,-1.8871,-1.6939,-1.643,-1.817,-1.8938,-1.8993,-1.9094,-1.921,-1.9305,-1.9352,-1.9598,-1.9557,-1.9189,-1.9101,-1.8778,-1.8925,-1.8837,-1.8823,-1.8864,-1.8966,-1.9094,-1.9257,-1.942,-1.9583,-1.9644,-1.9651,-1.9644,-1.961,-1.9529,-1.942,-1.9271,-1.9108,-1.8932,-1.8837,-1.8769,-1.8721,-1.8681,-1.8518,-1.8375,-1.8233,-1.7873,-1.7962,-1.7887,-1.7874,-1.786,-1.786,-1.786,0.0,0.0,0.0,0.0,0.0,0.0,0.0,0.0,0.0,0.0,0.0,0.0,0.0,0.0,0.0,0.0,0.0,0.0,0.0,0.0,0.0,0.0,0.0,0.0,0.0,0.0,0.0,0.0,0.0,0.0,0.0,0.0,0.0,0.0,0.0,0.0,0.0,0.0,0.0,0.0,0.0,0.0,0.0,0.0,0.0,0.0,0.0,0.0,0.0,0.0,0.0,-0.9494,-1.8781,-1.9283,-1.9508,-1.9732,-1.8253,-1.8247,-1.8453,-1.5597,-1.0851,-0.6462,-0.6651,-1.2533,-1.6297,-1.7942,-1.8637,-1.8384,-1.7172,-1.4772,-1.5021,-1.7493,-1.904,-1.9122,-1.9217,-1.9332,-1.9434,-1.9434,-1.9681,-1.9544,-1.9162,-1.9061,-1.8731,-1.8884,-1.8796,-1.8769,-1.8782,-1.885,-1.8959,-1.9101,-1.9264,-1.9427,-1.9603,-1.9637,-1.963,-1.9563,-1.9468,-1.9325,-1.9162,-1.9006,-1.8857,-1.8803,-1.8755,-1.8715,-1.8647,-1.8477,-1.8328,-1.8192,-1.805,-1.7907,-1.786,-1.786,-1.786,-1.786,-1.786,0.0,0.0,0.0,0.0,0.0,0.0,0.0,0.0,0.0,0.0,0.0,0.0,0.0,0.0,0.0,0.0,0.0,0.0,0.0,0.0,0.0,0.0,0.0,0.0,0.0,0.0,0.0,0.0,0.0,0.0,0.0,0.0,0.0,0.0,0.0,0.0,0.0,0.0,0.0,0.0,0.0,0.0,0.0,0.0,0.0,0.0,0.0,0.0,0.0,0.0,0.0,0.0,-1.0597,-1.6055,-1.5537,-1.229,-1.0816,-1.357,-1.6032,-1.3964,0.0,0.0,0.0,0.0,0.0,-1.0833,-1.2943,-1.2461,-0.8915,-0.6322,-1.4607,-1.8516,-1.9101,-1.9189,-1.9345,-1.9495,-1.9481,-1.9674,-1.9571,-1.9392,-1.9047,-1.8979,-1.8898,-1.8837,-1.8762,-1.8762,-1.8769,-1.8769,-1.8864,-1.8952,-1.9115,-1.9257,-1.9434,-1.9596,-1.9644,-1.9535,-1.94,-1.9244,-1.9067,-1.8952,-1.883,-1.8789,-1.8749,-1.8694,-1.8829,-1.8665,-1.8287,-1.8138,-1.8023,-1.7887,-1.7867,-1.786,-1.786,-1.786,-1.786,0.0,0.0,0.0,0.0,0.0,0.0,0.0,0.0,0.0,0.0,0.0,0.0,0.0,0.0,0.0,0.0,0.0,0.0,0.0,0.0,0.0,0.0,0.0,0.0,0.0,0.0,0.0,0.0,0.0,0.0,0.0,0.0,0.0,0.0,0.0,0.0,0.0,0.0,0.0,0.0,0.0,0.0,0.0,0.0,0.0,0.0,0.0,0.0,0.0,0.0,0.0,0.0,0.0,-0.9614,-0.8118,0.0,0.0,0.0,-1.1092,-0.6861,0.0,0.0,0.0,0.0,0.0,0.0,0.0,0.0,0.0,-0.4461,-1.2745,-1.8556,-1.8892,-1.9217,-1.94,-1.9535,-1.9461,-1.9619,-1.9441,-1.9248,-1.8952,-1.8891,-1.8837,-1.8776,-1.8762,-1.8762,-1.8762,-1.8762,-1.8789,-1.8871,-1.8986,-1.9108,-1.9244,-1.9406,-1.9569,-1.9474,-1.9298,-1.9156,-1.8993,-1.8898,-1.8816,-1.8782,-1.8728,-1.8667,-1.8552,-1.861,-1.8445,-1.8057,-1.7948,-1.7867,-1.7867,-1.786,-1.786,-1.786,-1.786,0.0,0.0,0.0,0.0,0.0,0.0,0.0,0.0,0.0,0.0,0.0,0.0,0.0,0.0,0.0,0.0,0.0,0.0,0.0,0.0,0.0,0.0,0.0,0.0,0.0,0.0,0.0,0.0,0.0,0.0,0.0,0.0,0.0,0.0,0.0,0.0,0.0,0.0,0.0,0.0,0.0,0.0,0.0,0.0,0.0,0.0,0.0,0.0,0.0,0.0,0.0,0.0,0.0,0.0,0.0,0.0,0.0,0.0,0.0,0.0,0.0,0.0,0.0,0.0,0.0,0.0,0.0,0.0,0.0,0.0,-1.0594,-1.6856,-1.8872,-1.9128,-1.9237,-1.9284,-1.9264,-1.942,-1.9289,-1.918,-1.8877,-1.883,-1.8796,-1.8762,-1.8762,-1.8762,-1.8762,-1.8762,-1.8762,-1.8816,-1.8877,-1.8986,-1.9331,-1.9244,-1.9413,-1.9332,-1.9183,-1.9047,-1.8932,-1.8843,-1.8789,-1.8776,-1.8721,-1.8674,-1.8733,-1.8548,-1.8376,-1.8036,-1.7928,-1.7867,-1.7867,-1.786,-1.786,-1.786,-1.786]}]]